<?xml version="1.0" encoding="UTF-8" standalone="no" ?>
<gpx xmlns="http://www.topografix.com/GPX/1/1" xmlns:xsi="http://www.w3.org/2001/XMLSchema-instance" xsi:schemaLocation="http://www.topografix.com/GPX/1/1 http://www.topografix.com/GPX/1/1/gpx.xsd" version="1.1" creator="VisuGPX - https://www.visugpx.com">
  <metadata>
    <name>07/05/2022 ibardin</name>
    <desc><![CDATA[boucle au départ d'Urrugne puis col d'Ibardin par le lac et retour par chemin]]></desc>
  </metadata>
  <trk>
    <name><![CDATA[07/05/2022 ibardin_1]]></name>
    <trkseg>
      <trkpt lat="43.33371" lon="-1.6875">
        <ele>97.6</ele>
        <time>2022-05-07T06:34:34Z</time>
      </trkpt>
      <trkpt lat="43.33371" lon="-1.68753">
        <ele>95</ele>
        <time>2022-05-07T06:35:02Z</time>
      </trkpt>
      <trkpt lat="43.3337" lon="-1.68753">
        <ele>95.2</ele>
        <time>2022-05-07T06:35:04Z</time>
      </trkpt>
      <trkpt lat="43.33369" lon="-1.68751">
        <ele>95.2</ele>
        <time>2022-05-07T06:35:06Z</time>
      </trkpt>
      <trkpt lat="43.33369" lon="-1.68748">
        <ele>95</ele>
        <time>2022-05-07T06:35:08Z</time>
      </trkpt>
      <trkpt lat="43.33366" lon="-1.68733">
        <ele>95</ele>
        <time>2022-05-07T06:35:14Z</time>
      </trkpt>
      <trkpt lat="43.33369" lon="-1.6873">
        <ele>94.8</ele>
        <time>2022-05-07T06:35:17Z</time>
      </trkpt>
      <trkpt lat="43.33374" lon="-1.6873">
        <ele>94.8</ele>
        <time>2022-05-07T06:35:19Z</time>
      </trkpt>
      <trkpt lat="43.33384" lon="-1.68727">
        <ele>94.6</ele>
        <time>2022-05-07T06:35:25Z</time>
      </trkpt>
      <trkpt lat="43.33388" lon="-1.68727">
        <ele>94.4</ele>
        <time>2022-05-07T06:35:27Z</time>
      </trkpt>
      <trkpt lat="43.33394" lon="-1.6873">
        <ele>94.4</ele>
        <time>2022-05-07T06:35:30Z</time>
      </trkpt>
      <trkpt lat="43.33408" lon="-1.68754">
        <ele>94.4</ele>
        <time>2022-05-07T06:35:35Z</time>
      </trkpt>
      <trkpt lat="43.3342" lon="-1.68784">
        <ele>94.4</ele>
        <time>2022-05-07T06:35:41Z</time>
      </trkpt>
      <trkpt lat="43.33427" lon="-1.68837">
        <ele>94.2</ele>
        <time>2022-05-07T06:35:51Z</time>
      </trkpt>
      <trkpt lat="43.33432" lon="-1.6885">
        <ele>94.2</ele>
        <time>2022-05-07T06:35:52Z</time>
      </trkpt>
      <trkpt lat="43.33434" lon="-1.68858">
        <ele>94</ele>
        <time>2022-05-07T06:35:53Z</time>
      </trkpt>
      <trkpt lat="43.33442" lon="-1.68874">
        <ele>93.8</ele>
        <time>2022-05-07T06:35:55Z</time>
      </trkpt>
      <trkpt lat="43.33446" lon="-1.68883">
        <ele>93.6</ele>
        <time>2022-05-07T06:35:56Z</time>
      </trkpt>
      <trkpt lat="43.3345" lon="-1.68891">
        <ele>93.4</ele>
        <time>2022-05-07T06:35:57Z</time>
      </trkpt>
      <trkpt lat="43.33454" lon="-1.68899">
        <ele>93</ele>
        <time>2022-05-07T06:35:58Z</time>
      </trkpt>
      <trkpt lat="43.33465" lon="-1.68915">
        <ele>92.2</ele>
        <time>2022-05-07T06:36:01Z</time>
      </trkpt>
      <trkpt lat="43.33475" lon="-1.68932">
        <ele>92</ele>
        <time>2022-05-07T06:36:02Z</time>
      </trkpt>
      <trkpt lat="43.33501" lon="-1.68965">
        <ele>90.8</ele>
        <time>2022-05-07T06:36:06Z</time>
      </trkpt>
      <trkpt lat="43.33509" lon="-1.68973">
        <ele>90.4</ele>
        <time>2022-05-07T06:36:07Z</time>
      </trkpt>
      <trkpt lat="43.33517" lon="-1.68982">
        <ele>90</ele>
        <time>2022-05-07T06:36:08Z</time>
      </trkpt>
      <trkpt lat="43.33524" lon="-1.68987">
        <ele>89.6</ele>
        <time>2022-05-07T06:36:09Z</time>
      </trkpt>
      <trkpt lat="43.33533" lon="-1.6899">
        <ele>89</ele>
        <time>2022-05-07T06:36:10Z</time>
      </trkpt>
      <trkpt lat="43.33552" lon="-1.68996">
        <ele>88</ele>
        <time>2022-05-07T06:36:12Z</time>
      </trkpt>
      <trkpt lat="43.33572" lon="-1.69">
        <ele>87</ele>
        <time>2022-05-07T06:36:14Z</time>
      </trkpt>
      <trkpt lat="43.33581" lon="-1.69002">
        <ele>86.2</ele>
        <time>2022-05-07T06:36:15Z</time>
      </trkpt>
      <trkpt lat="43.33588" lon="-1.69005">
        <ele>86</ele>
        <time>2022-05-07T06:36:16Z</time>
      </trkpt>
      <trkpt lat="43.33596" lon="-1.69009">
        <ele>85.2</ele>
        <time>2022-05-07T06:36:17Z</time>
      </trkpt>
      <trkpt lat="43.3361" lon="-1.69029">
        <ele>84.4</ele>
        <time>2022-05-07T06:36:19Z</time>
      </trkpt>
      <trkpt lat="43.33615" lon="-1.6904">
        <ele>84</ele>
        <time>2022-05-07T06:36:20Z</time>
      </trkpt>
      <trkpt lat="43.33626" lon="-1.69062">
        <ele>83</ele>
        <time>2022-05-07T06:36:22Z</time>
      </trkpt>
      <trkpt lat="43.33642" lon="-1.6908">
        <ele>81.8</ele>
        <time>2022-05-07T06:36:24Z</time>
      </trkpt>
      <trkpt lat="43.33651" lon="-1.69088">
        <ele>80.8</ele>
        <time>2022-05-07T06:36:25Z</time>
      </trkpt>
      <trkpt lat="43.33661" lon="-1.69094">
        <ele>80.4</ele>
        <time>2022-05-07T06:36:26Z</time>
      </trkpt>
      <trkpt lat="43.33672" lon="-1.69098">
        <ele>79.2</ele>
        <time>2022-05-07T06:36:27Z</time>
      </trkpt>
      <trkpt lat="43.33693" lon="-1.691">
        <ele>77.6</ele>
        <time>2022-05-07T06:36:29Z</time>
      </trkpt>
      <trkpt lat="43.33704" lon="-1.69099">
        <ele>76.6</ele>
        <time>2022-05-07T06:36:30Z</time>
      </trkpt>
      <trkpt lat="43.33715" lon="-1.69098">
        <ele>76</ele>
        <time>2022-05-07T06:36:31Z</time>
      </trkpt>
      <trkpt lat="43.33727" lon="-1.69097">
        <ele>75.4</ele>
        <time>2022-05-07T06:36:32Z</time>
      </trkpt>
      <trkpt lat="43.3375" lon="-1.69094">
        <ele>74</ele>
        <time>2022-05-07T06:36:34Z</time>
      </trkpt>
      <trkpt lat="43.3376" lon="-1.69091">
        <ele>73.4</ele>
        <time>2022-05-07T06:36:35Z</time>
      </trkpt>
      <trkpt lat="43.33771" lon="-1.69087">
        <ele>72.4</ele>
        <time>2022-05-07T06:36:36Z</time>
      </trkpt>
      <trkpt lat="43.33792" lon="-1.69076">
        <ele>70.8</ele>
        <time>2022-05-07T06:36:38Z</time>
      </trkpt>
      <trkpt lat="43.33803" lon="-1.6907">
        <ele>70.4</ele>
        <time>2022-05-07T06:36:39Z</time>
      </trkpt>
      <trkpt lat="43.33813" lon="-1.69065">
        <ele>69.4</ele>
        <time>2022-05-07T06:36:40Z</time>
      </trkpt>
      <trkpt lat="43.33832" lon="-1.69056">
        <ele>68.4</ele>
        <time>2022-05-07T06:36:42Z</time>
      </trkpt>
      <trkpt lat="43.33842" lon="-1.69053">
        <ele>67.8</ele>
        <time>2022-05-07T06:36:43Z</time>
      </trkpt>
      <trkpt lat="43.3385" lon="-1.69053">
        <ele>67</ele>
        <time>2022-05-07T06:36:44Z</time>
      </trkpt>
      <trkpt lat="43.33862" lon="-1.69054">
        <ele>66.6</ele>
        <time>2022-05-07T06:36:45Z</time>
      </trkpt>
      <trkpt lat="43.33872" lon="-1.69056">
        <ele>66</ele>
        <time>2022-05-07T06:36:46Z</time>
      </trkpt>
      <trkpt lat="43.3389" lon="-1.69062">
        <ele>64.6</ele>
        <time>2022-05-07T06:36:48Z</time>
      </trkpt>
      <trkpt lat="43.33911" lon="-1.69069">
        <ele>63.4</ele>
        <time>2022-05-07T06:36:50Z</time>
      </trkpt>
      <trkpt lat="43.3393" lon="-1.69076">
        <ele>62.2</ele>
        <time>2022-05-07T06:36:52Z</time>
      </trkpt>
      <trkpt lat="43.33948" lon="-1.6908">
        <ele>61.4</ele>
        <time>2022-05-07T06:36:54Z</time>
      </trkpt>
      <trkpt lat="43.33957" lon="-1.69081">
        <ele>60.8</ele>
        <time>2022-05-07T06:36:55Z</time>
      </trkpt>
      <trkpt lat="43.33983" lon="-1.69084">
        <ele>59.6</ele>
        <time>2022-05-07T06:36:58Z</time>
      </trkpt>
      <trkpt lat="43.34007" lon="-1.69089">
        <ele>58.6</ele>
        <time>2022-05-07T06:37:01Z</time>
      </trkpt>
      <trkpt lat="43.34015" lon="-1.6909">
        <ele>58.2</ele>
        <time>2022-05-07T06:37:02Z</time>
      </trkpt>
      <trkpt lat="43.34022" lon="-1.69091">
        <ele>58</ele>
        <time>2022-05-07T06:37:03Z</time>
      </trkpt>
      <trkpt lat="43.34036" lon="-1.6909">
        <ele>57.6</ele>
        <time>2022-05-07T06:37:05Z</time>
      </trkpt>
      <trkpt lat="43.34041" lon="-1.69089">
        <ele>57.2</ele>
        <time>2022-05-07T06:37:06Z</time>
      </trkpt>
      <trkpt lat="43.34053" lon="-1.69088">
        <ele>56</ele>
        <time>2022-05-07T06:37:09Z</time>
      </trkpt>
      <trkpt lat="43.34055" lon="-1.69091">
        <ele>55.8</ele>
        <time>2022-05-07T06:37:10Z</time>
      </trkpt>
      <trkpt lat="43.34054" lon="-1.69098">
        <ele>55.4</ele>
        <time>2022-05-07T06:37:12Z</time>
      </trkpt>
      <trkpt lat="43.34053" lon="-1.69102">
        <ele>55</ele>
        <time>2022-05-07T06:37:13Z</time>
      </trkpt>
      <trkpt lat="43.34051" lon="-1.69105">
        <ele>54.8</ele>
        <time>2022-05-07T06:37:14Z</time>
      </trkpt>
      <trkpt lat="43.34045" lon="-1.69111">
        <ele>54.4</ele>
        <time>2022-05-07T06:37:16Z</time>
      </trkpt>
      <trkpt lat="43.34026" lon="-1.69134">
        <ele>54</ele>
        <time>2022-05-07T06:37:24Z</time>
      </trkpt>
      <trkpt lat="43.34014" lon="-1.69141">
        <ele>54</ele>
        <time>2022-05-07T06:37:28Z</time>
      </trkpt>
      <trkpt lat="43.34007" lon="-1.69144">
        <ele>54.2</ele>
        <time>2022-05-07T06:37:30Z</time>
      </trkpt>
      <trkpt lat="43.33994" lon="-1.69157">
        <ele>54.2</ele>
        <time>2022-05-07T06:37:34Z</time>
      </trkpt>
      <trkpt lat="43.3399" lon="-1.69178">
        <ele>54.4</ele>
        <time>2022-05-07T06:37:38Z</time>
      </trkpt>
      <trkpt lat="43.33992" lon="-1.69217">
        <ele>55.6</ele>
        <time>2022-05-07T06:37:45Z</time>
      </trkpt>
      <trkpt lat="43.33993" lon="-1.69222">
        <ele>55.8</ele>
        <time>2022-05-07T06:37:46Z</time>
      </trkpt>
      <trkpt lat="43.33994" lon="-1.69231">
        <ele>56</ele>
        <time>2022-05-07T06:37:48Z</time>
      </trkpt>
      <trkpt lat="43.33993" lon="-1.69246">
        <ele>56.4</ele>
        <time>2022-05-07T06:37:51Z</time>
      </trkpt>
      <trkpt lat="43.33989" lon="-1.69264">
        <ele>56.8</ele>
        <time>2022-05-07T06:37:55Z</time>
      </trkpt>
      <trkpt lat="43.33988" lon="-1.69269">
        <ele>57</ele>
        <time>2022-05-07T06:37:56Z</time>
      </trkpt>
      <trkpt lat="43.33982" lon="-1.69292">
        <ele>58.2</ele>
        <time>2022-05-07T06:38:01Z</time>
      </trkpt>
      <trkpt lat="43.33979" lon="-1.69301">
        <ele>58.8</ele>
        <time>2022-05-07T06:38:03Z</time>
      </trkpt>
      <trkpt lat="43.33973" lon="-1.6932">
        <ele>59.4</ele>
        <time>2022-05-07T06:38:07Z</time>
      </trkpt>
      <trkpt lat="43.33965" lon="-1.69343">
        <ele>60.4</ele>
        <time>2022-05-07T06:38:12Z</time>
      </trkpt>
      <trkpt lat="43.33963" lon="-1.69348">
        <ele>60.4</ele>
        <time>2022-05-07T06:38:13Z</time>
      </trkpt>
      <trkpt lat="43.33949" lon="-1.69373">
        <ele>61.4</ele>
        <time>2022-05-07T06:38:19Z</time>
      </trkpt>
      <trkpt lat="43.33947" lon="-1.69377">
        <ele>61.8</ele>
        <time>2022-05-07T06:38:20Z</time>
      </trkpt>
      <trkpt lat="43.33939" lon="-1.6939">
        <ele>62.4</ele>
        <time>2022-05-07T06:38:23Z</time>
      </trkpt>
      <trkpt lat="43.33923" lon="-1.69408">
        <ele>63.2</ele>
        <time>2022-05-07T06:38:28Z</time>
      </trkpt>
      <trkpt lat="43.33911" lon="-1.69418">
        <ele>63.6</ele>
        <time>2022-05-07T06:38:31Z</time>
      </trkpt>
      <trkpt lat="43.339" lon="-1.69429">
        <ele>63.8</ele>
        <time>2022-05-07T06:38:34Z</time>
      </trkpt>
      <trkpt lat="43.33893" lon="-1.69439">
        <ele>64</ele>
        <time>2022-05-07T06:38:36Z</time>
      </trkpt>
      <trkpt lat="43.33875" lon="-1.69469">
        <ele>64.4</ele>
        <time>2022-05-07T06:38:43Z</time>
      </trkpt>
      <trkpt lat="43.33867" lon="-1.69482">
        <ele>64.8</ele>
        <time>2022-05-07T06:38:46Z</time>
      </trkpt>
      <trkpt lat="43.33857" lon="-1.695">
        <ele>65</ele>
        <time>2022-05-07T06:38:50Z</time>
      </trkpt>
      <trkpt lat="43.33847" lon="-1.69516">
        <ele>65.8</ele>
        <time>2022-05-07T06:38:54Z</time>
      </trkpt>
      <trkpt lat="43.33842" lon="-1.69525">
        <ele>66</ele>
        <time>2022-05-07T06:38:56Z</time>
      </trkpt>
      <trkpt lat="43.33825" lon="-1.69554">
        <ele>66.8</ele>
        <time>2022-05-07T06:39:03Z</time>
      </trkpt>
      <trkpt lat="43.33813" lon="-1.69577">
        <ele>67.8</ele>
        <time>2022-05-07T06:39:09Z</time>
      </trkpt>
      <trkpt lat="43.33813" lon="-1.69577">
        <ele>68</ele>
        <time>2022-05-07T06:39:10Z</time>
      </trkpt>
      <trkpt lat="43.33799" lon="-1.69599">
        <ele>69</ele>
        <time>2022-05-07T06:39:15Z</time>
      </trkpt>
      <trkpt lat="43.33792" lon="-1.69609">
        <ele>70</ele>
        <time>2022-05-07T06:39:18Z</time>
      </trkpt>
      <trkpt lat="43.33773" lon="-1.69626">
        <ele>71</ele>
        <time>2022-05-07T06:39:24Z</time>
      </trkpt>
      <trkpt lat="43.33769" lon="-1.69628">
        <ele>71.2</ele>
        <time>2022-05-07T06:39:25Z</time>
      </trkpt>
      <trkpt lat="43.33766" lon="-1.69632">
        <ele>71.4</ele>
        <time>2022-05-07T06:39:26Z</time>
      </trkpt>
      <trkpt lat="43.33746" lon="-1.69646">
        <ele>72.2</ele>
        <time>2022-05-07T06:39:32Z</time>
      </trkpt>
      <trkpt lat="43.33743" lon="-1.69648">
        <ele>72.4</ele>
        <time>2022-05-07T06:39:33Z</time>
      </trkpt>
      <trkpt lat="43.33728" lon="-1.69661">
        <ele>73.2</ele>
        <time>2022-05-07T06:39:38Z</time>
      </trkpt>
      <trkpt lat="43.33717" lon="-1.69669">
        <ele>74</ele>
        <time>2022-05-07T06:39:42Z</time>
      </trkpt>
      <trkpt lat="43.33704" lon="-1.69679">
        <ele>74.6</ele>
        <time>2022-05-07T06:39:45Z</time>
      </trkpt>
      <trkpt lat="43.33692" lon="-1.6969">
        <ele>75.6</ele>
        <time>2022-05-07T06:39:50Z</time>
      </trkpt>
      <trkpt lat="43.33674" lon="-1.69705">
        <ele>76.6</ele>
        <time>2022-05-07T06:39:56Z</time>
      </trkpt>
      <trkpt lat="43.33665" lon="-1.69713">
        <ele>77</ele>
        <time>2022-05-07T06:39:58Z</time>
      </trkpt>
      <trkpt lat="43.33651" lon="-1.69727">
        <ele>77.6</ele>
        <time>2022-05-07T06:40:03Z</time>
      </trkpt>
      <trkpt lat="43.33636" lon="-1.69738">
        <ele>78.8</ele>
        <time>2022-05-07T06:40:08Z</time>
      </trkpt>
      <trkpt lat="43.33622" lon="-1.69745">
        <ele>80.2</ele>
        <time>2022-05-07T06:40:13Z</time>
      </trkpt>
      <trkpt lat="43.3361" lon="-1.69757">
        <ele>80.4</ele>
        <time>2022-05-07T06:40:16Z</time>
      </trkpt>
      <trkpt lat="43.3361" lon="-1.69757">
        <ele>80.8</ele>
        <time>2022-05-07T06:40:17Z</time>
      </trkpt>
      <trkpt lat="43.33596" lon="-1.69772">
        <ele>81.2</ele>
        <time>2022-05-07T06:40:21Z</time>
      </trkpt>
      <trkpt lat="43.33592" lon="-1.69779">
        <ele>81.6</ele>
        <time>2022-05-07T06:40:23Z</time>
      </trkpt>
      <trkpt lat="43.33585" lon="-1.69789">
        <ele>82.2</ele>
        <time>2022-05-07T06:40:26Z</time>
      </trkpt>
      <trkpt lat="43.33574" lon="-1.69804">
        <ele>83.2</ele>
        <time>2022-05-07T06:40:31Z</time>
      </trkpt>
      <trkpt lat="43.3357" lon="-1.69812">
        <ele>83.6</ele>
        <time>2022-05-07T06:40:33Z</time>
      </trkpt>
      <trkpt lat="43.33561" lon="-1.69821">
        <ele>84</ele>
        <time>2022-05-07T06:40:36Z</time>
      </trkpt>
      <trkpt lat="43.33556" lon="-1.69827">
        <ele>84.4</ele>
        <time>2022-05-07T06:40:38Z</time>
      </trkpt>
      <trkpt lat="43.33542" lon="-1.69848">
        <ele>85.2</ele>
        <time>2022-05-07T06:40:44Z</time>
      </trkpt>
      <trkpt lat="43.33541" lon="-1.6985">
        <ele>85.4</ele>
        <time>2022-05-07T06:40:45Z</time>
      </trkpt>
      <trkpt lat="43.33531" lon="-1.69864">
        <ele>85.8</ele>
        <time>2022-05-07T06:40:50Z</time>
      </trkpt>
      <trkpt lat="43.33524" lon="-1.69874">
        <ele>86.4</ele>
        <time>2022-05-07T06:40:54Z</time>
      </trkpt>
      <trkpt lat="43.33521" lon="-1.69879">
        <ele>86.8</ele>
        <time>2022-05-07T06:40:55Z</time>
      </trkpt>
      <trkpt lat="43.33514" lon="-1.69891">
        <ele>87.2</ele>
        <time>2022-05-07T06:40:59Z</time>
      </trkpt>
      <trkpt lat="43.33514" lon="-1.69891">
        <ele>87.2</ele>
        <time>2022-05-07T06:41:00Z</time>
      </trkpt>
      <trkpt lat="43.3351" lon="-1.69899">
        <ele>87.2</ele>
        <time>2022-05-07T06:41:02Z</time>
      </trkpt>
      <trkpt lat="43.33508" lon="-1.69904">
        <ele>87.8</ele>
        <time>2022-05-07T06:41:04Z</time>
      </trkpt>
      <trkpt lat="43.33501" lon="-1.6992">
        <ele>88.4</ele>
        <time>2022-05-07T06:41:08Z</time>
      </trkpt>
      <trkpt lat="43.33495" lon="-1.69927">
        <ele>88.6</ele>
        <time>2022-05-07T06:41:10Z</time>
      </trkpt>
      <trkpt lat="43.33485" lon="-1.6996">
        <ele>88.6</ele>
        <time>2022-05-07T06:41:17Z</time>
      </trkpt>
      <trkpt lat="43.33483" lon="-1.69965">
        <ele>88.2</ele>
        <time>2022-05-07T06:41:18Z</time>
      </trkpt>
      <trkpt lat="43.33478" lon="-1.6997">
        <ele>88</ele>
        <time>2022-05-07T06:41:20Z</time>
      </trkpt>
      <trkpt lat="43.33476" lon="-1.69972">
        <ele>88</ele>
        <time>2022-05-07T06:41:21Z</time>
      </trkpt>
      <trkpt lat="43.33469" lon="-1.69983">
        <ele>88</ele>
        <time>2022-05-07T06:41:25Z</time>
      </trkpt>
      <trkpt lat="43.33465" lon="-1.69998">
        <ele>88.4</ele>
        <time>2022-05-07T06:41:30Z</time>
      </trkpt>
      <trkpt lat="43.33461" lon="-1.70007">
        <ele>89.2</ele>
        <time>2022-05-07T06:41:33Z</time>
      </trkpt>
      <trkpt lat="43.33459" lon="-1.70014">
        <ele>89.6</ele>
        <time>2022-05-07T06:41:35Z</time>
      </trkpt>
      <trkpt lat="43.33457" lon="-1.70017">
        <ele>89.8</ele>
        <time>2022-05-07T06:41:36Z</time>
      </trkpt>
      <trkpt lat="43.33453" lon="-1.70023">
        <ele>91</ele>
        <time>2022-05-07T06:41:39Z</time>
      </trkpt>
      <trkpt lat="43.33446" lon="-1.70038">
        <ele>92.2</ele>
        <time>2022-05-07T06:41:42Z</time>
      </trkpt>
      <trkpt lat="43.33436" lon="-1.70067">
        <ele>93</ele>
        <time>2022-05-07T06:41:49Z</time>
      </trkpt>
      <trkpt lat="43.33434" lon="-1.70071">
        <ele>93.2</ele>
        <time>2022-05-07T06:41:50Z</time>
      </trkpt>
      <trkpt lat="43.3343" lon="-1.7009">
        <ele>93.6</ele>
        <time>2022-05-07T06:41:55Z</time>
      </trkpt>
      <trkpt lat="43.33431" lon="-1.701">
        <ele>94</ele>
        <time>2022-05-07T06:41:58Z</time>
      </trkpt>
      <trkpt lat="43.33431" lon="-1.70104">
        <ele>94.2</ele>
        <time>2022-05-07T06:41:59Z</time>
      </trkpt>
      <trkpt lat="43.3343" lon="-1.70107">
        <ele>94.4</ele>
        <time>2022-05-07T06:42:00Z</time>
      </trkpt>
      <trkpt lat="43.33429" lon="-1.7011">
        <ele>94.8</ele>
        <time>2022-05-07T06:42:01Z</time>
      </trkpt>
      <trkpt lat="43.33424" lon="-1.70119">
        <ele>95.2</ele>
        <time>2022-05-07T06:42:04Z</time>
      </trkpt>
      <trkpt lat="43.33424" lon="-1.70122">
        <ele>95.4</ele>
        <time>2022-05-07T06:42:05Z</time>
      </trkpt>
      <trkpt lat="43.33421" lon="-1.70135">
        <ele>96.4</ele>
        <time>2022-05-07T06:42:09Z</time>
      </trkpt>
      <trkpt lat="43.33421" lon="-1.70138">
        <ele>96.4</ele>
        <time>2022-05-07T06:42:10Z</time>
      </trkpt>
      <trkpt lat="43.33421" lon="-1.70141">
        <ele>96.4</ele>
        <time>2022-05-07T06:42:11Z</time>
      </trkpt>
      <trkpt lat="43.33419" lon="-1.70144">
        <ele>96.4</ele>
        <time>2022-05-07T06:42:12Z</time>
      </trkpt>
      <trkpt lat="43.33413" lon="-1.70155">
        <ele>97.4</ele>
        <time>2022-05-07T06:42:16Z</time>
      </trkpt>
      <trkpt lat="43.33412" lon="-1.70165">
        <ele>98</ele>
        <time>2022-05-07T06:42:19Z</time>
      </trkpt>
      <trkpt lat="43.33413" lon="-1.70171">
        <ele>98.2</ele>
        <time>2022-05-07T06:42:21Z</time>
      </trkpt>
      <trkpt lat="43.33413" lon="-1.70174">
        <ele>98.6</ele>
        <time>2022-05-07T06:42:22Z</time>
      </trkpt>
      <trkpt lat="43.33416" lon="-1.7019">
        <ele>99.6</ele>
        <time>2022-05-07T06:42:27Z</time>
      </trkpt>
      <trkpt lat="43.33416" lon="-1.70191">
        <ele>100</ele>
        <time>2022-05-07T06:42:28Z</time>
      </trkpt>
      <trkpt lat="43.3342" lon="-1.70197">
        <ele>101</ele>
        <time>2022-05-07T06:42:32Z</time>
      </trkpt>
      <trkpt lat="43.33422" lon="-1.70201">
        <ele>101.8</ele>
        <time>2022-05-07T06:42:34Z</time>
      </trkpt>
      <trkpt lat="43.33423" lon="-1.70203">
        <ele>102</ele>
        <time>2022-05-07T06:42:35Z</time>
      </trkpt>
      <trkpt lat="43.33427" lon="-1.70211">
        <ele>103.2</ele>
        <time>2022-05-07T06:42:39Z</time>
      </trkpt>
      <trkpt lat="43.3343" lon="-1.70216">
        <ele>103.8</ele>
        <time>2022-05-07T06:42:42Z</time>
      </trkpt>
      <trkpt lat="43.33431" lon="-1.70218">
        <ele>104</ele>
        <time>2022-05-07T06:42:43Z</time>
      </trkpt>
      <trkpt lat="43.33434" lon="-1.70225">
        <ele>105.2</ele>
        <time>2022-05-07T06:42:47Z</time>
      </trkpt>
      <trkpt lat="43.33437" lon="-1.70229">
        <ele>105.4</ele>
        <time>2022-05-07T06:42:49Z</time>
      </trkpt>
      <trkpt lat="43.33437" lon="-1.7023">
        <ele>105.6</ele>
        <time>2022-05-07T06:42:50Z</time>
      </trkpt>
      <trkpt lat="43.33439" lon="-1.70234">
        <ele>106.4</ele>
        <time>2022-05-07T06:42:52Z</time>
      </trkpt>
      <trkpt lat="43.33442" lon="-1.70242">
        <ele>107.6</ele>
        <time>2022-05-07T06:42:56Z</time>
      </trkpt>
      <trkpt lat="43.33443" lon="-1.70243">
        <ele>108</ele>
        <time>2022-05-07T06:42:58Z</time>
      </trkpt>
      <trkpt lat="43.33445" lon="-1.7025">
        <ele>108.6</ele>
        <time>2022-05-07T06:43:01Z</time>
      </trkpt>
      <trkpt lat="43.33445" lon="-1.70252">
        <ele>109.4</ele>
        <time>2022-05-07T06:43:03Z</time>
      </trkpt>
      <trkpt lat="43.33445" lon="-1.70254">
        <ele>109.8</ele>
        <time>2022-05-07T06:43:04Z</time>
      </trkpt>
      <trkpt lat="43.33444" lon="-1.70256">
        <ele>110.4</ele>
        <time>2022-05-07T06:43:06Z</time>
      </trkpt>
      <trkpt lat="43.33444" lon="-1.70261">
        <ele>111</ele>
        <time>2022-05-07T06:43:09Z</time>
      </trkpt>
      <trkpt lat="43.33444" lon="-1.70264">
        <ele>111.6</ele>
        <time>2022-05-07T06:43:11Z</time>
      </trkpt>
      <trkpt lat="43.33443" lon="-1.70267">
        <ele>112</ele>
        <time>2022-05-07T06:43:13Z</time>
      </trkpt>
      <trkpt lat="43.33443" lon="-1.70269">
        <ele>112.2</ele>
        <time>2022-05-07T06:43:14Z</time>
      </trkpt>
      <trkpt lat="43.33443" lon="-1.7027">
        <ele>112.6</ele>
        <time>2022-05-07T06:43:15Z</time>
      </trkpt>
      <trkpt lat="43.33441" lon="-1.70276">
        <ele>113</ele>
        <time>2022-05-07T06:43:18Z</time>
      </trkpt>
      <trkpt lat="43.33441" lon="-1.70277">
        <ele>113.4</ele>
        <time>2022-05-07T06:43:19Z</time>
      </trkpt>
      <trkpt lat="43.3344" lon="-1.7028">
        <ele>114</ele>
        <time>2022-05-07T06:43:21Z</time>
      </trkpt>
      <trkpt lat="43.3344" lon="-1.70283">
        <ele>114.4</ele>
        <time>2022-05-07T06:43:23Z</time>
      </trkpt>
      <trkpt lat="43.33439" lon="-1.70286">
        <ele>115.2</ele>
        <time>2022-05-07T06:43:25Z</time>
      </trkpt>
      <trkpt lat="43.3344" lon="-1.70288">
        <ele>115.8</ele>
        <time>2022-05-07T06:43:27Z</time>
      </trkpt>
      <trkpt lat="43.33438" lon="-1.7029">
        <ele>115.8</ele>
        <time>2022-05-07T06:43:28Z</time>
      </trkpt>
      <trkpt lat="43.33434" lon="-1.70296">
        <ele>117</ele>
        <time>2022-05-07T06:43:32Z</time>
      </trkpt>
      <trkpt lat="43.33431" lon="-1.70301">
        <ele>118</ele>
        <time>2022-05-07T06:43:36Z</time>
      </trkpt>
      <trkpt lat="43.33429" lon="-1.70302">
        <ele>118</ele>
        <time>2022-05-07T06:43:37Z</time>
      </trkpt>
      <trkpt lat="43.33424" lon="-1.70308">
        <ele>119</ele>
        <time>2022-05-07T06:43:42Z</time>
      </trkpt>
      <trkpt lat="43.3342" lon="-1.70313">
        <ele>120</ele>
        <time>2022-05-07T06:43:46Z</time>
      </trkpt>
      <trkpt lat="43.33419" lon="-1.70314">
        <ele>120.2</ele>
        <time>2022-05-07T06:43:47Z</time>
      </trkpt>
      <trkpt lat="43.33416" lon="-1.70319">
        <ele>121</ele>
        <time>2022-05-07T06:43:51Z</time>
      </trkpt>
      <trkpt lat="43.33415" lon="-1.7032">
        <ele>121.2</ele>
        <time>2022-05-07T06:43:52Z</time>
      </trkpt>
      <trkpt lat="43.33415" lon="-1.7032">
        <ele>121.4</ele>
        <time>2022-05-07T06:43:53Z</time>
      </trkpt>
      <trkpt lat="43.33408" lon="-1.70326">
        <ele>122.6</ele>
        <time>2022-05-07T06:43:58Z</time>
      </trkpt>
      <trkpt lat="43.33406" lon="-1.70328">
        <ele>122.8</ele>
        <time>2022-05-07T06:44:00Z</time>
      </trkpt>
      <trkpt lat="43.33402" lon="-1.7033">
        <ele>123.6</ele>
        <time>2022-05-07T06:44:03Z</time>
      </trkpt>
      <trkpt lat="43.33402" lon="-1.70331">
        <ele>123.6</ele>
        <time>2022-05-07T06:44:04Z</time>
      </trkpt>
      <trkpt lat="43.33402" lon="-1.70331">
        <ele>124</ele>
        <time>2022-05-07T06:44:05Z</time>
      </trkpt>
      <trkpt lat="43.33397" lon="-1.70334">
        <ele>124.8</ele>
        <time>2022-05-07T06:44:08Z</time>
      </trkpt>
      <trkpt lat="43.33394" lon="-1.70335">
        <ele>125.2</ele>
        <time>2022-05-07T06:44:10Z</time>
      </trkpt>
      <trkpt lat="43.33391" lon="-1.70338">
        <ele>125.6</ele>
        <time>2022-05-07T06:44:13Z</time>
      </trkpt>
      <trkpt lat="43.3339" lon="-1.70338">
        <ele>125.8</ele>
        <time>2022-05-07T06:44:14Z</time>
      </trkpt>
      <trkpt lat="43.33384" lon="-1.70341">
        <ele>126.8</ele>
        <time>2022-05-07T06:44:18Z</time>
      </trkpt>
      <trkpt lat="43.33377" lon="-1.70345">
        <ele>127.4</ele>
        <time>2022-05-07T06:44:23Z</time>
      </trkpt>
      <trkpt lat="43.33373" lon="-1.7035">
        <ele>128</ele>
        <time>2022-05-07T06:44:27Z</time>
      </trkpt>
      <trkpt lat="43.33372" lon="-1.70352">
        <ele>128.2</ele>
        <time>2022-05-07T06:44:28Z</time>
      </trkpt>
      <trkpt lat="43.3337" lon="-1.70354">
        <ele>128.6</ele>
        <time>2022-05-07T06:44:30Z</time>
      </trkpt>
      <trkpt lat="43.33369" lon="-1.70357">
        <ele>129.2</ele>
        <time>2022-05-07T06:44:32Z</time>
      </trkpt>
      <trkpt lat="43.33364" lon="-1.70365">
        <ele>130.4</ele>
        <time>2022-05-07T06:44:37Z</time>
      </trkpt>
      <trkpt lat="43.33363" lon="-1.70367">
        <ele>130.4</ele>
        <time>2022-05-07T06:44:38Z</time>
      </trkpt>
      <trkpt lat="43.33359" lon="-1.70375">
        <ele>131.6</ele>
        <time>2022-05-07T06:44:43Z</time>
      </trkpt>
      <trkpt lat="43.33356" lon="-1.70379">
        <ele>132</ele>
        <time>2022-05-07T06:44:46Z</time>
      </trkpt>
      <trkpt lat="43.33355" lon="-1.70381">
        <ele>132.2</ele>
        <time>2022-05-07T06:44:47Z</time>
      </trkpt>
      <trkpt lat="43.33354" lon="-1.70382">
        <ele>132.6</ele>
        <time>2022-05-07T06:44:48Z</time>
      </trkpt>
      <trkpt lat="43.33351" lon="-1.70389">
        <ele>133.4</ele>
        <time>2022-05-07T06:44:52Z</time>
      </trkpt>
      <trkpt lat="43.3335" lon="-1.70392">
        <ele>133.6</ele>
        <time>2022-05-07T06:44:54Z</time>
      </trkpt>
      <trkpt lat="43.33345" lon="-1.704">
        <ele>134.6</ele>
        <time>2022-05-07T06:45:01Z</time>
      </trkpt>
      <trkpt lat="43.33343" lon="-1.70403">
        <ele>135</ele>
        <time>2022-05-07T06:45:02Z</time>
      </trkpt>
      <trkpt lat="43.3334" lon="-1.70405">
        <ele>136.2</ele>
        <time>2022-05-07T06:45:06Z</time>
      </trkpt>
      <trkpt lat="43.33336" lon="-1.70409">
        <ele>136.6</ele>
        <time>2022-05-07T06:45:09Z</time>
      </trkpt>
      <trkpt lat="43.33334" lon="-1.70412">
        <ele>137.4</ele>
        <time>2022-05-07T06:45:11Z</time>
      </trkpt>
      <trkpt lat="43.33326" lon="-1.70413">
        <ele>138.6</ele>
        <time>2022-05-07T06:45:16Z</time>
      </trkpt>
      <trkpt lat="43.33324" lon="-1.70414">
        <ele>138.8</ele>
        <time>2022-05-07T06:45:17Z</time>
      </trkpt>
      <trkpt lat="43.33313" lon="-1.70414">
        <ele>140.2</ele>
        <time>2022-05-07T06:45:25Z</time>
      </trkpt>
      <trkpt lat="43.33312" lon="-1.70414">
        <ele>140.4</ele>
        <time>2022-05-07T06:45:26Z</time>
      </trkpt>
      <trkpt lat="43.33306" lon="-1.70415">
        <ele>141.2</ele>
        <time>2022-05-07T06:45:30Z</time>
      </trkpt>
      <trkpt lat="43.333" lon="-1.70413">
        <ele>142</ele>
        <time>2022-05-07T06:45:35Z</time>
      </trkpt>
      <trkpt lat="43.33299" lon="-1.70413">
        <ele>142.4</ele>
        <time>2022-05-07T06:45:36Z</time>
      </trkpt>
      <trkpt lat="43.33292" lon="-1.70415">
        <ele>143.6</ele>
        <time>2022-05-07T06:45:42Z</time>
      </trkpt>
      <trkpt lat="43.33287" lon="-1.70415">
        <ele>144.2</ele>
        <time>2022-05-07T06:45:45Z</time>
      </trkpt>
      <trkpt lat="43.33285" lon="-1.70415">
        <ele>144.8</ele>
        <time>2022-05-07T06:45:47Z</time>
      </trkpt>
      <trkpt lat="43.33276" lon="-1.70417">
        <ele>145.6</ele>
        <time>2022-05-07T06:45:53Z</time>
      </trkpt>
      <trkpt lat="43.33275" lon="-1.70417">
        <ele>145.8</ele>
        <time>2022-05-07T06:45:54Z</time>
      </trkpt>
      <trkpt lat="43.33266" lon="-1.70419">
        <ele>147.2</ele>
        <time>2022-05-07T06:46:01Z</time>
      </trkpt>
      <trkpt lat="43.33264" lon="-1.70419">
        <ele>147.6</ele>
        <time>2022-05-07T06:46:03Z</time>
      </trkpt>
      <trkpt lat="43.33257" lon="-1.7042">
        <ele>148.2</ele>
        <time>2022-05-07T06:46:08Z</time>
      </trkpt>
      <trkpt lat="43.33255" lon="-1.70421">
        <ele>148.6</ele>
        <time>2022-05-07T06:46:09Z</time>
      </trkpt>
      <trkpt lat="43.33254" lon="-1.70421">
        <ele>148.8</ele>
        <time>2022-05-07T06:46:10Z</time>
      </trkpt>
      <trkpt lat="43.33247" lon="-1.70422">
        <ele>149.6</ele>
        <time>2022-05-07T06:46:15Z</time>
      </trkpt>
      <trkpt lat="43.33242" lon="-1.70423">
        <ele>150.2</ele>
        <time>2022-05-07T06:46:19Z</time>
      </trkpt>
      <trkpt lat="43.33238" lon="-1.70423">
        <ele>150.8</ele>
        <time>2022-05-07T06:46:22Z</time>
      </trkpt>
      <trkpt lat="43.33231" lon="-1.70424">
        <ele>152</ele>
        <time>2022-05-07T06:46:27Z</time>
      </trkpt>
      <trkpt lat="43.33225" lon="-1.70424">
        <ele>153</ele>
        <time>2022-05-07T06:46:31Z</time>
      </trkpt>
      <trkpt lat="43.33219" lon="-1.70424">
        <ele>153.8</ele>
        <time>2022-05-07T06:46:36Z</time>
      </trkpt>
      <trkpt lat="43.33217" lon="-1.70424">
        <ele>154.2</ele>
        <time>2022-05-07T06:46:38Z</time>
      </trkpt>
      <trkpt lat="43.33212" lon="-1.70424">
        <ele>155.4</ele>
        <time>2022-05-07T06:46:42Z</time>
      </trkpt>
      <trkpt lat="43.3321" lon="-1.70424">
        <ele>155.8</ele>
        <time>2022-05-07T06:46:44Z</time>
      </trkpt>
      <trkpt lat="43.33207" lon="-1.70423">
        <ele>156.4</ele>
        <time>2022-05-07T06:46:47Z</time>
      </trkpt>
      <trkpt lat="43.33203" lon="-1.70422">
        <ele>157.4</ele>
        <time>2022-05-07T06:46:50Z</time>
      </trkpt>
      <trkpt lat="43.33198" lon="-1.7042">
        <ele>158.4</ele>
        <time>2022-05-07T06:46:54Z</time>
      </trkpt>
      <trkpt lat="43.33197" lon="-1.70419">
        <ele>158.6</ele>
        <time>2022-05-07T06:46:55Z</time>
      </trkpt>
      <trkpt lat="43.33191" lon="-1.70418">
        <ele>159.8</ele>
        <time>2022-05-07T06:47:00Z</time>
      </trkpt>
      <trkpt lat="43.33188" lon="-1.70417">
        <ele>160.2</ele>
        <time>2022-05-07T06:47:02Z</time>
      </trkpt>
      <trkpt lat="43.33184" lon="-1.70415">
        <ele>161</ele>
        <time>2022-05-07T06:47:05Z</time>
      </trkpt>
      <trkpt lat="43.33177" lon="-1.70412">
        <ele>162</ele>
        <time>2022-05-07T06:47:10Z</time>
      </trkpt>
      <trkpt lat="43.33176" lon="-1.70412">
        <ele>162.2</ele>
        <time>2022-05-07T06:47:11Z</time>
      </trkpt>
      <trkpt lat="43.33171" lon="-1.70409">
        <ele>163.4</ele>
        <time>2022-05-07T06:47:17Z</time>
      </trkpt>
      <trkpt lat="43.3317" lon="-1.70408">
        <ele>163.4</ele>
        <time>2022-05-07T06:47:18Z</time>
      </trkpt>
      <trkpt lat="43.33165" lon="-1.70406">
        <ele>164.4</ele>
        <time>2022-05-07T06:47:22Z</time>
      </trkpt>
      <trkpt lat="43.33159" lon="-1.70401">
        <ele>165.4</ele>
        <time>2022-05-07T06:47:27Z</time>
      </trkpt>
      <trkpt lat="43.33154" lon="-1.70398">
        <ele>166.8</ele>
        <time>2022-05-07T06:47:32Z</time>
      </trkpt>
      <trkpt lat="43.33151" lon="-1.70397">
        <ele>167.4</ele>
        <time>2022-05-07T06:47:35Z</time>
      </trkpt>
      <trkpt lat="43.33148" lon="-1.70395">
        <ele>167.8</ele>
        <time>2022-05-07T06:47:37Z</time>
      </trkpt>
      <trkpt lat="43.33144" lon="-1.70392">
        <ele>169</ele>
        <time>2022-05-07T06:47:41Z</time>
      </trkpt>
      <trkpt lat="43.33141" lon="-1.70391">
        <ele>169.4</ele>
        <time>2022-05-07T06:47:43Z</time>
      </trkpt>
      <trkpt lat="43.33137" lon="-1.7039">
        <ele>170</ele>
        <time>2022-05-07T06:47:47Z</time>
      </trkpt>
      <trkpt lat="43.33133" lon="-1.7039">
        <ele>170.6</ele>
        <time>2022-05-07T06:47:50Z</time>
      </trkpt>
      <trkpt lat="43.3313" lon="-1.7039">
        <ele>171.4</ele>
        <time>2022-05-07T06:47:53Z</time>
      </trkpt>
      <trkpt lat="43.33126" lon="-1.7039">
        <ele>171.8</ele>
        <time>2022-05-07T06:47:56Z</time>
      </trkpt>
      <trkpt lat="43.33123" lon="-1.7039">
        <ele>172.4</ele>
        <time>2022-05-07T06:47:58Z</time>
      </trkpt>
      <trkpt lat="43.33119" lon="-1.70389">
        <ele>173.6</ele>
        <time>2022-05-07T06:48:02Z</time>
      </trkpt>
      <trkpt lat="43.33117" lon="-1.7039">
        <ele>173.8</ele>
        <time>2022-05-07T06:48:03Z</time>
      </trkpt>
      <trkpt lat="43.33112" lon="-1.7039">
        <ele>174.6</ele>
        <time>2022-05-07T06:48:07Z</time>
      </trkpt>
      <trkpt lat="43.33108" lon="-1.70391">
        <ele>175.4</ele>
        <time>2022-05-07T06:48:10Z</time>
      </trkpt>
      <trkpt lat="43.33106" lon="-1.70391">
        <ele>175.6</ele>
        <time>2022-05-07T06:48:12Z</time>
      </trkpt>
      <trkpt lat="43.33105" lon="-1.70391">
        <ele>175.8</ele>
        <time>2022-05-07T06:48:13Z</time>
      </trkpt>
      <trkpt lat="43.33099" lon="-1.70391">
        <ele>176.8</ele>
        <time>2022-05-07T06:48:17Z</time>
      </trkpt>
      <trkpt lat="43.33098" lon="-1.70391">
        <ele>177</ele>
        <time>2022-05-07T06:48:18Z</time>
      </trkpt>
      <trkpt lat="43.33096" lon="-1.70391">
        <ele>177.2</ele>
        <time>2022-05-07T06:48:20Z</time>
      </trkpt>
      <trkpt lat="43.33089" lon="-1.70393">
        <ele>178</ele>
        <time>2022-05-07T06:48:25Z</time>
      </trkpt>
      <trkpt lat="43.33083" lon="-1.70394">
        <ele>178.6</ele>
        <time>2022-05-07T06:48:29Z</time>
      </trkpt>
      <trkpt lat="43.3308" lon="-1.70394">
        <ele>179.2</ele>
        <time>2022-05-07T06:48:31Z</time>
      </trkpt>
      <trkpt lat="43.3307" lon="-1.70396">
        <ele>180.4</ele>
        <time>2022-05-07T06:48:38Z</time>
      </trkpt>
      <trkpt lat="43.33062" lon="-1.70395">
        <ele>181.6</ele>
        <time>2022-05-07T06:48:44Z</time>
      </trkpt>
      <trkpt lat="43.33057" lon="-1.70394">
        <ele>181.8</ele>
        <time>2022-05-07T06:48:47Z</time>
      </trkpt>
      <trkpt lat="43.3305" lon="-1.70393">
        <ele>182.6</ele>
        <time>2022-05-07T06:48:52Z</time>
      </trkpt>
      <trkpt lat="43.33042" lon="-1.70391">
        <ele>183.6</ele>
        <time>2022-05-07T06:48:58Z</time>
      </trkpt>
      <trkpt lat="43.33039" lon="-1.70389">
        <ele>183.8</ele>
        <time>2022-05-07T06:49:00Z</time>
      </trkpt>
      <trkpt lat="43.33031" lon="-1.70388">
        <ele>184.8</ele>
        <time>2022-05-07T06:49:06Z</time>
      </trkpt>
      <trkpt lat="43.33029" lon="-1.70388">
        <ele>184.8</ele>
        <time>2022-05-07T06:49:07Z</time>
      </trkpt>
      <trkpt lat="43.33017" lon="-1.70385">
        <ele>185.8</ele>
        <time>2022-05-07T06:49:15Z</time>
      </trkpt>
      <trkpt lat="43.33014" lon="-1.70385">
        <ele>186.2</ele>
        <time>2022-05-07T06:49:17Z</time>
      </trkpt>
      <trkpt lat="43.33005" lon="-1.70382">
        <ele>187.2</ele>
        <time>2022-05-07T06:49:23Z</time>
      </trkpt>
      <trkpt lat="43.33002" lon="-1.70381">
        <ele>187.4</ele>
        <time>2022-05-07T06:49:25Z</time>
      </trkpt>
      <trkpt lat="43.33001" lon="-1.7038">
        <ele>187.6</ele>
        <time>2022-05-07T06:49:26Z</time>
      </trkpt>
      <trkpt lat="43.32997" lon="-1.70379">
        <ele>188.2</ele>
        <time>2022-05-07T06:49:29Z</time>
      </trkpt>
      <trkpt lat="43.32993" lon="-1.70376">
        <ele>188.6</ele>
        <time>2022-05-07T06:49:32Z</time>
      </trkpt>
      <trkpt lat="43.32985" lon="-1.70372">
        <ele>189.4</ele>
        <time>2022-05-07T06:49:38Z</time>
      </trkpt>
      <trkpt lat="43.32979" lon="-1.70369">
        <ele>190</ele>
        <time>2022-05-07T06:49:42Z</time>
      </trkpt>
      <trkpt lat="43.32973" lon="-1.70366">
        <ele>190.4</ele>
        <time>2022-05-07T06:49:46Z</time>
      </trkpt>
      <trkpt lat="43.32964" lon="-1.70361">
        <ele>191.4</ele>
        <time>2022-05-07T06:49:53Z</time>
      </trkpt>
      <trkpt lat="43.32963" lon="-1.70361">
        <ele>191.6</ele>
        <time>2022-05-07T06:49:54Z</time>
      </trkpt>
      <trkpt lat="43.32957" lon="-1.70359">
        <ele>192</ele>
        <time>2022-05-07T06:49:58Z</time>
      </trkpt>
      <trkpt lat="43.32953" lon="-1.70359">
        <ele>192.6</ele>
        <time>2022-05-07T06:50:00Z</time>
      </trkpt>
      <trkpt lat="43.32941" lon="-1.70359">
        <ele>193.4</ele>
        <time>2022-05-07T06:50:07Z</time>
      </trkpt>
      <trkpt lat="43.32939" lon="-1.70359">
        <ele>193.6</ele>
        <time>2022-05-07T06:50:08Z</time>
      </trkpt>
      <trkpt lat="43.32934" lon="-1.70359">
        <ele>193.8</ele>
        <time>2022-05-07T06:50:11Z</time>
      </trkpt>
      <trkpt lat="43.32932" lon="-1.70359">
        <ele>194.2</ele>
        <time>2022-05-07T06:50:13Z</time>
      </trkpt>
      <trkpt lat="43.32927" lon="-1.70362">
        <ele>194.6</ele>
        <time>2022-05-07T06:50:18Z</time>
      </trkpt>
      <trkpt lat="43.32925" lon="-1.70363">
        <ele>195.2</ele>
        <time>2022-05-07T06:50:20Z</time>
      </trkpt>
      <trkpt lat="43.32924" lon="-1.70363">
        <ele>195.6</ele>
        <time>2022-05-07T06:50:21Z</time>
      </trkpt>
      <trkpt lat="43.32923" lon="-1.70364">
        <ele>195.6</ele>
        <time>2022-05-07T06:50:22Z</time>
      </trkpt>
      <trkpt lat="43.32919" lon="-1.70367">
        <ele>196.4</ele>
        <time>2022-05-07T06:50:25Z</time>
      </trkpt>
      <trkpt lat="43.32916" lon="-1.70367">
        <ele>196.8</ele>
        <time>2022-05-07T06:50:27Z</time>
      </trkpt>
      <trkpt lat="43.32903" lon="-1.70367">
        <ele>197.6</ele>
        <time>2022-05-07T06:50:34Z</time>
      </trkpt>
      <trkpt lat="43.32897" lon="-1.70367">
        <ele>198</ele>
        <time>2022-05-07T06:50:38Z</time>
      </trkpt>
      <trkpt lat="43.32891" lon="-1.70367">
        <ele>198.6</ele>
        <time>2022-05-07T06:50:42Z</time>
      </trkpt>
      <trkpt lat="43.32884" lon="-1.70367">
        <ele>199.2</ele>
        <time>2022-05-07T06:50:46Z</time>
      </trkpt>
      <trkpt lat="43.32879" lon="-1.70365">
        <ele>199.4</ele>
        <time>2022-05-07T06:50:50Z</time>
      </trkpt>
      <trkpt lat="43.32873" lon="-1.70364">
        <ele>200.2</ele>
        <time>2022-05-07T06:50:55Z</time>
      </trkpt>
      <trkpt lat="43.32869" lon="-1.70361">
        <ele>200.6</ele>
        <time>2022-05-07T06:50:58Z</time>
      </trkpt>
      <trkpt lat="43.32865" lon="-1.70358">
        <ele>201.2</ele>
        <time>2022-05-07T06:51:02Z</time>
      </trkpt>
      <trkpt lat="43.32861" lon="-1.70356">
        <ele>201.8</ele>
        <time>2022-05-07T06:51:05Z</time>
      </trkpt>
      <trkpt lat="43.32858" lon="-1.70354">
        <ele>202.4</ele>
        <time>2022-05-07T06:51:08Z</time>
      </trkpt>
      <trkpt lat="43.3285" lon="-1.70349">
        <ele>203.4</ele>
        <time>2022-05-07T06:51:15Z</time>
      </trkpt>
      <trkpt lat="43.32843" lon="-1.70344">
        <ele>204.6</ele>
        <time>2022-05-07T06:51:22Z</time>
      </trkpt>
      <trkpt lat="43.32842" lon="-1.70344">
        <ele>204.8</ele>
        <time>2022-05-07T06:51:23Z</time>
      </trkpt>
      <trkpt lat="43.32836" lon="-1.70341">
        <ele>205.8</ele>
        <time>2022-05-07T06:51:28Z</time>
      </trkpt>
      <trkpt lat="43.32832" lon="-1.70337">
        <ele>206.4</ele>
        <time>2022-05-07T06:51:31Z</time>
      </trkpt>
      <trkpt lat="43.3283" lon="-1.70335">
        <ele>206.8</ele>
        <time>2022-05-07T06:51:33Z</time>
      </trkpt>
      <trkpt lat="43.32829" lon="-1.70334">
        <ele>207</ele>
        <time>2022-05-07T06:51:34Z</time>
      </trkpt>
      <trkpt lat="43.32821" lon="-1.70329">
        <ele>208.2</ele>
        <time>2022-05-07T06:51:40Z</time>
      </trkpt>
      <trkpt lat="43.32817" lon="-1.70327">
        <ele>209.2</ele>
        <time>2022-05-07T06:51:44Z</time>
      </trkpt>
      <trkpt lat="43.32817" lon="-1.70326">
        <ele>209.4</ele>
        <time>2022-05-07T06:51:45Z</time>
      </trkpt>
      <trkpt lat="43.32812" lon="-1.70324">
        <ele>210.2</ele>
        <time>2022-05-07T06:51:49Z</time>
      </trkpt>
      <trkpt lat="43.3281" lon="-1.70324">
        <ele>210.8</ele>
        <time>2022-05-07T06:51:51Z</time>
      </trkpt>
      <trkpt lat="43.32801" lon="-1.70324">
        <ele>211.4</ele>
        <time>2022-05-07T06:51:58Z</time>
      </trkpt>
      <trkpt lat="43.32799" lon="-1.70324">
        <ele>211.8</ele>
        <time>2022-05-07T06:51:59Z</time>
      </trkpt>
      <trkpt lat="43.32791" lon="-1.70328">
        <ele>212.8</ele>
        <time>2022-05-07T06:52:05Z</time>
      </trkpt>
      <trkpt lat="43.32789" lon="-1.70328">
        <ele>212.8</ele>
        <time>2022-05-07T06:52:06Z</time>
      </trkpt>
      <trkpt lat="43.32777" lon="-1.70332">
        <ele>213.8</ele>
        <time>2022-05-07T06:52:14Z</time>
      </trkpt>
      <trkpt lat="43.32774" lon="-1.70333">
        <ele>214</ele>
        <time>2022-05-07T06:52:16Z</time>
      </trkpt>
      <trkpt lat="43.32764" lon="-1.70336">
        <ele>214.8</ele>
        <time>2022-05-07T06:52:23Z</time>
      </trkpt>
      <trkpt lat="43.32758" lon="-1.70339">
        <ele>215.4</ele>
        <time>2022-05-07T06:52:28Z</time>
      </trkpt>
      <trkpt lat="43.32757" lon="-1.7034">
        <ele>215.8</ele>
        <time>2022-05-07T06:52:29Z</time>
      </trkpt>
      <trkpt lat="43.32756" lon="-1.70341">
        <ele>215.6</ele>
        <time>2022-05-07T06:52:30Z</time>
      </trkpt>
      <trkpt lat="43.32748" lon="-1.70345">
        <ele>216.6</ele>
        <time>2022-05-07T06:52:36Z</time>
      </trkpt>
      <trkpt lat="43.32747" lon="-1.70346">
        <ele>216.8</ele>
        <time>2022-05-07T06:52:37Z</time>
      </trkpt>
      <trkpt lat="43.32741" lon="-1.7035">
        <ele>217.4</ele>
        <time>2022-05-07T06:52:42Z</time>
      </trkpt>
      <trkpt lat="43.3274" lon="-1.7035">
        <ele>217.8</ele>
        <time>2022-05-07T06:52:43Z</time>
      </trkpt>
      <trkpt lat="43.32739" lon="-1.70351">
        <ele>217.8</ele>
        <time>2022-05-07T06:52:44Z</time>
      </trkpt>
      <trkpt lat="43.32734" lon="-1.70355">
        <ele>218.8</ele>
        <time>2022-05-07T06:52:49Z</time>
      </trkpt>
      <trkpt lat="43.32729" lon="-1.70358">
        <ele>219.4</ele>
        <time>2022-05-07T06:52:53Z</time>
      </trkpt>
      <trkpt lat="43.32727" lon="-1.7036">
        <ele>220</ele>
        <time>2022-05-07T06:52:55Z</time>
      </trkpt>
      <trkpt lat="43.32721" lon="-1.70362">
        <ele>221</ele>
        <time>2022-05-07T06:53:00Z</time>
      </trkpt>
      <trkpt lat="43.32714" lon="-1.70366">
        <ele>222.2</ele>
        <time>2022-05-07T06:53:06Z</time>
      </trkpt>
      <trkpt lat="43.3271" lon="-1.70369">
        <ele>222.6</ele>
        <time>2022-05-07T06:53:09Z</time>
      </trkpt>
      <trkpt lat="43.32706" lon="-1.70372">
        <ele>223.2</ele>
        <time>2022-05-07T06:53:13Z</time>
      </trkpt>
      <trkpt lat="43.32703" lon="-1.70373">
        <ele>223.6</ele>
        <time>2022-05-07T06:53:15Z</time>
      </trkpt>
      <trkpt lat="43.32693" lon="-1.70375">
        <ele>224.2</ele>
        <time>2022-05-07T06:53:21Z</time>
      </trkpt>
      <trkpt lat="43.32688" lon="-1.70377">
        <ele>224.6</ele>
        <time>2022-05-07T06:53:24Z</time>
      </trkpt>
      <trkpt lat="43.32678" lon="-1.70379">
        <ele>225.6</ele>
        <time>2022-05-07T06:53:30Z</time>
      </trkpt>
      <trkpt lat="43.32676" lon="-1.70379">
        <ele>225.8</ele>
        <time>2022-05-07T06:53:32Z</time>
      </trkpt>
      <trkpt lat="43.32671" lon="-1.70379">
        <ele>226.8</ele>
        <time>2022-05-07T06:53:36Z</time>
      </trkpt>
      <trkpt lat="43.32667" lon="-1.7038">
        <ele>227</ele>
        <time>2022-05-07T06:53:39Z</time>
      </trkpt>
      <trkpt lat="43.32661" lon="-1.7038">
        <ele>227.8</ele>
        <time>2022-05-07T06:53:44Z</time>
      </trkpt>
      <trkpt lat="43.32659" lon="-1.7038">
        <ele>228</ele>
        <time>2022-05-07T06:53:46Z</time>
      </trkpt>
      <trkpt lat="43.32658" lon="-1.7038">
        <ele>228.2</ele>
        <time>2022-05-07T06:53:47Z</time>
      </trkpt>
      <trkpt lat="43.32654" lon="-1.7038">
        <ele>229</ele>
        <time>2022-05-07T06:53:51Z</time>
      </trkpt>
      <trkpt lat="43.32651" lon="-1.7038">
        <ele>229.2</ele>
        <time>2022-05-07T06:53:53Z</time>
      </trkpt>
      <trkpt lat="43.3265" lon="-1.7038">
        <ele>229.4</ele>
        <time>2022-05-07T06:53:54Z</time>
      </trkpt>
      <trkpt lat="43.32644" lon="-1.7038">
        <ele>229.8</ele>
        <time>2022-05-07T06:53:58Z</time>
      </trkpt>
      <trkpt lat="43.32641" lon="-1.70381">
        <ele>230</ele>
        <time>2022-05-07T06:54:00Z</time>
      </trkpt>
      <trkpt lat="43.32638" lon="-1.70381">
        <ele>230.2</ele>
        <time>2022-05-07T06:54:02Z</time>
      </trkpt>
      <trkpt lat="43.32635" lon="-1.70383">
        <ele>230.4</ele>
        <time>2022-05-07T06:54:04Z</time>
      </trkpt>
      <trkpt lat="43.32627" lon="-1.70387">
        <ele>231.2</ele>
        <time>2022-05-07T06:54:09Z</time>
      </trkpt>
      <trkpt lat="43.32623" lon="-1.7039">
        <ele>232</ele>
        <time>2022-05-07T06:54:13Z</time>
      </trkpt>
      <trkpt lat="43.32622" lon="-1.70393">
        <ele>232.2</ele>
        <time>2022-05-07T06:54:15Z</time>
      </trkpt>
      <trkpt lat="43.32617" lon="-1.70396">
        <ele>233.2</ele>
        <time>2022-05-07T06:54:20Z</time>
      </trkpt>
      <trkpt lat="43.32613" lon="-1.70398">
        <ele>233.6</ele>
        <time>2022-05-07T06:54:22Z</time>
      </trkpt>
      <trkpt lat="43.32612" lon="-1.70399">
        <ele>233.8</ele>
        <time>2022-05-07T06:54:23Z</time>
      </trkpt>
      <trkpt lat="43.32608" lon="-1.70401">
        <ele>234.4</ele>
        <time>2022-05-07T06:54:27Z</time>
      </trkpt>
      <trkpt lat="43.326" lon="-1.70404">
        <ele>235.2</ele>
        <time>2022-05-07T06:54:33Z</time>
      </trkpt>
      <trkpt lat="43.32599" lon="-1.70404">
        <ele>235.6</ele>
        <time>2022-05-07T06:54:34Z</time>
      </trkpt>
      <trkpt lat="43.32598" lon="-1.70404">
        <ele>235.8</ele>
        <time>2022-05-07T06:54:35Z</time>
      </trkpt>
      <trkpt lat="43.32593" lon="-1.70407">
        <ele>236.6</ele>
        <time>2022-05-07T06:54:39Z</time>
      </trkpt>
      <trkpt lat="43.3259" lon="-1.70408">
        <ele>237.2</ele>
        <time>2022-05-07T06:54:41Z</time>
      </trkpt>
      <trkpt lat="43.32588" lon="-1.7041">
        <ele>237.6</ele>
        <time>2022-05-07T06:54:43Z</time>
      </trkpt>
      <trkpt lat="43.32583" lon="-1.70415">
        <ele>238.6</ele>
        <time>2022-05-07T06:54:48Z</time>
      </trkpt>
      <trkpt lat="43.32582" lon="-1.70416">
        <ele>239</ele>
        <time>2022-05-07T06:54:49Z</time>
      </trkpt>
      <trkpt lat="43.32574" lon="-1.70425">
        <ele>240.2</ele>
        <time>2022-05-07T06:54:56Z</time>
      </trkpt>
      <trkpt lat="43.32573" lon="-1.70426">
        <ele>240.4</ele>
        <time>2022-05-07T06:54:57Z</time>
      </trkpt>
      <trkpt lat="43.32568" lon="-1.70432">
        <ele>241.2</ele>
        <time>2022-05-07T06:55:02Z</time>
      </trkpt>
      <trkpt lat="43.32564" lon="-1.70436">
        <ele>242.2</ele>
        <time>2022-05-07T06:55:06Z</time>
      </trkpt>
      <trkpt lat="43.32563" lon="-1.70437">
        <ele>242.4</ele>
        <time>2022-05-07T06:55:07Z</time>
      </trkpt>
      <trkpt lat="43.32559" lon="-1.70442">
        <ele>243.4</ele>
        <time>2022-05-07T06:55:12Z</time>
      </trkpt>
      <trkpt lat="43.32557" lon="-1.70444">
        <ele>243.8</ele>
        <time>2022-05-07T06:55:14Z</time>
      </trkpt>
      <trkpt lat="43.32556" lon="-1.70446">
        <ele>244</ele>
        <time>2022-05-07T06:55:15Z</time>
      </trkpt>
      <trkpt lat="43.32554" lon="-1.70449">
        <ele>244.6</ele>
        <time>2022-05-07T06:55:17Z</time>
      </trkpt>
      <trkpt lat="43.3255" lon="-1.70458">
        <ele>245.6</ele>
        <time>2022-05-07T06:55:23Z</time>
      </trkpt>
      <trkpt lat="43.32546" lon="-1.70465">
        <ele>246.6</ele>
        <time>2022-05-07T06:55:29Z</time>
      </trkpt>
      <trkpt lat="43.32544" lon="-1.70471">
        <ele>247.6</ele>
        <time>2022-05-07T06:55:34Z</time>
      </trkpt>
      <trkpt lat="43.32542" lon="-1.70475">
        <ele>248.6</ele>
        <time>2022-05-07T06:55:37Z</time>
      </trkpt>
      <trkpt lat="43.32542" lon="-1.70477">
        <ele>248.8</ele>
        <time>2022-05-07T06:55:38Z</time>
      </trkpt>
      <trkpt lat="43.32541" lon="-1.70479">
        <ele>248.8</ele>
        <time>2022-05-07T06:55:39Z</time>
      </trkpt>
      <trkpt lat="43.3254" lon="-1.70483">
        <ele>249.6</ele>
        <time>2022-05-07T06:55:42Z</time>
      </trkpt>
      <trkpt lat="43.32538" lon="-1.70489">
        <ele>250.4</ele>
        <time>2022-05-07T06:55:46Z</time>
      </trkpt>
      <trkpt lat="43.32537" lon="-1.7049">
        <ele>250.4</ele>
        <time>2022-05-07T06:55:47Z</time>
      </trkpt>
      <trkpt lat="43.32537" lon="-1.70492">
        <ele>250.8</ele>
        <time>2022-05-07T06:55:48Z</time>
      </trkpt>
      <trkpt lat="43.32536" lon="-1.70493">
        <ele>251</ele>
        <time>2022-05-07T06:55:49Z</time>
      </trkpt>
      <trkpt lat="43.32535" lon="-1.70495">
        <ele>251.6</ele>
        <time>2022-05-07T06:55:51Z</time>
      </trkpt>
      <trkpt lat="43.32534" lon="-1.70499">
        <ele>251.8</ele>
        <time>2022-05-07T06:55:53Z</time>
      </trkpt>
      <trkpt lat="43.32532" lon="-1.70503">
        <ele>252.2</ele>
        <time>2022-05-07T06:55:56Z</time>
      </trkpt>
      <trkpt lat="43.32531" lon="-1.70506">
        <ele>252.8</ele>
        <time>2022-05-07T06:55:58Z</time>
      </trkpt>
      <trkpt lat="43.32531" lon="-1.70508">
        <ele>253</ele>
        <time>2022-05-07T06:55:59Z</time>
      </trkpt>
      <trkpt lat="43.32531" lon="-1.70509">
        <ele>253.2</ele>
        <time>2022-05-07T06:56:00Z</time>
      </trkpt>
      <trkpt lat="43.3253" lon="-1.70518">
        <ele>254.2</ele>
        <time>2022-05-07T06:56:05Z</time>
      </trkpt>
      <trkpt lat="43.3253" lon="-1.70519">
        <ele>254.2</ele>
        <time>2022-05-07T06:56:06Z</time>
      </trkpt>
      <trkpt lat="43.32529" lon="-1.70521">
        <ele>254.4</ele>
        <time>2022-05-07T06:56:07Z</time>
      </trkpt>
      <trkpt lat="43.32531" lon="-1.70528">
        <ele>255</ele>
        <time>2022-05-07T06:56:11Z</time>
      </trkpt>
      <trkpt lat="43.32532" lon="-1.70529">
        <ele>255.2</ele>
        <time>2022-05-07T06:56:12Z</time>
      </trkpt>
      <trkpt lat="43.32532" lon="-1.70531">
        <ele>255.2</ele>
        <time>2022-05-07T06:56:13Z</time>
      </trkpt>
      <trkpt lat="43.32533" lon="-1.70537">
        <ele>256.2</ele>
        <time>2022-05-07T06:56:17Z</time>
      </trkpt>
      <trkpt lat="43.32534" lon="-1.70545">
        <ele>257.2</ele>
        <time>2022-05-07T06:56:22Z</time>
      </trkpt>
      <trkpt lat="43.32533" lon="-1.70549">
        <ele>257.6</ele>
        <time>2022-05-07T06:56:24Z</time>
      </trkpt>
      <trkpt lat="43.32531" lon="-1.70556">
        <ele>258.4</ele>
        <time>2022-05-07T06:56:28Z</time>
      </trkpt>
      <trkpt lat="43.3253" lon="-1.70557">
        <ele>258.6</ele>
        <time>2022-05-07T06:56:29Z</time>
      </trkpt>
      <trkpt lat="43.32528" lon="-1.70559">
        <ele>258.8</ele>
        <time>2022-05-07T06:56:31Z</time>
      </trkpt>
      <trkpt lat="43.32521" lon="-1.70565">
        <ele>259.4</ele>
        <time>2022-05-07T06:56:36Z</time>
      </trkpt>
      <trkpt lat="43.32515" lon="-1.7057">
        <ele>260</ele>
        <time>2022-05-07T06:56:40Z</time>
      </trkpt>
      <trkpt lat="43.32508" lon="-1.70575">
        <ele>260.4</ele>
        <time>2022-05-07T06:56:45Z</time>
      </trkpt>
      <trkpt lat="43.32503" lon="-1.70577">
        <ele>260.8</ele>
        <time>2022-05-07T06:56:48Z</time>
      </trkpt>
      <trkpt lat="43.32487" lon="-1.70584">
        <ele>261</ele>
        <time>2022-05-07T06:56:57Z</time>
      </trkpt>
      <trkpt lat="43.32465" lon="-1.70588">
        <ele>260.8</ele>
        <time>2022-05-07T06:57:05Z</time>
      </trkpt>
      <trkpt lat="43.3244" lon="-1.70594">
        <ele>260.2</ele>
        <time>2022-05-07T06:57:11Z</time>
      </trkpt>
      <trkpt lat="43.32425" lon="-1.706">
        <ele>259.6</ele>
        <time>2022-05-07T06:57:14Z</time>
      </trkpt>
      <trkpt lat="43.3241" lon="-1.70605">
        <ele>259</ele>
        <time>2022-05-07T06:57:17Z</time>
      </trkpt>
      <trkpt lat="43.32397" lon="-1.70609">
        <ele>258.6</ele>
        <time>2022-05-07T06:57:20Z</time>
      </trkpt>
      <trkpt lat="43.32386" lon="-1.70609">
        <ele>257.8</ele>
        <time>2022-05-07T06:57:23Z</time>
      </trkpt>
      <trkpt lat="43.32376" lon="-1.7061">
        <ele>257.6</ele>
        <time>2022-05-07T06:57:27Z</time>
      </trkpt>
      <trkpt lat="43.32366" lon="-1.70606">
        <ele>257.6</ele>
        <time>2022-05-07T06:57:32Z</time>
      </trkpt>
      <trkpt lat="43.32352" lon="-1.70603">
        <ele>258.6</ele>
        <time>2022-05-07T06:57:40Z</time>
      </trkpt>
      <trkpt lat="43.32347" lon="-1.70601">
        <ele>259.4</ele>
        <time>2022-05-07T06:57:43Z</time>
      </trkpt>
      <trkpt lat="43.32342" lon="-1.706">
        <ele>260</ele>
        <time>2022-05-07T06:57:46Z</time>
      </trkpt>
      <trkpt lat="43.32339" lon="-1.70601">
        <ele>260.4</ele>
        <time>2022-05-07T06:57:48Z</time>
      </trkpt>
      <trkpt lat="43.32335" lon="-1.70602">
        <ele>261.4</ele>
        <time>2022-05-07T06:57:50Z</time>
      </trkpt>
      <trkpt lat="43.32334" lon="-1.70603">
        <ele>261.6</ele>
        <time>2022-05-07T06:57:51Z</time>
      </trkpt>
      <trkpt lat="43.32329" lon="-1.70609">
        <ele>263</ele>
        <time>2022-05-07T06:57:56Z</time>
      </trkpt>
      <trkpt lat="43.32327" lon="-1.70613">
        <ele>263.4</ele>
        <time>2022-05-07T06:57:58Z</time>
      </trkpt>
      <trkpt lat="43.32322" lon="-1.70629">
        <ele>263.6</ele>
        <time>2022-05-07T06:58:06Z</time>
      </trkpt>
      <trkpt lat="43.32313" lon="-1.70639">
        <ele>263.6</ele>
        <time>2022-05-07T06:58:13Z</time>
      </trkpt>
      <trkpt lat="43.32313" lon="-1.7064">
        <ele>263.6</ele>
        <time>2022-05-07T06:58:14Z</time>
      </trkpt>
      <trkpt lat="43.32315" lon="-1.7065">
        <ele>263.8</ele>
        <time>2022-05-07T06:58:18Z</time>
      </trkpt>
      <trkpt lat="43.32321" lon="-1.70669">
        <ele>263.8</ele>
        <time>2022-05-07T06:58:25Z</time>
      </trkpt>
      <trkpt lat="43.32322" lon="-1.70673">
        <ele>264</ele>
        <time>2022-05-07T06:58:28Z</time>
      </trkpt>
      <trkpt lat="43.32322" lon="-1.70673">
        <ele>264.4</ele>
        <time>2022-05-07T06:58:29Z</time>
      </trkpt>
      <trkpt lat="43.32322" lon="-1.70673">
        <ele>265</ele>
        <time>2022-05-07T06:58:37Z</time>
      </trkpt>
      <trkpt lat="43.32322" lon="-1.7067">
        <ele>264.4</ele>
        <time>2022-05-07T07:00:26Z</time>
      </trkpt>
      <trkpt lat="43.3232" lon="-1.70661">
        <ele>264.4</ele>
        <time>2022-05-07T07:00:29Z</time>
      </trkpt>
      <trkpt lat="43.32321" lon="-1.70643">
        <ele>264</ele>
        <time>2022-05-07T07:00:34Z</time>
      </trkpt>
      <trkpt lat="43.32326" lon="-1.7063">
        <ele>263.4</ele>
        <time>2022-05-07T07:00:40Z</time>
      </trkpt>
      <trkpt lat="43.32329" lon="-1.70625">
        <ele>263.4</ele>
        <time>2022-05-07T07:00:42Z</time>
      </trkpt>
      <trkpt lat="43.32333" lon="-1.70604">
        <ele>263.4</ele>
        <time>2022-05-07T07:00:50Z</time>
      </trkpt>
      <trkpt lat="43.32331" lon="-1.70593">
        <ele>263.8</ele>
        <time>2022-05-07T07:00:56Z</time>
      </trkpt>
      <trkpt lat="43.32324" lon="-1.70588">
        <ele>264.2</ele>
        <time>2022-05-07T07:01:01Z</time>
      </trkpt>
      <trkpt lat="43.3232" lon="-1.70586">
        <ele>264.6</ele>
        <time>2022-05-07T07:01:03Z</time>
      </trkpt>
      <trkpt lat="43.3231" lon="-1.70584">
        <ele>265.6</ele>
        <time>2022-05-07T07:01:09Z</time>
      </trkpt>
      <trkpt lat="43.32302" lon="-1.70581">
        <ele>266.8</ele>
        <time>2022-05-07T07:01:14Z</time>
      </trkpt>
      <trkpt lat="43.32294" lon="-1.70578">
        <ele>267.6</ele>
        <time>2022-05-07T07:01:18Z</time>
      </trkpt>
      <trkpt lat="43.32291" lon="-1.70577">
        <ele>268.2</ele>
        <time>2022-05-07T07:01:20Z</time>
      </trkpt>
      <trkpt lat="43.32283" lon="-1.70575">
        <ele>269.4</ele>
        <time>2022-05-07T07:01:24Z</time>
      </trkpt>
      <trkpt lat="43.32275" lon="-1.7057">
        <ele>270.2</ele>
        <time>2022-05-07T07:01:29Z</time>
      </trkpt>
      <trkpt lat="43.32274" lon="-1.70569">
        <ele>270.4</ele>
        <time>2022-05-07T07:01:30Z</time>
      </trkpt>
      <trkpt lat="43.32267" lon="-1.70566">
        <ele>271.8</ele>
        <time>2022-05-07T07:01:34Z</time>
      </trkpt>
      <trkpt lat="43.32262" lon="-1.70561">
        <ele>272.6</ele>
        <time>2022-05-07T07:01:38Z</time>
      </trkpt>
      <trkpt lat="43.3226" lon="-1.7056">
        <ele>273</ele>
        <time>2022-05-07T07:01:39Z</time>
      </trkpt>
      <trkpt lat="43.32255" lon="-1.70557">
        <ele>273.6</ele>
        <time>2022-05-07T07:01:42Z</time>
      </trkpt>
      <trkpt lat="43.32251" lon="-1.70552">
        <ele>274.2</ele>
        <time>2022-05-07T07:01:45Z</time>
      </trkpt>
      <trkpt lat="43.32244" lon="-1.70545">
        <ele>275.6</ele>
        <time>2022-05-07T07:01:51Z</time>
      </trkpt>
      <trkpt lat="43.32241" lon="-1.7054">
        <ele>276.2</ele>
        <time>2022-05-07T07:01:54Z</time>
      </trkpt>
      <trkpt lat="43.32238" lon="-1.70537">
        <ele>276.4</ele>
        <time>2022-05-07T07:01:57Z</time>
      </trkpt>
      <trkpt lat="43.32237" lon="-1.70535">
        <ele>276.8</ele>
        <time>2022-05-07T07:01:58Z</time>
      </trkpt>
      <trkpt lat="43.32236" lon="-1.70533">
        <ele>277.6</ele>
        <time>2022-05-07T07:02:01Z</time>
      </trkpt>
      <trkpt lat="43.32236" lon="-1.70533">
        <ele>278</ele>
        <time>2022-05-07T07:02:02Z</time>
      </trkpt>
      <trkpt lat="43.32236" lon="-1.70533">
        <ele>278.4</ele>
        <time>2022-05-07T07:02:07Z</time>
      </trkpt>
      <trkpt lat="43.32233" lon="-1.70525">
        <ele>279</ele>
        <time>2022-05-07T07:03:32Z</time>
      </trkpt>
      <trkpt lat="43.32231" lon="-1.70521">
        <ele>279</ele>
        <time>2022-05-07T07:03:34Z</time>
      </trkpt>
      <trkpt lat="43.32225" lon="-1.70506">
        <ele>279.6</ele>
        <time>2022-05-07T07:03:40Z</time>
      </trkpt>
      <trkpt lat="43.32221" lon="-1.70499">
        <ele>280</ele>
        <time>2022-05-07T07:03:43Z</time>
      </trkpt>
      <trkpt lat="43.32214" lon="-1.70484">
        <ele>280.6</ele>
        <time>2022-05-07T07:03:49Z</time>
      </trkpt>
      <trkpt lat="43.32209" lon="-1.70472">
        <ele>281</ele>
        <time>2022-05-07T07:03:54Z</time>
      </trkpt>
      <trkpt lat="43.32206" lon="-1.70466">
        <ele>281.4</ele>
        <time>2022-05-07T07:03:57Z</time>
      </trkpt>
      <trkpt lat="43.32202" lon="-1.70455">
        <ele>282</ele>
        <time>2022-05-07T07:04:02Z</time>
      </trkpt>
      <trkpt lat="43.32201" lon="-1.70454">
        <ele>282.2</ele>
        <time>2022-05-07T07:04:03Z</time>
      </trkpt>
      <trkpt lat="43.322" lon="-1.7045">
        <ele>282.8</ele>
        <time>2022-05-07T07:04:05Z</time>
      </trkpt>
      <trkpt lat="43.322" lon="-1.70448">
        <ele>283.2</ele>
        <time>2022-05-07T07:04:06Z</time>
      </trkpt>
      <trkpt lat="43.32199" lon="-1.70446">
        <ele>283.4</ele>
        <time>2022-05-07T07:04:07Z</time>
      </trkpt>
      <trkpt lat="43.32197" lon="-1.7044">
        <ele>284.4</ele>
        <time>2022-05-07T07:04:11Z</time>
      </trkpt>
      <trkpt lat="43.32197" lon="-1.70436">
        <ele>284.6</ele>
        <time>2022-05-07T07:04:13Z</time>
      </trkpt>
      <trkpt lat="43.32195" lon="-1.70429">
        <ele>285</ele>
        <time>2022-05-07T07:04:16Z</time>
      </trkpt>
      <trkpt lat="43.32193" lon="-1.70427">
        <ele>285.4</ele>
        <time>2022-05-07T07:04:17Z</time>
      </trkpt>
      <trkpt lat="43.32192" lon="-1.70424">
        <ele>285.4</ele>
        <time>2022-05-07T07:04:18Z</time>
      </trkpt>
      <trkpt lat="43.32187" lon="-1.70413">
        <ele>286.6</ele>
        <time>2022-05-07T07:04:23Z</time>
      </trkpt>
      <trkpt lat="43.32186" lon="-1.7041">
        <ele>286.6</ele>
        <time>2022-05-07T07:04:24Z</time>
      </trkpt>
      <trkpt lat="43.32178" lon="-1.70391">
        <ele>287.6</ele>
        <time>2022-05-07T07:04:31Z</time>
      </trkpt>
      <trkpt lat="43.32168" lon="-1.70364">
        <ele>290</ele>
        <time>2022-05-07T07:04:39Z</time>
      </trkpt>
      <trkpt lat="43.32168" lon="-1.70361">
        <ele>288.8</ele>
        <time>2022-05-07T07:04:40Z</time>
      </trkpt>
      <trkpt lat="43.32161" lon="-1.70329">
        <ele>289.6</ele>
        <time>2022-05-07T07:04:51Z</time>
      </trkpt>
      <trkpt lat="43.32161" lon="-1.70322">
        <ele>289.8</ele>
        <time>2022-05-07T07:04:53Z</time>
      </trkpt>
      <trkpt lat="43.3216" lon="-1.70312">
        <ele>290.4</ele>
        <time>2022-05-07T07:04:57Z</time>
      </trkpt>
      <trkpt lat="43.32159" lon="-1.703">
        <ele>291</ele>
        <time>2022-05-07T07:05:01Z</time>
      </trkpt>
      <trkpt lat="43.32156" lon="-1.7029">
        <ele>291.4</ele>
        <time>2022-05-07T07:05:05Z</time>
      </trkpt>
      <trkpt lat="43.32155" lon="-1.70284">
        <ele>291.8</ele>
        <time>2022-05-07T07:05:07Z</time>
      </trkpt>
      <trkpt lat="43.32153" lon="-1.70276">
        <ele>292.2</ele>
        <time>2022-05-07T07:05:10Z</time>
      </trkpt>
      <trkpt lat="43.32151" lon="-1.70271">
        <ele>292.8</ele>
        <time>2022-05-07T07:05:12Z</time>
      </trkpt>
      <trkpt lat="43.32146" lon="-1.70255">
        <ele>294.4</ele>
        <time>2022-05-07T07:05:18Z</time>
      </trkpt>
      <trkpt lat="43.32145" lon="-1.70251">
        <ele>294.6</ele>
        <time>2022-05-07T07:05:19Z</time>
      </trkpt>
      <trkpt lat="43.32141" lon="-1.7024">
        <ele>295.4</ele>
        <time>2022-05-07T07:05:23Z</time>
      </trkpt>
      <trkpt lat="43.32137" lon="-1.70227">
        <ele>296.2</ele>
        <time>2022-05-07T07:05:28Z</time>
      </trkpt>
      <trkpt lat="43.32135" lon="-1.70221">
        <ele>296.4</ele>
        <time>2022-05-07T07:05:30Z</time>
      </trkpt>
      <trkpt lat="43.32131" lon="-1.70208">
        <ele>296.8</ele>
        <time>2022-05-07T07:05:34Z</time>
      </trkpt>
      <trkpt lat="43.32122" lon="-1.70182">
        <ele>296.8</ele>
        <time>2022-05-07T07:05:41Z</time>
      </trkpt>
      <trkpt lat="43.32119" lon="-1.70141">
        <ele>296.2</ele>
        <time>2022-05-07T07:05:49Z</time>
      </trkpt>
      <trkpt lat="43.32119" lon="-1.70097">
        <ele>295.4</ele>
        <time>2022-05-07T07:05:56Z</time>
      </trkpt>
      <trkpt lat="43.32116" lon="-1.70075">
        <ele>295.2</ele>
        <time>2022-05-07T07:06:00Z</time>
      </trkpt>
      <trkpt lat="43.3211" lon="-1.7006">
        <ele>295.2</ele>
        <time>2022-05-07T07:06:04Z</time>
      </trkpt>
      <trkpt lat="43.32106" lon="-1.70036">
        <ele>295.2</ele>
        <time>2022-05-07T07:06:10Z</time>
      </trkpt>
      <trkpt lat="43.32103" lon="-1.70005">
        <ele>295.6</ele>
        <time>2022-05-07T07:06:18Z</time>
      </trkpt>
      <trkpt lat="43.32099" lon="-1.69991">
        <ele>295.8</ele>
        <time>2022-05-07T07:06:24Z</time>
      </trkpt>
      <trkpt lat="43.32098" lon="-1.69989">
        <ele>296</ele>
        <time>2022-05-07T07:06:25Z</time>
      </trkpt>
      <trkpt lat="43.32102" lon="-1.69987">
        <ele>296.2</ele>
        <time>2022-05-07T07:06:28Z</time>
      </trkpt>
      <trkpt lat="43.32102" lon="-1.69989">
        <ele>296.2</ele>
        <time>2022-05-07T07:06:29Z</time>
      </trkpt>
      <trkpt lat="43.32102" lon="-1.69992">
        <ele>296.2</ele>
        <time>2022-05-07T07:06:30Z</time>
      </trkpt>
      <trkpt lat="43.32102" lon="-1.69998">
        <ele>296.2</ele>
        <time>2022-05-07T07:06:32Z</time>
      </trkpt>
      <trkpt lat="43.321" lon="-1.70001">
        <ele>296.4</ele>
        <time>2022-05-07T07:06:33Z</time>
      </trkpt>
      <trkpt lat="43.32095" lon="-1.70002">
        <ele>296.4</ele>
        <time>2022-05-07T07:06:35Z</time>
      </trkpt>
      <trkpt lat="43.32087" lon="-1.69994">
        <ele>296.2</ele>
        <time>2022-05-07T07:06:38Z</time>
      </trkpt>
      <trkpt lat="43.32069" lon="-1.6998">
        <ele>295.2</ele>
        <time>2022-05-07T07:06:43Z</time>
      </trkpt>
      <trkpt lat="43.32065" lon="-1.69979">
        <ele>294.8</ele>
        <time>2022-05-07T07:06:44Z</time>
      </trkpt>
      <trkpt lat="43.32052" lon="-1.69977">
        <ele>293.8</ele>
        <time>2022-05-07T07:06:48Z</time>
      </trkpt>
      <trkpt lat="43.32049" lon="-1.69976">
        <ele>293.6</ele>
        <time>2022-05-07T07:06:49Z</time>
      </trkpt>
      <trkpt lat="43.32047" lon="-1.69976">
        <ele>293</ele>
        <time>2022-05-07T07:06:50Z</time>
      </trkpt>
      <trkpt lat="43.32045" lon="-1.69977">
        <ele>292.8</ele>
        <time>2022-05-07T07:06:51Z</time>
      </trkpt>
      <trkpt lat="43.32034" lon="-1.69977">
        <ele>291.8</ele>
        <time>2022-05-07T07:06:56Z</time>
      </trkpt>
      <trkpt lat="43.32032" lon="-1.69977">
        <ele>291.6</ele>
        <time>2022-05-07T07:06:57Z</time>
      </trkpt>
      <trkpt lat="43.32012" lon="-1.6998">
        <ele>290.6</ele>
        <time>2022-05-07T07:07:01Z</time>
      </trkpt>
      <trkpt lat="43.32008" lon="-1.6998">
        <ele>290.4</ele>
        <time>2022-05-07T07:07:02Z</time>
      </trkpt>
      <trkpt lat="43.32002" lon="-1.6998">
        <ele>290.2</ele>
        <time>2022-05-07T07:07:03Z</time>
      </trkpt>
      <trkpt lat="43.31993" lon="-1.69979">
        <ele>289.6</ele>
        <time>2022-05-07T07:07:05Z</time>
      </trkpt>
      <trkpt lat="43.31987" lon="-1.69978">
        <ele>289.4</ele>
        <time>2022-05-07T07:07:06Z</time>
      </trkpt>
      <trkpt lat="43.31982" lon="-1.69977">
        <ele>289.2</ele>
        <time>2022-05-07T07:07:07Z</time>
      </trkpt>
      <trkpt lat="43.31971" lon="-1.69977">
        <ele>288</ele>
        <time>2022-05-07T07:07:09Z</time>
      </trkpt>
      <trkpt lat="43.31961" lon="-1.6998">
        <ele>287.4</ele>
        <time>2022-05-07T07:07:11Z</time>
      </trkpt>
      <trkpt lat="43.31953" lon="-1.6998">
        <ele>286.6</ele>
        <time>2022-05-07T07:07:13Z</time>
      </trkpt>
      <trkpt lat="43.31932" lon="-1.6998">
        <ele>285.6</ele>
        <time>2022-05-07T07:07:18Z</time>
      </trkpt>
      <trkpt lat="43.31921" lon="-1.69978">
        <ele>284.8</ele>
        <time>2022-05-07T07:07:22Z</time>
      </trkpt>
      <trkpt lat="43.3191" lon="-1.69979">
        <ele>284</ele>
        <time>2022-05-07T07:07:24Z</time>
      </trkpt>
      <trkpt lat="43.31902" lon="-1.69982">
        <ele>283.6</ele>
        <time>2022-05-07T07:07:26Z</time>
      </trkpt>
      <trkpt lat="43.31898" lon="-1.69986">
        <ele>283.4</ele>
        <time>2022-05-07T07:07:27Z</time>
      </trkpt>
      <trkpt lat="43.31895" lon="-1.69991">
        <ele>282.6</ele>
        <time>2022-05-07T07:07:28Z</time>
      </trkpt>
      <trkpt lat="43.3189" lon="-1.70004">
        <ele>281.6</ele>
        <time>2022-05-07T07:07:30Z</time>
      </trkpt>
      <trkpt lat="43.31889" lon="-1.70011">
        <ele>281.4</ele>
        <time>2022-05-07T07:07:31Z</time>
      </trkpt>
      <trkpt lat="43.31888" lon="-1.70019">
        <ele>280.4</ele>
        <time>2022-05-07T07:07:32Z</time>
      </trkpt>
      <trkpt lat="43.31887" lon="-1.70034">
        <ele>278.8</ele>
        <time>2022-05-07T07:07:34Z</time>
      </trkpt>
      <trkpt lat="43.31888" lon="-1.70049">
        <ele>278</ele>
        <time>2022-05-07T07:07:36Z</time>
      </trkpt>
      <trkpt lat="43.31888" lon="-1.70057">
        <ele>277.4</ele>
        <time>2022-05-07T07:07:37Z</time>
      </trkpt>
      <trkpt lat="43.3189" lon="-1.70064">
        <ele>276.6</ele>
        <time>2022-05-07T07:07:38Z</time>
      </trkpt>
      <trkpt lat="43.31891" lon="-1.70073">
        <ele>276</ele>
        <time>2022-05-07T07:07:39Z</time>
      </trkpt>
      <trkpt lat="43.31893" lon="-1.70081">
        <ele>275.4</ele>
        <time>2022-05-07T07:07:40Z</time>
      </trkpt>
      <trkpt lat="43.31896" lon="-1.7009">
        <ele>274.6</ele>
        <time>2022-05-07T07:07:41Z</time>
      </trkpt>
      <trkpt lat="43.31903" lon="-1.70104">
        <ele>273.8</ele>
        <time>2022-05-07T07:07:43Z</time>
      </trkpt>
      <trkpt lat="43.31907" lon="-1.70109">
        <ele>273.6</ele>
        <time>2022-05-07T07:07:44Z</time>
      </trkpt>
      <trkpt lat="43.31913" lon="-1.70114">
        <ele>272.4</ele>
        <time>2022-05-07T07:07:45Z</time>
      </trkpt>
      <trkpt lat="43.31918" lon="-1.70119">
        <ele>271.8</ele>
        <time>2022-05-07T07:07:46Z</time>
      </trkpt>
      <trkpt lat="43.31923" lon="-1.70124">
        <ele>270.8</ele>
        <time>2022-05-07T07:07:47Z</time>
      </trkpt>
      <trkpt lat="43.31928" lon="-1.70129">
        <ele>270.6</ele>
        <time>2022-05-07T07:07:48Z</time>
      </trkpt>
      <trkpt lat="43.31932" lon="-1.70135">
        <ele>269.6</ele>
        <time>2022-05-07T07:07:49Z</time>
      </trkpt>
      <trkpt lat="43.31934" lon="-1.70142">
        <ele>269</ele>
        <time>2022-05-07T07:07:50Z</time>
      </trkpt>
      <trkpt lat="43.31935" lon="-1.70149">
        <ele>268</ele>
        <time>2022-05-07T07:07:51Z</time>
      </trkpt>
      <trkpt lat="43.31936" lon="-1.70154">
        <ele>267.6</ele>
        <time>2022-05-07T07:07:52Z</time>
      </trkpt>
      <trkpt lat="43.31937" lon="-1.7016">
        <ele>266.8</ele>
        <time>2022-05-07T07:07:53Z</time>
      </trkpt>
      <trkpt lat="43.31939" lon="-1.70175">
        <ele>265</ele>
        <time>2022-05-07T07:07:55Z</time>
      </trkpt>
      <trkpt lat="43.31942" lon="-1.70187">
        <ele>263.2</ele>
        <time>2022-05-07T07:07:57Z</time>
      </trkpt>
      <trkpt lat="43.31944" lon="-1.70201">
        <ele>262</ele>
        <time>2022-05-07T07:07:59Z</time>
      </trkpt>
      <trkpt lat="43.31946" lon="-1.7021">
        <ele>260.8</ele>
        <time>2022-05-07T07:08:01Z</time>
      </trkpt>
      <trkpt lat="43.31945" lon="-1.70213">
        <ele>260</ele>
        <time>2022-05-07T07:08:02Z</time>
      </trkpt>
      <trkpt lat="43.31942" lon="-1.70222">
        <ele>259.2</ele>
        <time>2022-05-07T07:08:04Z</time>
      </trkpt>
      <trkpt lat="43.3194" lon="-1.70227">
        <ele>259</ele>
        <time>2022-05-07T07:08:05Z</time>
      </trkpt>
      <trkpt lat="43.31936" lon="-1.70232">
        <ele>258.2</ele>
        <time>2022-05-07T07:08:06Z</time>
      </trkpt>
      <trkpt lat="43.31929" lon="-1.7024">
        <ele>257.2</ele>
        <time>2022-05-07T07:08:08Z</time>
      </trkpt>
      <trkpt lat="43.31917" lon="-1.70247">
        <ele>256</ele>
        <time>2022-05-07T07:08:11Z</time>
      </trkpt>
      <trkpt lat="43.31911" lon="-1.70252">
        <ele>255</ele>
        <time>2022-05-07T07:08:13Z</time>
      </trkpt>
      <trkpt lat="43.31909" lon="-1.70255">
        <ele>254.6</ele>
        <time>2022-05-07T07:08:14Z</time>
      </trkpt>
      <trkpt lat="43.31905" lon="-1.7026">
        <ele>253.6</ele>
        <time>2022-05-07T07:08:17Z</time>
      </trkpt>
      <trkpt lat="43.31896" lon="-1.70271">
        <ele>253</ele>
        <time>2022-05-07T07:08:23Z</time>
      </trkpt>
      <trkpt lat="43.31897" lon="-1.70282">
        <ele>253</ele>
        <time>2022-05-07T07:08:27Z</time>
      </trkpt>
      <trkpt lat="43.31896" lon="-1.7029">
        <ele>253</ele>
        <time>2022-05-07T07:08:30Z</time>
      </trkpt>
      <trkpt lat="43.31901" lon="-1.70297">
        <ele>253.2</ele>
        <time>2022-05-07T07:08:33Z</time>
      </trkpt>
      <trkpt lat="43.31902" lon="-1.70303">
        <ele>253.2</ele>
        <time>2022-05-07T07:08:35Z</time>
      </trkpt>
      <trkpt lat="43.31901" lon="-1.70312">
        <ele>253.4</ele>
        <time>2022-05-07T07:08:38Z</time>
      </trkpt>
      <trkpt lat="43.319" lon="-1.70317">
        <ele>253.6</ele>
        <time>2022-05-07T07:08:40Z</time>
      </trkpt>
      <trkpt lat="43.31897" lon="-1.70341">
        <ele>254</ele>
        <time>2022-05-07T07:08:47Z</time>
      </trkpt>
      <trkpt lat="43.31895" lon="-1.70344">
        <ele>254</ele>
        <time>2022-05-07T07:08:48Z</time>
      </trkpt>
      <trkpt lat="43.3188" lon="-1.70359">
        <ele>254</ele>
        <time>2022-05-07T07:08:54Z</time>
      </trkpt>
      <trkpt lat="43.3187" lon="-1.70374">
        <ele>253.6</ele>
        <time>2022-05-07T07:08:58Z</time>
      </trkpt>
      <trkpt lat="43.31864" lon="-1.7039">
        <ele>253.4</ele>
        <time>2022-05-07T07:09:02Z</time>
      </trkpt>
      <trkpt lat="43.3186" lon="-1.70406">
        <ele>253.8</ele>
        <time>2022-05-07T07:09:07Z</time>
      </trkpt>
      <trkpt lat="43.31859" lon="-1.70409">
        <ele>254</ele>
        <time>2022-05-07T07:09:08Z</time>
      </trkpt>
      <trkpt lat="43.31857" lon="-1.70412">
        <ele>254.4</ele>
        <time>2022-05-07T07:09:09Z</time>
      </trkpt>
      <trkpt lat="43.31853" lon="-1.70428">
        <ele>255.8</ele>
        <time>2022-05-07T07:09:14Z</time>
      </trkpt>
      <trkpt lat="43.31854" lon="-1.70434">
        <ele>256.6</ele>
        <time>2022-05-07T07:09:16Z</time>
      </trkpt>
      <trkpt lat="43.31855" lon="-1.70437">
        <ele>256.8</ele>
        <time>2022-05-07T07:09:17Z</time>
      </trkpt>
      <trkpt lat="43.31857" lon="-1.70441">
        <ele>257</ele>
        <time>2022-05-07T07:09:18Z</time>
      </trkpt>
      <trkpt lat="43.31859" lon="-1.70452">
        <ele>258.2</ele>
        <time>2022-05-07T07:09:21Z</time>
      </trkpt>
      <trkpt lat="43.31863" lon="-1.7046">
        <ele>259.4</ele>
        <time>2022-05-07T07:09:25Z</time>
      </trkpt>
      <trkpt lat="43.31867" lon="-1.70472">
        <ele>260.4</ele>
        <time>2022-05-07T07:09:30Z</time>
      </trkpt>
      <trkpt lat="43.31868" lon="-1.70477">
        <ele>261</ele>
        <time>2022-05-07T07:09:32Z</time>
      </trkpt>
      <trkpt lat="43.31869" lon="-1.70485">
        <ele>261.4</ele>
        <time>2022-05-07T07:09:35Z</time>
      </trkpt>
      <trkpt lat="43.31869" lon="-1.70498">
        <ele>262.4</ele>
        <time>2022-05-07T07:09:40Z</time>
      </trkpt>
      <trkpt lat="43.31867" lon="-1.70509">
        <ele>263.4</ele>
        <time>2022-05-07T07:09:44Z</time>
      </trkpt>
      <trkpt lat="43.31867" lon="-1.70518">
        <ele>264.4</ele>
        <time>2022-05-07T07:09:47Z</time>
      </trkpt>
      <trkpt lat="43.31868" lon="-1.70521">
        <ele>264.6</ele>
        <time>2022-05-07T07:09:48Z</time>
      </trkpt>
      <trkpt lat="43.31871" lon="-1.70535">
        <ele>265.4</ele>
        <time>2022-05-07T07:09:53Z</time>
      </trkpt>
      <trkpt lat="43.31873" lon="-1.70541">
        <ele>265.6</ele>
        <time>2022-05-07T07:09:55Z</time>
      </trkpt>
      <trkpt lat="43.31872" lon="-1.70552">
        <ele>266.2</ele>
        <time>2022-05-07T07:09:59Z</time>
      </trkpt>
      <trkpt lat="43.31872" lon="-1.70565">
        <ele>266.6</ele>
        <time>2022-05-07T07:10:03Z</time>
      </trkpt>
      <trkpt lat="43.31874" lon="-1.70575">
        <ele>267</ele>
        <time>2022-05-07T07:10:06Z</time>
      </trkpt>
      <trkpt lat="43.3188" lon="-1.70592">
        <ele>267.6</ele>
        <time>2022-05-07T07:10:11Z</time>
      </trkpt>
      <trkpt lat="43.3188" lon="-1.70595">
        <ele>267.8</ele>
        <time>2022-05-07T07:10:12Z</time>
      </trkpt>
      <trkpt lat="43.31882" lon="-1.70601">
        <ele>268.2</ele>
        <time>2022-05-07T07:10:14Z</time>
      </trkpt>
      <trkpt lat="43.31882" lon="-1.70606">
        <ele>268.4</ele>
        <time>2022-05-07T07:10:16Z</time>
      </trkpt>
      <trkpt lat="43.31881" lon="-1.70611">
        <ele>268.8</ele>
        <time>2022-05-07T07:10:18Z</time>
      </trkpt>
      <trkpt lat="43.31878" lon="-1.7062">
        <ele>269.2</ele>
        <time>2022-05-07T07:10:21Z</time>
      </trkpt>
      <trkpt lat="43.31884" lon="-1.70638">
        <ele>269.6</ele>
        <time>2022-05-07T07:10:27Z</time>
      </trkpt>
      <trkpt lat="43.31892" lon="-1.70657">
        <ele>270.8</ele>
        <time>2022-05-07T07:10:33Z</time>
      </trkpt>
      <trkpt lat="43.31894" lon="-1.7066">
        <ele>270.8</ele>
        <time>2022-05-07T07:10:34Z</time>
      </trkpt>
      <trkpt lat="43.31905" lon="-1.70687">
        <ele>270.8</ele>
        <time>2022-05-07T07:10:40Z</time>
      </trkpt>
      <trkpt lat="43.31915" lon="-1.70721">
        <ele>270.4</ele>
        <time>2022-05-07T07:10:46Z</time>
      </trkpt>
      <trkpt lat="43.3192" lon="-1.70756">
        <ele>269.8</ele>
        <time>2022-05-07T07:10:52Z</time>
      </trkpt>
      <trkpt lat="43.31919" lon="-1.70764">
        <ele>269.6</ele>
        <time>2022-05-07T07:10:53Z</time>
      </trkpt>
      <trkpt lat="43.31919" lon="-1.70771">
        <ele>269.4</ele>
        <time>2022-05-07T07:10:54Z</time>
      </trkpt>
      <trkpt lat="43.31918" lon="-1.70795">
        <ele>268.8</ele>
        <time>2022-05-07T07:10:57Z</time>
      </trkpt>
      <trkpt lat="43.31916" lon="-1.70803">
        <ele>268.4</ele>
        <time>2022-05-07T07:10:58Z</time>
      </trkpt>
      <trkpt lat="43.31914" lon="-1.70811">
        <ele>268.4</ele>
        <time>2022-05-07T07:10:59Z</time>
      </trkpt>
      <trkpt lat="43.31911" lon="-1.70823">
        <ele>267.8</ele>
        <time>2022-05-07T07:11:01Z</time>
      </trkpt>
      <trkpt lat="43.31909" lon="-1.70831">
        <ele>267.8</ele>
        <time>2022-05-07T07:11:02Z</time>
      </trkpt>
      <trkpt lat="43.31906" lon="-1.70836">
        <ele>267.6</ele>
        <time>2022-05-07T07:11:03Z</time>
      </trkpt>
      <trkpt lat="43.31902" lon="-1.70844">
        <ele>267.4</ele>
        <time>2022-05-07T07:11:05Z</time>
      </trkpt>
      <trkpt lat="43.31901" lon="-1.70848">
        <ele>267.2</ele>
        <time>2022-05-07T07:11:06Z</time>
      </trkpt>
      <trkpt lat="43.31899" lon="-1.70861">
        <ele>267</ele>
        <time>2022-05-07T07:11:09Z</time>
      </trkpt>
      <trkpt lat="43.31895" lon="-1.70864">
        <ele>266.8</ele>
        <time>2022-05-07T07:11:11Z</time>
      </trkpt>
      <trkpt lat="43.31892" lon="-1.70864">
        <ele>266.8</ele>
        <time>2022-05-07T07:11:12Z</time>
      </trkpt>
      <trkpt lat="43.3189" lon="-1.70863">
        <ele>266.8</ele>
        <time>2022-05-07T07:11:13Z</time>
      </trkpt>
      <trkpt lat="43.31889" lon="-1.70859">
        <ele>267</ele>
        <time>2022-05-07T07:11:15Z</time>
      </trkpt>
      <trkpt lat="43.31888" lon="-1.70852">
        <ele>267.4</ele>
        <time>2022-05-07T07:11:18Z</time>
      </trkpt>
      <trkpt lat="43.31887" lon="-1.70848">
        <ele>267.8</ele>
        <time>2022-05-07T07:11:20Z</time>
      </trkpt>
      <trkpt lat="43.31887" lon="-1.70846">
        <ele>268.2</ele>
        <time>2022-05-07T07:11:21Z</time>
      </trkpt>
      <trkpt lat="43.31887" lon="-1.70839">
        <ele>269.4</ele>
        <time>2022-05-07T07:11:24Z</time>
      </trkpt>
      <trkpt lat="43.31888" lon="-1.70834">
        <ele>271</ele>
        <time>2022-05-07T07:11:27Z</time>
      </trkpt>
      <trkpt lat="43.31888" lon="-1.70831">
        <ele>271.6</ele>
        <time>2022-05-07T07:11:28Z</time>
      </trkpt>
      <trkpt lat="43.31889" lon="-1.70827">
        <ele>272.2</ele>
        <time>2022-05-07T07:11:30Z</time>
      </trkpt>
      <trkpt lat="43.31889" lon="-1.70819">
        <ele>273.4</ele>
        <time>2022-05-07T07:11:34Z</time>
      </trkpt>
      <trkpt lat="43.31888" lon="-1.70816">
        <ele>274.4</ele>
        <time>2022-05-07T07:11:36Z</time>
      </trkpt>
      <trkpt lat="43.31889" lon="-1.70814">
        <ele>274.6</ele>
        <time>2022-05-07T07:11:37Z</time>
      </trkpt>
      <trkpt lat="43.31888" lon="-1.70812">
        <ele>275</ele>
        <time>2022-05-07T07:11:38Z</time>
      </trkpt>
      <trkpt lat="43.31888" lon="-1.70808">
        <ele>275.8</ele>
        <time>2022-05-07T07:11:40Z</time>
      </trkpt>
      <trkpt lat="43.31888" lon="-1.70806">
        <ele>276.2</ele>
        <time>2022-05-07T07:11:41Z</time>
      </trkpt>
      <trkpt lat="43.31887" lon="-1.70801">
        <ele>277</ele>
        <time>2022-05-07T07:11:43Z</time>
      </trkpt>
      <trkpt lat="43.31884" lon="-1.70793">
        <ele>278.2</ele>
        <time>2022-05-07T07:11:47Z</time>
      </trkpt>
      <trkpt lat="43.31883" lon="-1.70786">
        <ele>279.2</ele>
        <time>2022-05-07T07:11:50Z</time>
      </trkpt>
      <trkpt lat="43.31882" lon="-1.70779">
        <ele>280.4</ele>
        <time>2022-05-07T07:11:54Z</time>
      </trkpt>
      <trkpt lat="43.31881" lon="-1.70776">
        <ele>280.8</ele>
        <time>2022-05-07T07:11:55Z</time>
      </trkpt>
      <trkpt lat="43.3188" lon="-1.70772">
        <ele>281.6</ele>
        <time>2022-05-07T07:11:57Z</time>
      </trkpt>
      <trkpt lat="43.31877" lon="-1.70765">
        <ele>282.8</ele>
        <time>2022-05-07T07:12:01Z</time>
      </trkpt>
      <trkpt lat="43.31875" lon="-1.70759">
        <ele>283.6</ele>
        <time>2022-05-07T07:12:04Z</time>
      </trkpt>
      <trkpt lat="43.31874" lon="-1.70757">
        <ele>284</ele>
        <time>2022-05-07T07:12:05Z</time>
      </trkpt>
      <trkpt lat="43.31871" lon="-1.70749">
        <ele>285</ele>
        <time>2022-05-07T07:12:09Z</time>
      </trkpt>
      <trkpt lat="43.31871" lon="-1.70747">
        <ele>285.4</ele>
        <time>2022-05-07T07:12:10Z</time>
      </trkpt>
      <trkpt lat="43.31871" lon="-1.70745">
        <ele>285.6</ele>
        <time>2022-05-07T07:12:11Z</time>
      </trkpt>
      <trkpt lat="43.31871" lon="-1.70743">
        <ele>286</ele>
        <time>2022-05-07T07:12:12Z</time>
      </trkpt>
      <trkpt lat="43.3187" lon="-1.70741">
        <ele>286.2</ele>
        <time>2022-05-07T07:12:13Z</time>
      </trkpt>
      <trkpt lat="43.31868" lon="-1.70736">
        <ele>287</ele>
        <time>2022-05-07T07:12:16Z</time>
      </trkpt>
      <trkpt lat="43.31867" lon="-1.70734">
        <ele>287.2</ele>
        <time>2022-05-07T07:12:17Z</time>
      </trkpt>
      <trkpt lat="43.31863" lon="-1.70725">
        <ele>288.4</ele>
        <time>2022-05-07T07:12:22Z</time>
      </trkpt>
      <trkpt lat="43.31862" lon="-1.70722">
        <ele>289</ele>
        <time>2022-05-07T07:12:24Z</time>
      </trkpt>
      <trkpt lat="43.31861" lon="-1.7072">
        <ele>289.4</ele>
        <time>2022-05-07T07:12:25Z</time>
      </trkpt>
      <trkpt lat="43.31859" lon="-1.70716">
        <ele>290.2</ele>
        <time>2022-05-07T07:12:28Z</time>
      </trkpt>
      <trkpt lat="43.31857" lon="-1.70712">
        <ele>290.8</ele>
        <time>2022-05-07T07:12:30Z</time>
      </trkpt>
      <trkpt lat="43.31854" lon="-1.70706">
        <ele>292</ele>
        <time>2022-05-07T07:12:34Z</time>
      </trkpt>
      <trkpt lat="43.31852" lon="-1.70702">
        <ele>293.2</ele>
        <time>2022-05-07T07:12:37Z</time>
      </trkpt>
      <trkpt lat="43.31848" lon="-1.70697">
        <ele>294.4</ele>
        <time>2022-05-07T07:12:41Z</time>
      </trkpt>
      <trkpt lat="43.31844" lon="-1.70691">
        <ele>295.4</ele>
        <time>2022-05-07T07:12:45Z</time>
      </trkpt>
      <trkpt lat="43.3184" lon="-1.70686">
        <ele>296.8</ele>
        <time>2022-05-07T07:12:49Z</time>
      </trkpt>
      <trkpt lat="43.31836" lon="-1.70682">
        <ele>298</ele>
        <time>2022-05-07T07:12:52Z</time>
      </trkpt>
      <trkpt lat="43.31835" lon="-1.70681">
        <ele>298.4</ele>
        <time>2022-05-07T07:12:53Z</time>
      </trkpt>
      <trkpt lat="43.31833" lon="-1.70678">
        <ele>299.4</ele>
        <time>2022-05-07T07:12:55Z</time>
      </trkpt>
      <trkpt lat="43.3183" lon="-1.70674">
        <ele>300.2</ele>
        <time>2022-05-07T07:12:58Z</time>
      </trkpt>
      <trkpt lat="43.31825" lon="-1.70668">
        <ele>301.6</ele>
        <time>2022-05-07T07:13:02Z</time>
      </trkpt>
      <trkpt lat="43.31822" lon="-1.70664">
        <ele>302.6</ele>
        <time>2022-05-07T07:13:05Z</time>
      </trkpt>
      <trkpt lat="43.31819" lon="-1.7066">
        <ele>303.6</ele>
        <time>2022-05-07T07:13:08Z</time>
      </trkpt>
      <trkpt lat="43.31818" lon="-1.70659">
        <ele>303.8</ele>
        <time>2022-05-07T07:13:09Z</time>
      </trkpt>
      <trkpt lat="43.31816" lon="-1.70656">
        <ele>304.8</ele>
        <time>2022-05-07T07:13:12Z</time>
      </trkpt>
      <trkpt lat="43.31814" lon="-1.70653">
        <ele>305.6</ele>
        <time>2022-05-07T07:13:14Z</time>
      </trkpt>
      <trkpt lat="43.31813" lon="-1.70652">
        <ele>306</ele>
        <time>2022-05-07T07:13:15Z</time>
      </trkpt>
      <trkpt lat="43.31811" lon="-1.70646">
        <ele>307</ele>
        <time>2022-05-07T07:13:19Z</time>
      </trkpt>
      <trkpt lat="43.31808" lon="-1.70642">
        <ele>307.6</ele>
        <time>2022-05-07T07:13:22Z</time>
      </trkpt>
      <trkpt lat="43.31807" lon="-1.7064">
        <ele>308.4</ele>
        <time>2022-05-07T07:13:23Z</time>
      </trkpt>
      <trkpt lat="43.31803" lon="-1.70632">
        <ele>309.4</ele>
        <time>2022-05-07T07:13:28Z</time>
      </trkpt>
      <trkpt lat="43.318" lon="-1.70629">
        <ele>310.4</ele>
        <time>2022-05-07T07:13:31Z</time>
      </trkpt>
      <trkpt lat="43.31795" lon="-1.70622">
        <ele>311.6</ele>
        <time>2022-05-07T07:13:36Z</time>
      </trkpt>
      <trkpt lat="43.31794" lon="-1.70619">
        <ele>312.4</ele>
        <time>2022-05-07T07:13:38Z</time>
      </trkpt>
      <trkpt lat="43.31792" lon="-1.70617">
        <ele>312.8</ele>
        <time>2022-05-07T07:13:40Z</time>
      </trkpt>
      <trkpt lat="43.31787" lon="-1.7061">
        <ele>313.8</ele>
        <time>2022-05-07T07:13:45Z</time>
      </trkpt>
      <trkpt lat="43.31786" lon="-1.70607">
        <ele>314.6</ele>
        <time>2022-05-07T07:13:47Z</time>
      </trkpt>
      <trkpt lat="43.31785" lon="-1.70606">
        <ele>315</ele>
        <time>2022-05-07T07:13:48Z</time>
      </trkpt>
      <trkpt lat="43.31782" lon="-1.70599">
        <ele>316</ele>
        <time>2022-05-07T07:13:52Z</time>
      </trkpt>
      <trkpt lat="43.3178" lon="-1.70597">
        <ele>317</ele>
        <time>2022-05-07T07:13:54Z</time>
      </trkpt>
      <trkpt lat="43.31779" lon="-1.70595">
        <ele>317.4</ele>
        <time>2022-05-07T07:13:55Z</time>
      </trkpt>
      <trkpt lat="43.31776" lon="-1.70591">
        <ele>318</ele>
        <time>2022-05-07T07:13:58Z</time>
      </trkpt>
      <trkpt lat="43.31771" lon="-1.70585">
        <ele>319.4</ele>
        <time>2022-05-07T07:14:03Z</time>
      </trkpt>
      <trkpt lat="43.31767" lon="-1.70579">
        <ele>320.4</ele>
        <time>2022-05-07T07:14:07Z</time>
      </trkpt>
      <trkpt lat="43.31763" lon="-1.70572">
        <ele>321.2</ele>
        <time>2022-05-07T07:14:12Z</time>
      </trkpt>
      <trkpt lat="43.3176" lon="-1.70571">
        <ele>321.6</ele>
        <time>2022-05-07T07:14:14Z</time>
      </trkpt>
      <trkpt lat="43.31753" lon="-1.70565">
        <ele>322.4</ele>
        <time>2022-05-07T07:14:19Z</time>
      </trkpt>
      <trkpt lat="43.31751" lon="-1.70564">
        <ele>322.8</ele>
        <time>2022-05-07T07:14:20Z</time>
      </trkpt>
      <trkpt lat="43.31739" lon="-1.70559">
        <ele>324</ele>
        <time>2022-05-07T07:14:28Z</time>
      </trkpt>
      <trkpt lat="43.31734" lon="-1.70559">
        <ele>325.2</ele>
        <time>2022-05-07T07:14:32Z</time>
      </trkpt>
      <trkpt lat="43.3173" lon="-1.70561">
        <ele>326.2</ele>
        <time>2022-05-07T07:14:35Z</time>
      </trkpt>
      <trkpt lat="43.31729" lon="-1.70562">
        <ele>326.4</ele>
        <time>2022-05-07T07:14:36Z</time>
      </trkpt>
      <trkpt lat="43.31725" lon="-1.70566">
        <ele>327.4</ele>
        <time>2022-05-07T07:14:39Z</time>
      </trkpt>
      <trkpt lat="43.3172" lon="-1.70573">
        <ele>328.4</ele>
        <time>2022-05-07T07:14:44Z</time>
      </trkpt>
      <trkpt lat="43.31719" lon="-1.70575">
        <ele>328.6</ele>
        <time>2022-05-07T07:14:45Z</time>
      </trkpt>
      <trkpt lat="43.31717" lon="-1.70582">
        <ele>329.8</ele>
        <time>2022-05-07T07:14:49Z</time>
      </trkpt>
      <trkpt lat="43.31714" lon="-1.70586">
        <ele>330.2</ele>
        <time>2022-05-07T07:14:52Z</time>
      </trkpt>
      <trkpt lat="43.31713" lon="-1.7059">
        <ele>330.8</ele>
        <time>2022-05-07T07:14:54Z</time>
      </trkpt>
      <trkpt lat="43.3171" lon="-1.70596">
        <ele>332</ele>
        <time>2022-05-07T07:14:58Z</time>
      </trkpt>
      <trkpt lat="43.31709" lon="-1.70598">
        <ele>332.2</ele>
        <time>2022-05-07T07:14:59Z</time>
      </trkpt>
      <trkpt lat="43.31707" lon="-1.70605">
        <ele>333</ele>
        <time>2022-05-07T07:15:03Z</time>
      </trkpt>
      <trkpt lat="43.31706" lon="-1.70607">
        <ele>333.4</ele>
        <time>2022-05-07T07:15:04Z</time>
      </trkpt>
      <trkpt lat="43.31706" lon="-1.7061">
        <ele>333.6</ele>
        <time>2022-05-07T07:15:06Z</time>
      </trkpt>
      <trkpt lat="43.31703" lon="-1.70614">
        <ele>334</ele>
        <time>2022-05-07T07:15:09Z</time>
      </trkpt>
      <trkpt lat="43.31702" lon="-1.70616">
        <ele>334.2</ele>
        <time>2022-05-07T07:15:10Z</time>
      </trkpt>
      <trkpt lat="43.31699" lon="-1.7063">
        <ele>335.2</ele>
        <time>2022-05-07T07:15:17Z</time>
      </trkpt>
      <trkpt lat="43.31698" lon="-1.70632">
        <ele>335.4</ele>
        <time>2022-05-07T07:15:18Z</time>
      </trkpt>
      <trkpt lat="43.31694" lon="-1.70647">
        <ele>336.6</ele>
        <time>2022-05-07T07:15:26Z</time>
      </trkpt>
      <trkpt lat="43.31693" lon="-1.70649">
        <ele>336.8</ele>
        <time>2022-05-07T07:15:27Z</time>
      </trkpt>
      <trkpt lat="43.31688" lon="-1.70661">
        <ele>337.4</ele>
        <time>2022-05-07T07:15:35Z</time>
      </trkpt>
      <trkpt lat="43.31687" lon="-1.70662">
        <ele>337.6</ele>
        <time>2022-05-07T07:15:36Z</time>
      </trkpt>
      <trkpt lat="43.31683" lon="-1.70668">
        <ele>337.6</ele>
        <time>2022-05-07T07:15:41Z</time>
      </trkpt>
      <trkpt lat="43.31674" lon="-1.70681">
        <ele>337.4</ele>
        <time>2022-05-07T07:15:47Z</time>
      </trkpt>
      <trkpt lat="43.31663" lon="-1.7069">
        <ele>336.4</ele>
        <time>2022-05-07T07:15:52Z</time>
      </trkpt>
      <trkpt lat="43.31661" lon="-1.7069">
        <ele>336.4</ele>
        <time>2022-05-07T07:15:53Z</time>
      </trkpt>
      <trkpt lat="43.31652" lon="-1.70692">
        <ele>335.6</ele>
        <time>2022-05-07T07:15:58Z</time>
      </trkpt>
      <trkpt lat="43.31652" lon="-1.70692">
        <ele>335.4</ele>
        <time>2022-05-07T07:15:59Z</time>
      </trkpt>
      <trkpt lat="43.31652" lon="-1.70692">
        <ele>335</ele>
        <time>2022-05-07T07:16:03Z</time>
      </trkpt>
      <trkpt lat="43.31652" lon="-1.70692">
        <ele>334.6</ele>
        <time>2022-05-07T07:16:21Z</time>
      </trkpt>
      <trkpt lat="43.31652" lon="-1.70692">
        <ele>334.4</ele>
        <time>2022-05-07T07:17:09Z</time>
      </trkpt>
      <trkpt lat="43.31649" lon="-1.7069">
        <ele>334.4</ele>
        <time>2022-05-07T07:19:35Z</time>
      </trkpt>
      <trkpt lat="43.31647" lon="-1.70688">
        <ele>334.4</ele>
        <time>2022-05-07T07:19:37Z</time>
      </trkpt>
      <trkpt lat="43.3164" lon="-1.70682">
        <ele>334.6</ele>
        <time>2022-05-07T07:19:43Z</time>
      </trkpt>
      <trkpt lat="43.31631" lon="-1.70673">
        <ele>335.2</ele>
        <time>2022-05-07T07:19:50Z</time>
      </trkpt>
      <trkpt lat="43.31629" lon="-1.7067">
        <ele>335.6</ele>
        <time>2022-05-07T07:19:52Z</time>
      </trkpt>
      <trkpt lat="43.31623" lon="-1.70661">
        <ele>336.2</ele>
        <time>2022-05-07T07:19:58Z</time>
      </trkpt>
      <trkpt lat="43.31622" lon="-1.70659">
        <ele>336.4</ele>
        <time>2022-05-07T07:19:59Z</time>
      </trkpt>
      <trkpt lat="43.31614" lon="-1.70651">
        <ele>337.4</ele>
        <time>2022-05-07T07:20:06Z</time>
      </trkpt>
      <trkpt lat="43.31613" lon="-1.7065">
        <ele>337.4</ele>
        <time>2022-05-07T07:20:07Z</time>
      </trkpt>
      <trkpt lat="43.31608" lon="-1.70644">
        <ele>338.4</ele>
        <time>2022-05-07T07:20:12Z</time>
      </trkpt>
      <trkpt lat="43.31607" lon="-1.70643">
        <ele>338.6</ele>
        <time>2022-05-07T07:20:13Z</time>
      </trkpt>
      <trkpt lat="43.31604" lon="-1.70641">
        <ele>339.4</ele>
        <time>2022-05-07T07:20:16Z</time>
      </trkpt>
      <trkpt lat="43.31597" lon="-1.70636">
        <ele>340.6</ele>
        <time>2022-05-07T07:20:22Z</time>
      </trkpt>
      <trkpt lat="43.31593" lon="-1.70635">
        <ele>341.8</ele>
        <time>2022-05-07T07:20:25Z</time>
      </trkpt>
      <trkpt lat="43.31584" lon="-1.70631">
        <ele>342.6</ele>
        <time>2022-05-07T07:20:31Z</time>
      </trkpt>
      <trkpt lat="43.31582" lon="-1.7063">
        <ele>342.8</ele>
        <time>2022-05-07T07:20:32Z</time>
      </trkpt>
      <trkpt lat="43.31571" lon="-1.70625">
        <ele>344</ele>
        <time>2022-05-07T07:20:40Z</time>
      </trkpt>
      <trkpt lat="43.31568" lon="-1.70623">
        <ele>344.4</ele>
        <time>2022-05-07T07:20:42Z</time>
      </trkpt>
      <trkpt lat="43.31559" lon="-1.7062">
        <ele>345.2</ele>
        <time>2022-05-07T07:20:48Z</time>
      </trkpt>
      <trkpt lat="43.31556" lon="-1.70619">
        <ele>345.4</ele>
        <time>2022-05-07T07:20:50Z</time>
      </trkpt>
      <trkpt lat="43.31548" lon="-1.70615">
        <ele>346.2</ele>
        <time>2022-05-07T07:20:56Z</time>
      </trkpt>
      <trkpt lat="43.31544" lon="-1.70614">
        <ele>346.6</ele>
        <time>2022-05-07T07:20:59Z</time>
      </trkpt>
      <trkpt lat="43.31539" lon="-1.7061">
        <ele>347.4</ele>
        <time>2022-05-07T07:21:03Z</time>
      </trkpt>
      <trkpt lat="43.31533" lon="-1.70606">
        <ele>348.8</ele>
        <time>2022-05-07T07:21:08Z</time>
      </trkpt>
      <trkpt lat="43.31527" lon="-1.70603">
        <ele>349.8</ele>
        <time>2022-05-07T07:21:13Z</time>
      </trkpt>
      <trkpt lat="43.31521" lon="-1.70599">
        <ele>351.2</ele>
        <time>2022-05-07T07:21:18Z</time>
      </trkpt>
      <trkpt lat="43.3152" lon="-1.70598">
        <ele>351.4</ele>
        <time>2022-05-07T07:21:19Z</time>
      </trkpt>
      <trkpt lat="43.31517" lon="-1.70595">
        <ele>352.2</ele>
        <time>2022-05-07T07:21:22Z</time>
      </trkpt>
      <trkpt lat="43.31512" lon="-1.70592">
        <ele>353.2</ele>
        <time>2022-05-07T07:21:26Z</time>
      </trkpt>
      <trkpt lat="43.31511" lon="-1.70591">
        <ele>353.6</ele>
        <time>2022-05-07T07:21:27Z</time>
      </trkpt>
      <trkpt lat="43.31508" lon="-1.70587">
        <ele>354.8</ele>
        <time>2022-05-07T07:21:31Z</time>
      </trkpt>
      <trkpt lat="43.31506" lon="-1.70584">
        <ele>355.4</ele>
        <time>2022-05-07T07:21:33Z</time>
      </trkpt>
      <trkpt lat="43.31505" lon="-1.70583">
        <ele>356.2</ele>
        <time>2022-05-07T07:21:35Z</time>
      </trkpt>
      <trkpt lat="43.31502" lon="-1.70579">
        <ele>357.6</ele>
        <time>2022-05-07T07:21:39Z</time>
      </trkpt>
      <trkpt lat="43.31501" lon="-1.70577">
        <ele>357.8</ele>
        <time>2022-05-07T07:21:40Z</time>
      </trkpt>
      <trkpt lat="43.31499" lon="-1.70574">
        <ele>358.8</ele>
        <time>2022-05-07T07:21:43Z</time>
      </trkpt>
      <trkpt lat="43.31496" lon="-1.70568">
        <ele>360.2</ele>
        <time>2022-05-07T07:21:47Z</time>
      </trkpt>
      <trkpt lat="43.31496" lon="-1.70561">
        <ele>361.2</ele>
        <time>2022-05-07T07:21:51Z</time>
      </trkpt>
      <trkpt lat="43.31496" lon="-1.70557">
        <ele>362</ele>
        <time>2022-05-07T07:21:54Z</time>
      </trkpt>
      <trkpt lat="43.31494" lon="-1.70554">
        <ele>362.4</ele>
        <time>2022-05-07T07:21:56Z</time>
      </trkpt>
      <trkpt lat="43.31491" lon="-1.70546">
        <ele>363.8</ele>
        <time>2022-05-07T07:22:02Z</time>
      </trkpt>
      <trkpt lat="43.31487" lon="-1.70539">
        <ele>365</ele>
        <time>2022-05-07T07:22:07Z</time>
      </trkpt>
      <trkpt lat="43.31486" lon="-1.70536">
        <ele>365.4</ele>
        <time>2022-05-07T07:22:09Z</time>
      </trkpt>
      <trkpt lat="43.31484" lon="-1.70529">
        <ele>366</ele>
        <time>2022-05-07T07:22:13Z</time>
      </trkpt>
      <trkpt lat="43.31481" lon="-1.70522">
        <ele>367.2</ele>
        <time>2022-05-07T07:22:18Z</time>
      </trkpt>
      <trkpt lat="43.31481" lon="-1.7052">
        <ele>367.6</ele>
        <time>2022-05-07T07:22:19Z</time>
      </trkpt>
      <trkpt lat="43.31479" lon="-1.70516">
        <ele>368.4</ele>
        <time>2022-05-07T07:22:22Z</time>
      </trkpt>
      <trkpt lat="43.31477" lon="-1.70509">
        <ele>369.6</ele>
        <time>2022-05-07T07:22:26Z</time>
      </trkpt>
      <trkpt lat="43.31476" lon="-1.70505">
        <ele>370.2</ele>
        <time>2022-05-07T07:22:28Z</time>
      </trkpt>
      <trkpt lat="43.31473" lon="-1.70498">
        <ele>371</ele>
        <time>2022-05-07T07:22:32Z</time>
      </trkpt>
      <trkpt lat="43.31471" lon="-1.70492">
        <ele>372</ele>
        <time>2022-05-07T07:22:36Z</time>
      </trkpt>
      <trkpt lat="43.31468" lon="-1.70487">
        <ele>373</ele>
        <time>2022-05-07T07:22:40Z</time>
      </trkpt>
      <trkpt lat="43.31466" lon="-1.70483">
        <ele>373.8</ele>
        <time>2022-05-07T07:22:43Z</time>
      </trkpt>
      <trkpt lat="43.31465" lon="-1.70482">
        <ele>374.2</ele>
        <time>2022-05-07T07:22:44Z</time>
      </trkpt>
      <trkpt lat="43.31464" lon="-1.70481">
        <ele>374.6</ele>
        <time>2022-05-07T07:22:45Z</time>
      </trkpt>
      <trkpt lat="43.31461" lon="-1.70478">
        <ele>375.4</ele>
        <time>2022-05-07T07:22:48Z</time>
      </trkpt>
      <trkpt lat="43.31456" lon="-1.70473">
        <ele>376.6</ele>
        <time>2022-05-07T07:22:53Z</time>
      </trkpt>
      <trkpt lat="43.31455" lon="-1.70473">
        <ele>376.6</ele>
        <time>2022-05-07T07:22:54Z</time>
      </trkpt>
      <trkpt lat="43.31452" lon="-1.7047">
        <ele>377.8</ele>
        <time>2022-05-07T07:22:57Z</time>
      </trkpt>
      <trkpt lat="43.31449" lon="-1.70466">
        <ele>378.4</ele>
        <time>2022-05-07T07:23:00Z</time>
      </trkpt>
      <trkpt lat="43.31446" lon="-1.70464">
        <ele>379</ele>
        <time>2022-05-07T07:23:02Z</time>
      </trkpt>
      <trkpt lat="43.31443" lon="-1.70461">
        <ele>379.8</ele>
        <time>2022-05-07T07:23:05Z</time>
      </trkpt>
      <trkpt lat="43.31442" lon="-1.7046">
        <ele>380.2</ele>
        <time>2022-05-07T07:23:06Z</time>
      </trkpt>
      <trkpt lat="43.3144" lon="-1.7046">
        <ele>380.4</ele>
        <time>2022-05-07T07:23:07Z</time>
      </trkpt>
      <trkpt lat="43.31433" lon="-1.7046">
        <ele>381.8</ele>
        <time>2022-05-07T07:23:12Z</time>
      </trkpt>
      <trkpt lat="43.31432" lon="-1.7046">
        <ele>382</ele>
        <time>2022-05-07T07:23:13Z</time>
      </trkpt>
      <trkpt lat="43.31431" lon="-1.70459">
        <ele>382.4</ele>
        <time>2022-05-07T07:23:14Z</time>
      </trkpt>
      <trkpt lat="43.31429" lon="-1.70457">
        <ele>383</ele>
        <time>2022-05-07T07:23:16Z</time>
      </trkpt>
      <trkpt lat="43.31425" lon="-1.70455">
        <ele>383.8</ele>
        <time>2022-05-07T07:23:19Z</time>
      </trkpt>
      <trkpt lat="43.31424" lon="-1.70454">
        <ele>384</ele>
        <time>2022-05-07T07:23:20Z</time>
      </trkpt>
      <trkpt lat="43.31421" lon="-1.70448">
        <ele>385.2</ele>
        <time>2022-05-07T07:23:24Z</time>
      </trkpt>
      <trkpt lat="43.3142" lon="-1.70447">
        <ele>385.4</ele>
        <time>2022-05-07T07:23:25Z</time>
      </trkpt>
      <trkpt lat="43.31416" lon="-1.70443">
        <ele>386.6</ele>
        <time>2022-05-07T07:23:29Z</time>
      </trkpt>
      <trkpt lat="43.31415" lon="-1.7044">
        <ele>387.2</ele>
        <time>2022-05-07T07:23:31Z</time>
      </trkpt>
      <trkpt lat="43.31413" lon="-1.70437">
        <ele>387.8</ele>
        <time>2022-05-07T07:23:33Z</time>
      </trkpt>
      <trkpt lat="43.31409" lon="-1.70431">
        <ele>388.8</ele>
        <time>2022-05-07T07:23:38Z</time>
      </trkpt>
      <trkpt lat="43.31406" lon="-1.70425">
        <ele>390</ele>
        <time>2022-05-07T07:23:42Z</time>
      </trkpt>
      <trkpt lat="43.31402" lon="-1.7042">
        <ele>391.2</ele>
        <time>2022-05-07T07:23:46Z</time>
      </trkpt>
      <trkpt lat="43.314" lon="-1.70417">
        <ele>391.8</ele>
        <time>2022-05-07T07:23:48Z</time>
      </trkpt>
      <trkpt lat="43.31399" lon="-1.70417">
        <ele>392.2</ele>
        <time>2022-05-07T07:23:49Z</time>
      </trkpt>
      <trkpt lat="43.31398" lon="-1.70416">
        <ele>392.6</ele>
        <time>2022-05-07T07:23:50Z</time>
      </trkpt>
      <trkpt lat="43.31396" lon="-1.70411">
        <ele>393.2</ele>
        <time>2022-05-07T07:23:53Z</time>
      </trkpt>
      <trkpt lat="43.31395" lon="-1.7041">
        <ele>394</ele>
        <time>2022-05-07T07:23:54Z</time>
      </trkpt>
      <trkpt lat="43.31393" lon="-1.70408">
        <ele>394.6</ele>
        <time>2022-05-07T07:23:56Z</time>
      </trkpt>
      <trkpt lat="43.3139" lon="-1.70402">
        <ele>396</ele>
        <time>2022-05-07T07:24:00Z</time>
      </trkpt>
      <trkpt lat="43.31387" lon="-1.70397">
        <ele>397</ele>
        <time>2022-05-07T07:24:03Z</time>
      </trkpt>
      <trkpt lat="43.31385" lon="-1.70393">
        <ele>398.2</ele>
        <time>2022-05-07T07:24:06Z</time>
      </trkpt>
      <trkpt lat="43.31384" lon="-1.70391">
        <ele>398.8</ele>
        <time>2022-05-07T07:24:07Z</time>
      </trkpt>
      <trkpt lat="43.31384" lon="-1.7039">
        <ele>399</ele>
        <time>2022-05-07T07:24:08Z</time>
      </trkpt>
      <trkpt lat="43.31384" lon="-1.70386">
        <ele>400</ele>
        <time>2022-05-07T07:24:10Z</time>
      </trkpt>
      <trkpt lat="43.31383" lon="-1.70382">
        <ele>400.6</ele>
        <time>2022-05-07T07:24:12Z</time>
      </trkpt>
      <trkpt lat="43.31382" lon="-1.70381">
        <ele>401</ele>
        <time>2022-05-07T07:24:13Z</time>
      </trkpt>
      <trkpt lat="43.31379" lon="-1.70375">
        <ele>402.4</ele>
        <time>2022-05-07T07:24:17Z</time>
      </trkpt>
      <trkpt lat="43.31376" lon="-1.7037">
        <ele>403.6</ele>
        <time>2022-05-07T07:24:20Z</time>
      </trkpt>
      <trkpt lat="43.31375" lon="-1.70369">
        <ele>404</ele>
        <time>2022-05-07T07:24:21Z</time>
      </trkpt>
      <trkpt lat="43.31373" lon="-1.70364">
        <ele>405</ele>
        <time>2022-05-07T07:24:24Z</time>
      </trkpt>
      <trkpt lat="43.3137" lon="-1.70358">
        <ele>406.6</ele>
        <time>2022-05-07T07:24:28Z</time>
      </trkpt>
      <trkpt lat="43.31369" lon="-1.70357">
        <ele>406.8</ele>
        <time>2022-05-07T07:24:29Z</time>
      </trkpt>
      <trkpt lat="43.31368" lon="-1.70354">
        <ele>407.8</ele>
        <time>2022-05-07T07:24:31Z</time>
      </trkpt>
      <trkpt lat="43.31365" lon="-1.70352">
        <ele>408.8</ele>
        <time>2022-05-07T07:24:34Z</time>
      </trkpt>
      <trkpt lat="43.31364" lon="-1.70351">
        <ele>409.2</ele>
        <time>2022-05-07T07:24:35Z</time>
      </trkpt>
      <trkpt lat="43.31364" lon="-1.70349">
        <ele>409.6</ele>
        <time>2022-05-07T07:24:36Z</time>
      </trkpt>
      <trkpt lat="43.31364" lon="-1.70348">
        <ele>410</ele>
        <time>2022-05-07T07:24:37Z</time>
      </trkpt>
      <trkpt lat="43.31364" lon="-1.70347">
        <ele>411.2</ele>
        <time>2022-05-07T07:24:40Z</time>
      </trkpt>
      <trkpt lat="43.31364" lon="-1.70347">
        <ele>412</ele>
        <time>2022-05-07T07:24:42Z</time>
      </trkpt>
      <trkpt lat="43.31364" lon="-1.70347">
        <ele>412.2</ele>
        <time>2022-05-07T07:24:44Z</time>
      </trkpt>
      <trkpt lat="43.31363" lon="-1.70346">
        <ele>413</ele>
        <time>2022-05-07T07:25:18Z</time>
      </trkpt>
      <trkpt lat="43.31363" lon="-1.70345">
        <ele>413.2</ele>
        <time>2022-05-07T07:25:20Z</time>
      </trkpt>
      <trkpt lat="43.31363" lon="-1.70345">
        <ele>414</ele>
        <time>2022-05-07T07:25:29Z</time>
      </trkpt>
      <trkpt lat="43.31362" lon="-1.70344">
        <ele>414.4</ele>
        <time>2022-05-07T07:26:00Z</time>
      </trkpt>
      <trkpt lat="43.31361" lon="-1.70343">
        <ele>415.8</ele>
        <time>2022-05-07T07:26:07Z</time>
      </trkpt>
      <trkpt lat="43.31359" lon="-1.7034">
        <ele>416.8</ele>
        <time>2022-05-07T07:26:17Z</time>
      </trkpt>
      <trkpt lat="43.31358" lon="-1.70336">
        <ele>417.4</ele>
        <time>2022-05-07T07:26:22Z</time>
      </trkpt>
      <trkpt lat="43.31358" lon="-1.70335">
        <ele>418</ele>
        <time>2022-05-07T07:26:27Z</time>
      </trkpt>
      <trkpt lat="43.31355" lon="-1.70327">
        <ele>418.8</ele>
        <time>2022-05-07T07:26:32Z</time>
      </trkpt>
      <trkpt lat="43.31354" lon="-1.70324">
        <ele>419</ele>
        <time>2022-05-07T07:26:34Z</time>
      </trkpt>
      <trkpt lat="43.31351" lon="-1.70317">
        <ele>420</ele>
        <time>2022-05-07T07:26:40Z</time>
      </trkpt>
      <trkpt lat="43.3135" lon="-1.70315">
        <ele>420.4</ele>
        <time>2022-05-07T07:26:42Z</time>
      </trkpt>
      <trkpt lat="43.3135" lon="-1.70315">
        <ele>421</ele>
        <time>2022-05-07T07:26:49Z</time>
      </trkpt>
      <trkpt lat="43.3135" lon="-1.70315">
        <ele>421</ele>
        <time>2022-05-07T07:26:50Z</time>
      </trkpt>
      <trkpt lat="43.31346" lon="-1.7031">
        <ele>421.6</ele>
        <time>2022-05-07T07:27:03Z</time>
      </trkpt>
      <trkpt lat="43.31344" lon="-1.70305">
        <ele>422.4</ele>
        <time>2022-05-07T07:27:07Z</time>
      </trkpt>
      <trkpt lat="43.31342" lon="-1.70302">
        <ele>423.4</ele>
        <time>2022-05-07T07:27:13Z</time>
      </trkpt>
      <trkpt lat="43.31342" lon="-1.70302">
        <ele>423.4</ele>
        <time>2022-05-07T07:27:14Z</time>
      </trkpt>
      <trkpt lat="43.3134" lon="-1.70295">
        <ele>424.2</ele>
        <time>2022-05-07T07:27:21Z</time>
      </trkpt>
      <trkpt lat="43.31339" lon="-1.70292">
        <ele>424.6</ele>
        <time>2022-05-07T07:27:24Z</time>
      </trkpt>
      <trkpt lat="43.31336" lon="-1.70287">
        <ele>425.6</ele>
        <time>2022-05-07T07:27:31Z</time>
      </trkpt>
      <trkpt lat="43.31336" lon="-1.70286">
        <ele>425.8</ele>
        <time>2022-05-07T07:27:32Z</time>
      </trkpt>
      <trkpt lat="43.31334" lon="-1.70281">
        <ele>426.8</ele>
        <time>2022-05-07T07:27:39Z</time>
      </trkpt>
      <trkpt lat="43.31333" lon="-1.7028">
        <ele>427.2</ele>
        <time>2022-05-07T07:27:41Z</time>
      </trkpt>
      <trkpt lat="43.31332" lon="-1.70277">
        <ele>427.8</ele>
        <time>2022-05-07T07:27:47Z</time>
      </trkpt>
      <trkpt lat="43.31331" lon="-1.70276">
        <ele>429</ele>
        <time>2022-05-07T07:27:53Z</time>
      </trkpt>
      <trkpt lat="43.31331" lon="-1.70276">
        <ele>429</ele>
        <time>2022-05-07T07:27:55Z</time>
      </trkpt>
      <trkpt lat="43.31331" lon="-1.70276">
        <ele>430.2</ele>
        <time>2022-05-07T07:28:09Z</time>
      </trkpt>
      <trkpt lat="43.3133" lon="-1.70271">
        <ele>431.2</ele>
        <time>2022-05-07T07:28:20Z</time>
      </trkpt>
      <trkpt lat="43.31328" lon="-1.70265">
        <ele>432.2</ele>
        <time>2022-05-07T07:28:27Z</time>
      </trkpt>
      <trkpt lat="43.31326" lon="-1.70261">
        <ele>433.4</ele>
        <time>2022-05-07T07:28:35Z</time>
      </trkpt>
      <trkpt lat="43.31325" lon="-1.70256">
        <ele>434.4</ele>
        <time>2022-05-07T07:28:43Z</time>
      </trkpt>
      <trkpt lat="43.31323" lon="-1.70251">
        <ele>435.6</ele>
        <time>2022-05-07T07:28:52Z</time>
      </trkpt>
      <trkpt lat="43.31321" lon="-1.70248">
        <ele>436.6</ele>
        <time>2022-05-07T07:29:00Z</time>
      </trkpt>
      <trkpt lat="43.3132" lon="-1.70245">
        <ele>437.8</ele>
        <time>2022-05-07T07:29:10Z</time>
      </trkpt>
      <trkpt lat="43.3132" lon="-1.70244">
        <ele>438.2</ele>
        <time>2022-05-07T07:29:13Z</time>
      </trkpt>
      <trkpt lat="43.31319" lon="-1.70242">
        <ele>439</ele>
        <time>2022-05-07T07:29:20Z</time>
      </trkpt>
      <trkpt lat="43.31316" lon="-1.70236">
        <ele>439.8</ele>
        <time>2022-05-07T07:29:36Z</time>
      </trkpt>
      <trkpt lat="43.31316" lon="-1.70236">
        <ele>440.2</ele>
        <time>2022-05-07T07:29:38Z</time>
      </trkpt>
      <trkpt lat="43.31315" lon="-1.70235">
        <ele>441.2</ele>
        <time>2022-05-07T07:29:45Z</time>
      </trkpt>
      <trkpt lat="43.31313" lon="-1.70231">
        <ele>442.2</ele>
        <time>2022-05-07T07:29:50Z</time>
      </trkpt>
      <trkpt lat="43.3131" lon="-1.70226">
        <ele>443.4</ele>
        <time>2022-05-07T07:30:00Z</time>
      </trkpt>
      <trkpt lat="43.31308" lon="-1.70223">
        <ele>444.4</ele>
        <time>2022-05-07T07:30:09Z</time>
      </trkpt>
      <trkpt lat="43.31307" lon="-1.70222">
        <ele>445</ele>
        <time>2022-05-07T07:30:13Z</time>
      </trkpt>
      <trkpt lat="43.31306" lon="-1.70218">
        <ele>445.6</ele>
        <time>2022-05-07T07:30:21Z</time>
      </trkpt>
      <trkpt lat="43.31305" lon="-1.70214">
        <ele>446.8</ele>
        <time>2022-05-07T07:30:31Z</time>
      </trkpt>
      <trkpt lat="43.31303" lon="-1.7021">
        <ele>448</ele>
        <time>2022-05-07T07:30:57Z</time>
      </trkpt>
      <trkpt lat="43.31303" lon="-1.7021">
        <ele>449</ele>
        <time>2022-05-07T07:31:04Z</time>
      </trkpt>
      <trkpt lat="43.313" lon="-1.70207">
        <ele>450.2</ele>
        <time>2022-05-07T07:31:12Z</time>
      </trkpt>
      <trkpt lat="43.31298" lon="-1.70203">
        <ele>451.2</ele>
        <time>2022-05-07T07:31:20Z</time>
      </trkpt>
      <trkpt lat="43.31297" lon="-1.702">
        <ele>452.4</ele>
        <time>2022-05-07T07:31:27Z</time>
      </trkpt>
      <trkpt lat="43.31295" lon="-1.70196">
        <ele>453.4</ele>
        <time>2022-05-07T07:31:45Z</time>
      </trkpt>
      <trkpt lat="43.31295" lon="-1.70195">
        <ele>454.6</ele>
        <time>2022-05-07T07:31:53Z</time>
      </trkpt>
      <trkpt lat="43.31294" lon="-1.70193">
        <ele>455.8</ele>
        <time>2022-05-07T07:32:02Z</time>
      </trkpt>
      <trkpt lat="43.31292" lon="-1.7019">
        <ele>456.8</ele>
        <time>2022-05-07T07:32:11Z</time>
      </trkpt>
      <trkpt lat="43.31291" lon="-1.70187">
        <ele>458</ele>
        <time>2022-05-07T07:32:19Z</time>
      </trkpt>
      <trkpt lat="43.31288" lon="-1.70182">
        <ele>459</ele>
        <time>2022-05-07T07:32:32Z</time>
      </trkpt>
      <trkpt lat="43.31287" lon="-1.7018">
        <ele>460.2</ele>
        <time>2022-05-07T07:32:51Z</time>
      </trkpt>
      <trkpt lat="43.31287" lon="-1.7018">
        <ele>461.4</ele>
        <time>2022-05-07T07:32:57Z</time>
      </trkpt>
      <trkpt lat="43.31287" lon="-1.70179">
        <ele>462.4</ele>
        <time>2022-05-07T07:33:12Z</time>
      </trkpt>
      <trkpt lat="43.31284" lon="-1.70172">
        <ele>463.6</ele>
        <time>2022-05-07T07:33:23Z</time>
      </trkpt>
      <trkpt lat="43.31283" lon="-1.70169">
        <ele>463.6</ele>
        <time>2022-05-07T07:33:24Z</time>
      </trkpt>
      <trkpt lat="43.31277" lon="-1.70155">
        <ele>464.8</ele>
        <time>2022-05-07T07:33:33Z</time>
      </trkpt>
      <trkpt lat="43.31273" lon="-1.70149">
        <ele>466</ele>
        <time>2022-05-07T07:33:40Z</time>
      </trkpt>
      <trkpt lat="43.31273" lon="-1.70149">
        <ele>467.2</ele>
        <time>2022-05-07T07:33:45Z</time>
      </trkpt>
      <trkpt lat="43.31273" lon="-1.70149">
        <ele>467.4</ele>
        <time>2022-05-07T07:33:46Z</time>
      </trkpt>
      <trkpt lat="43.31271" lon="-1.70147">
        <ele>468.4</ele>
        <time>2022-05-07T07:33:52Z</time>
      </trkpt>
      <trkpt lat="43.31266" lon="-1.70143">
        <ele>469.4</ele>
        <time>2022-05-07T07:33:56Z</time>
      </trkpt>
      <trkpt lat="43.31264" lon="-1.70141">
        <ele>469.6</ele>
        <time>2022-05-07T07:33:58Z</time>
      </trkpt>
      <trkpt lat="43.31258" lon="-1.70135">
        <ele>470.8</ele>
        <time>2022-05-07T07:34:05Z</time>
      </trkpt>
      <trkpt lat="43.31258" lon="-1.70135">
        <ele>471.8</ele>
        <time>2022-05-07T07:34:13Z</time>
      </trkpt>
      <trkpt lat="43.31258" lon="-1.70135">
        <ele>471.8</ele>
        <time>2022-05-07T07:34:14Z</time>
      </trkpt>
      <trkpt lat="43.31255" lon="-1.70133">
        <ele>472.2</ele>
        <time>2022-05-07T07:34:22Z</time>
      </trkpt>
      <trkpt lat="43.31254" lon="-1.70131">
        <ele>472.2</ele>
        <time>2022-05-07T07:34:23Z</time>
      </trkpt>
      <trkpt lat="43.31247" lon="-1.70126">
        <ele>472.8</ele>
        <time>2022-05-07T07:34:28Z</time>
      </trkpt>
      <trkpt lat="43.31244" lon="-1.70123">
        <ele>473.4</ele>
        <time>2022-05-07T07:34:31Z</time>
      </trkpt>
      <trkpt lat="43.31243" lon="-1.70123">
        <ele>474</ele>
        <time>2022-05-07T07:34:32Z</time>
      </trkpt>
      <trkpt lat="43.31242" lon="-1.70122">
        <ele>474.2</ele>
        <time>2022-05-07T07:34:33Z</time>
      </trkpt>
      <trkpt lat="43.3124" lon="-1.70118">
        <ele>475.2</ele>
        <time>2022-05-07T07:34:36Z</time>
      </trkpt>
      <trkpt lat="43.31237" lon="-1.70116">
        <ele>475.8</ele>
        <time>2022-05-07T07:34:38Z</time>
      </trkpt>
      <trkpt lat="43.31236" lon="-1.70115">
        <ele>476.2</ele>
        <time>2022-05-07T07:34:39Z</time>
      </trkpt>
      <trkpt lat="43.31232" lon="-1.70111">
        <ele>477.2</ele>
        <time>2022-05-07T07:34:43Z</time>
      </trkpt>
      <trkpt lat="43.3123" lon="-1.70109">
        <ele>478</ele>
        <time>2022-05-07T07:34:45Z</time>
      </trkpt>
      <trkpt lat="43.31227" lon="-1.70107">
        <ele>478.6</ele>
        <time>2022-05-07T07:34:47Z</time>
      </trkpt>
      <trkpt lat="43.31225" lon="-1.70105">
        <ele>479.8</ele>
        <time>2022-05-07T07:34:51Z</time>
      </trkpt>
      <trkpt lat="43.31221" lon="-1.70101">
        <ele>480.4</ele>
        <time>2022-05-07T07:34:54Z</time>
      </trkpt>
      <trkpt lat="43.3122" lon="-1.701">
        <ele>480.8</ele>
        <time>2022-05-07T07:34:55Z</time>
      </trkpt>
      <trkpt lat="43.31217" lon="-1.70096">
        <ele>482</ele>
        <time>2022-05-07T07:34:58Z</time>
      </trkpt>
      <trkpt lat="43.31216" lon="-1.70096">
        <ele>482</ele>
        <time>2022-05-07T07:34:59Z</time>
      </trkpt>
      <trkpt lat="43.31213" lon="-1.70092">
        <ele>483</ele>
        <time>2022-05-07T07:35:02Z</time>
      </trkpt>
      <trkpt lat="43.31212" lon="-1.70091">
        <ele>483.2</ele>
        <time>2022-05-07T07:35:03Z</time>
      </trkpt>
      <trkpt lat="43.3121" lon="-1.70088">
        <ele>484.2</ele>
        <time>2022-05-07T07:35:06Z</time>
      </trkpt>
      <trkpt lat="43.31207" lon="-1.70086">
        <ele>485</ele>
        <time>2022-05-07T07:35:09Z</time>
      </trkpt>
      <trkpt lat="43.31206" lon="-1.70086">
        <ele>485.4</ele>
        <time>2022-05-07T07:35:10Z</time>
      </trkpt>
      <trkpt lat="43.31202" lon="-1.70082">
        <ele>486.8</ele>
        <time>2022-05-07T07:35:14Z</time>
      </trkpt>
      <trkpt lat="43.31199" lon="-1.70079">
        <ele>488.4</ele>
        <time>2022-05-07T07:35:19Z</time>
      </trkpt>
      <trkpt lat="43.31197" lon="-1.70076">
        <ele>488.8</ele>
        <time>2022-05-07T07:35:21Z</time>
      </trkpt>
      <trkpt lat="43.31195" lon="-1.70073">
        <ele>489.4</ele>
        <time>2022-05-07T07:35:23Z</time>
      </trkpt>
      <trkpt lat="43.31192" lon="-1.70069">
        <ele>490.4</ele>
        <time>2022-05-07T07:35:27Z</time>
      </trkpt>
      <trkpt lat="43.31189" lon="-1.70065">
        <ele>491.4</ele>
        <time>2022-05-07T07:35:30Z</time>
      </trkpt>
      <trkpt lat="43.31188" lon="-1.70064">
        <ele>491.8</ele>
        <time>2022-05-07T07:35:31Z</time>
      </trkpt>
      <trkpt lat="43.31184" lon="-1.7006">
        <ele>493</ele>
        <time>2022-05-07T07:35:36Z</time>
      </trkpt>
      <trkpt lat="43.31181" lon="-1.70057">
        <ele>494</ele>
        <time>2022-05-07T07:35:39Z</time>
      </trkpt>
      <trkpt lat="43.3118" lon="-1.70056">
        <ele>494.4</ele>
        <time>2022-05-07T07:35:40Z</time>
      </trkpt>
      <trkpt lat="43.31175" lon="-1.70054">
        <ele>495.6</ele>
        <time>2022-05-07T07:35:44Z</time>
      </trkpt>
      <trkpt lat="43.31174" lon="-1.70052">
        <ele>496.2</ele>
        <time>2022-05-07T07:35:46Z</time>
      </trkpt>
      <trkpt lat="43.31173" lon="-1.70051">
        <ele>496.4</ele>
        <time>2022-05-07T07:35:47Z</time>
      </trkpt>
      <trkpt lat="43.31173" lon="-1.7005">
        <ele>496.8</ele>
        <time>2022-05-07T07:35:48Z</time>
      </trkpt>
      <trkpt lat="43.3117" lon="-1.70045">
        <ele>498</ele>
        <time>2022-05-07T07:35:52Z</time>
      </trkpt>
      <trkpt lat="43.31167" lon="-1.70043">
        <ele>499</ele>
        <time>2022-05-07T07:35:55Z</time>
      </trkpt>
      <trkpt lat="43.31167" lon="-1.70042">
        <ele>499.2</ele>
        <time>2022-05-07T07:35:56Z</time>
      </trkpt>
      <trkpt lat="43.31166" lon="-1.7004">
        <ele>499.6</ele>
        <time>2022-05-07T07:35:57Z</time>
      </trkpt>
      <trkpt lat="43.31166" lon="-1.70039">
        <ele>500.2</ele>
        <time>2022-05-07T07:35:59Z</time>
      </trkpt>
      <trkpt lat="43.31166" lon="-1.70039">
        <ele>500.8</ele>
        <time>2022-05-07T07:36:01Z</time>
      </trkpt>
      <trkpt lat="43.31166" lon="-1.70039">
        <ele>501.4</ele>
        <time>2022-05-07T07:36:03Z</time>
      </trkpt>
      <trkpt lat="43.31166" lon="-1.70037">
        <ele>502</ele>
        <time>2022-05-07T07:36:25Z</time>
      </trkpt>
      <trkpt lat="43.31166" lon="-1.70031">
        <ele>502</ele>
        <time>2022-05-07T07:36:28Z</time>
      </trkpt>
      <trkpt lat="43.31167" lon="-1.70013">
        <ele>501.8</ele>
        <time>2022-05-07T07:36:34Z</time>
      </trkpt>
      <trkpt lat="43.31168" lon="-1.69997">
        <ele>501.8</ele>
        <time>2022-05-07T07:36:39Z</time>
      </trkpt>
      <trkpt lat="43.3117" lon="-1.69973">
        <ele>501.2</ele>
        <time>2022-05-07T07:36:46Z</time>
      </trkpt>
      <trkpt lat="43.31174" lon="-1.69942">
        <ele>500.2</ele>
        <time>2022-05-07T07:36:53Z</time>
      </trkpt>
      <trkpt lat="43.31177" lon="-1.69916">
        <ele>499.2</ele>
        <time>2022-05-07T07:36:58Z</time>
      </trkpt>
      <trkpt lat="43.31179" lon="-1.69905">
        <ele>498.8</ele>
        <time>2022-05-07T07:37:00Z</time>
      </trkpt>
      <trkpt lat="43.31181" lon="-1.69892">
        <ele>498</ele>
        <time>2022-05-07T07:37:02Z</time>
      </trkpt>
      <trkpt lat="43.31183" lon="-1.69871">
        <ele>497</ele>
        <time>2022-05-07T07:37:05Z</time>
      </trkpt>
      <trkpt lat="43.31186" lon="-1.69851">
        <ele>495.4</ele>
        <time>2022-05-07T07:37:08Z</time>
      </trkpt>
      <trkpt lat="43.31188" lon="-1.69833">
        <ele>494.2</ele>
        <time>2022-05-07T07:37:11Z</time>
      </trkpt>
      <trkpt lat="43.31191" lon="-1.69822">
        <ele>493.2</ele>
        <time>2022-05-07T07:37:14Z</time>
      </trkpt>
      <trkpt lat="43.31193" lon="-1.69818">
        <ele>492</ele>
        <time>2022-05-07T07:37:16Z</time>
      </trkpt>
      <trkpt lat="43.31196" lon="-1.6981">
        <ele>490.4</ele>
        <time>2022-05-07T07:37:19Z</time>
      </trkpt>
      <trkpt lat="43.31201" lon="-1.69803">
        <ele>489.8</ele>
        <time>2022-05-07T07:37:22Z</time>
      </trkpt>
      <trkpt lat="43.31203" lon="-1.698">
        <ele>489.2</ele>
        <time>2022-05-07T07:37:23Z</time>
      </trkpt>
      <trkpt lat="43.31207" lon="-1.69792">
        <ele>488</ele>
        <time>2022-05-07T07:37:27Z</time>
      </trkpt>
      <trkpt lat="43.31208" lon="-1.69791">
        <ele>487.6</ele>
        <time>2022-05-07T07:37:28Z</time>
      </trkpt>
      <trkpt lat="43.31209" lon="-1.69789">
        <ele>486.6</ele>
        <time>2022-05-07T07:37:30Z</time>
      </trkpt>
      <trkpt lat="43.31213" lon="-1.69787">
        <ele>485.8</ele>
        <time>2022-05-07T07:37:33Z</time>
      </trkpt>
      <trkpt lat="43.31214" lon="-1.69787">
        <ele>485.6</ele>
        <time>2022-05-07T07:37:34Z</time>
      </trkpt>
      <trkpt lat="43.31214" lon="-1.69787">
        <ele>485.6</ele>
        <time>2022-05-07T07:37:35Z</time>
      </trkpt>
      <trkpt lat="43.31213" lon="-1.69789">
        <ele>484.8</ele>
        <time>2022-05-07T07:37:40Z</time>
      </trkpt>
      <trkpt lat="43.31212" lon="-1.69789">
        <ele>484.8</ele>
        <time>2022-05-07T07:37:41Z</time>
      </trkpt>
      <trkpt lat="43.3121" lon="-1.6979">
        <ele>484.4</ele>
        <time>2022-05-07T07:37:42Z</time>
      </trkpt>
      <trkpt lat="43.31205" lon="-1.69791">
        <ele>484.4</ele>
        <time>2022-05-07T07:37:45Z</time>
      </trkpt>
      <trkpt lat="43.31195" lon="-1.69784">
        <ele>485.6</ele>
        <time>2022-05-07T07:37:52Z</time>
      </trkpt>
      <trkpt lat="43.3119" lon="-1.69781">
        <ele>486.8</ele>
        <time>2022-05-07T07:37:55Z</time>
      </trkpt>
      <trkpt lat="43.31186" lon="-1.69778">
        <ele>488.4</ele>
        <time>2022-05-07T07:37:58Z</time>
      </trkpt>
      <trkpt lat="43.31185" lon="-1.69777">
        <ele>489</ele>
        <time>2022-05-07T07:37:59Z</time>
      </trkpt>
      <trkpt lat="43.31182" lon="-1.69775">
        <ele>489.8</ele>
        <time>2022-05-07T07:38:01Z</time>
      </trkpt>
      <trkpt lat="43.31177" lon="-1.69772">
        <ele>491</ele>
        <time>2022-05-07T07:38:05Z</time>
      </trkpt>
      <trkpt lat="43.31174" lon="-1.69771">
        <ele>491.4</ele>
        <time>2022-05-07T07:38:07Z</time>
      </trkpt>
      <trkpt lat="43.31171" lon="-1.69769">
        <ele>492.2</ele>
        <time>2022-05-07T07:38:09Z</time>
      </trkpt>
      <trkpt lat="43.31168" lon="-1.69769">
        <ele>493.2</ele>
        <time>2022-05-07T07:38:11Z</time>
      </trkpt>
      <trkpt lat="43.31163" lon="-1.69767">
        <ele>494.4</ele>
        <time>2022-05-07T07:38:15Z</time>
      </trkpt>
      <trkpt lat="43.3116" lon="-1.69766">
        <ele>495</ele>
        <time>2022-05-07T07:38:17Z</time>
      </trkpt>
      <trkpt lat="43.31159" lon="-1.69765">
        <ele>495.4</ele>
        <time>2022-05-07T07:38:18Z</time>
      </trkpt>
      <trkpt lat="43.31154" lon="-1.69763">
        <ele>496.4</ele>
        <time>2022-05-07T07:38:21Z</time>
      </trkpt>
      <trkpt lat="43.31153" lon="-1.69763">
        <ele>497</ele>
        <time>2022-05-07T07:38:22Z</time>
      </trkpt>
      <trkpt lat="43.3115" lon="-1.69761">
        <ele>497.4</ele>
        <time>2022-05-07T07:38:24Z</time>
      </trkpt>
      <trkpt lat="43.3115" lon="-1.69761">
        <ele>497.8</ele>
        <time>2022-05-07T07:38:25Z</time>
      </trkpt>
      <trkpt lat="43.31148" lon="-1.6976">
        <ele>498</ele>
        <time>2022-05-07T07:38:26Z</time>
      </trkpt>
      <trkpt lat="43.31144" lon="-1.69761">
        <ele>498.8</ele>
        <time>2022-05-07T07:38:29Z</time>
      </trkpt>
      <trkpt lat="43.31142" lon="-1.69761">
        <ele>499</ele>
        <time>2022-05-07T07:38:30Z</time>
      </trkpt>
      <trkpt lat="43.31137" lon="-1.6976">
        <ele>500</ele>
        <time>2022-05-07T07:38:34Z</time>
      </trkpt>
      <trkpt lat="43.31134" lon="-1.6976">
        <ele>500.4</ele>
        <time>2022-05-07T07:38:36Z</time>
      </trkpt>
      <trkpt lat="43.31131" lon="-1.69759">
        <ele>501.2</ele>
        <time>2022-05-07T07:38:39Z</time>
      </trkpt>
      <trkpt lat="43.31124" lon="-1.69757">
        <ele>502.4</ele>
        <time>2022-05-07T07:38:44Z</time>
      </trkpt>
      <trkpt lat="43.31123" lon="-1.69757">
        <ele>502.6</ele>
        <time>2022-05-07T07:38:45Z</time>
      </trkpt>
      <trkpt lat="43.31115" lon="-1.69752">
        <ele>503.4</ele>
        <time>2022-05-07T07:38:52Z</time>
      </trkpt>
      <trkpt lat="43.31114" lon="-1.69752">
        <ele>503.6</ele>
        <time>2022-05-07T07:38:53Z</time>
      </trkpt>
      <trkpt lat="43.31103" lon="-1.69742">
        <ele>504</ele>
        <time>2022-05-07T07:39:03Z</time>
      </trkpt>
      <trkpt lat="43.31089" lon="-1.6974">
        <ele>503.4</ele>
        <time>2022-05-07T07:39:12Z</time>
      </trkpt>
      <trkpt lat="43.31079" lon="-1.69743">
        <ele>503.2</ele>
        <time>2022-05-07T07:39:19Z</time>
      </trkpt>
      <trkpt lat="43.31069" lon="-1.69747">
        <ele>503.6</ele>
        <time>2022-05-07T07:39:26Z</time>
      </trkpt>
      <trkpt lat="43.31057" lon="-1.6975">
        <ele>504.2</ele>
        <time>2022-05-07T07:39:34Z</time>
      </trkpt>
      <trkpt lat="43.31047" lon="-1.69754">
        <ele>504.6</ele>
        <time>2022-05-07T07:39:40Z</time>
      </trkpt>
      <trkpt lat="43.31041" lon="-1.69759">
        <ele>504.8</ele>
        <time>2022-05-07T07:39:44Z</time>
      </trkpt>
      <trkpt lat="43.31036" lon="-1.69765">
        <ele>505.6</ele>
        <time>2022-05-07T07:39:49Z</time>
      </trkpt>
      <trkpt lat="43.31032" lon="-1.69768">
        <ele>506.6</ele>
        <time>2022-05-07T07:39:53Z</time>
      </trkpt>
      <trkpt lat="43.31026" lon="-1.69772">
        <ele>507.6</ele>
        <time>2022-05-07T07:39:57Z</time>
      </trkpt>
      <trkpt lat="43.3102" lon="-1.69778">
        <ele>508.6</ele>
        <time>2022-05-07T07:40:02Z</time>
      </trkpt>
      <trkpt lat="43.31019" lon="-1.6978">
        <ele>508.6</ele>
        <time>2022-05-07T07:40:03Z</time>
      </trkpt>
      <trkpt lat="43.31008" lon="-1.69789">
        <ele>509.6</ele>
        <time>2022-05-07T07:40:12Z</time>
      </trkpt>
      <trkpt lat="43.31007" lon="-1.6979">
        <ele>509.8</ele>
        <time>2022-05-07T07:40:13Z</time>
      </trkpt>
      <trkpt lat="43.30997" lon="-1.69796">
        <ele>510.2</ele>
        <time>2022-05-07T07:40:22Z</time>
      </trkpt>
      <trkpt lat="43.30995" lon="-1.69796">
        <ele>510.2</ele>
        <time>2022-05-07T07:40:24Z</time>
      </trkpt>
      <trkpt lat="43.3099" lon="-1.69799">
        <ele>510.2</ele>
        <time>2022-05-07T07:40:29Z</time>
      </trkpt>
      <trkpt lat="43.30979" lon="-1.69802">
        <ele>510.2</ele>
        <time>2022-05-07T07:40:35Z</time>
      </trkpt>
      <trkpt lat="43.30964" lon="-1.69809">
        <ele>510.2</ele>
        <time>2022-05-07T07:40:43Z</time>
      </trkpt>
      <trkpt lat="43.30951" lon="-1.69812">
        <ele>510.2</ele>
        <time>2022-05-07T07:40:50Z</time>
      </trkpt>
      <trkpt lat="43.30937" lon="-1.69813">
        <ele>510.2</ele>
        <time>2022-05-07T07:40:57Z</time>
      </trkpt>
      <trkpt lat="43.30925" lon="-1.69814">
        <ele>510.2</ele>
        <time>2022-05-07T07:41:02Z</time>
      </trkpt>
      <trkpt lat="43.30909" lon="-1.69814">
        <ele>510</ele>
        <time>2022-05-07T07:41:09Z</time>
      </trkpt>
      <trkpt lat="43.30895" lon="-1.69813">
        <ele>510.2</ele>
        <time>2022-05-07T07:41:16Z</time>
      </trkpt>
      <trkpt lat="43.30894" lon="-1.69814">
        <ele>510.4</ele>
        <time>2022-05-07T07:41:17Z</time>
      </trkpt>
      <trkpt lat="43.30883" lon="-1.69815">
        <ele>510.6</ele>
        <time>2022-05-07T07:41:23Z</time>
      </trkpt>
      <trkpt lat="43.30881" lon="-1.69815">
        <ele>510.6</ele>
        <time>2022-05-07T07:41:24Z</time>
      </trkpt>
      <trkpt lat="43.30872" lon="-1.69814">
        <ele>510.6</ele>
        <time>2022-05-07T07:41:27Z</time>
      </trkpt>
      <trkpt lat="43.30857" lon="-1.69808">
        <ele>510.6</ele>
        <time>2022-05-07T07:41:34Z</time>
      </trkpt>
      <trkpt lat="43.30837" lon="-1.69799">
        <ele>510.6</ele>
        <time>2022-05-07T07:41:41Z</time>
      </trkpt>
      <trkpt lat="43.30811" lon="-1.69791">
        <ele>510</ele>
        <time>2022-05-07T07:41:50Z</time>
      </trkpt>
      <trkpt lat="43.30791" lon="-1.69781">
        <ele>509.6</ele>
        <time>2022-05-07T07:41:59Z</time>
      </trkpt>
      <trkpt lat="43.30775" lon="-1.69775">
        <ele>509.4</ele>
        <time>2022-05-07T07:42:06Z</time>
      </trkpt>
      <trkpt lat="43.3076" lon="-1.69772">
        <ele>509</ele>
        <time>2022-05-07T07:42:13Z</time>
      </trkpt>
      <trkpt lat="43.30752" lon="-1.69772">
        <ele>508.8</ele>
        <time>2022-05-07T07:42:16Z</time>
      </trkpt>
      <trkpt lat="43.30743" lon="-1.69776">
        <ele>508.8</ele>
        <time>2022-05-07T07:42:19Z</time>
      </trkpt>
      <trkpt lat="43.30737" lon="-1.69781">
        <ele>508.4</ele>
        <time>2022-05-07T07:42:23Z</time>
      </trkpt>
      <trkpt lat="43.30731" lon="-1.6979">
        <ele>508.2</ele>
        <time>2022-05-07T07:42:30Z</time>
      </trkpt>
      <trkpt lat="43.30728" lon="-1.69801">
        <ele>508</ele>
        <time>2022-05-07T07:42:38Z</time>
      </trkpt>
      <trkpt lat="43.30724" lon="-1.69812">
        <ele>507.6</ele>
        <time>2022-05-07T07:42:44Z</time>
      </trkpt>
      <trkpt lat="43.30722" lon="-1.6982">
        <ele>507.4</ele>
        <time>2022-05-07T07:42:48Z</time>
      </trkpt>
      <trkpt lat="43.30715" lon="-1.69824">
        <ele>506.6</ele>
        <time>2022-05-07T07:42:52Z</time>
      </trkpt>
      <trkpt lat="43.3071" lon="-1.69822">
        <ele>506.2</ele>
        <time>2022-05-07T07:42:54Z</time>
      </trkpt>
      <trkpt lat="43.30707" lon="-1.69816">
        <ele>505</ele>
        <time>2022-05-07T07:42:57Z</time>
      </trkpt>
      <trkpt lat="43.30703" lon="-1.6981">
        <ele>503.8</ele>
        <time>2022-05-07T07:43:00Z</time>
      </trkpt>
      <trkpt lat="43.30697" lon="-1.69806">
        <ele>502.6</ele>
        <time>2022-05-07T07:43:03Z</time>
      </trkpt>
      <trkpt lat="43.30692" lon="-1.69803">
        <ele>501.2</ele>
        <time>2022-05-07T07:43:07Z</time>
      </trkpt>
      <trkpt lat="43.30689" lon="-1.69802">
        <ele>501</ele>
        <time>2022-05-07T07:43:08Z</time>
      </trkpt>
      <trkpt lat="43.30685" lon="-1.69801">
        <ele>500.2</ele>
        <time>2022-05-07T07:43:10Z</time>
      </trkpt>
      <trkpt lat="43.30679" lon="-1.698">
        <ele>499</ele>
        <time>2022-05-07T07:43:13Z</time>
      </trkpt>
      <trkpt lat="43.30676" lon="-1.69798">
        <ele>498.4</ele>
        <time>2022-05-07T07:43:15Z</time>
      </trkpt>
      <trkpt lat="43.30672" lon="-1.69795">
        <ele>497.6</ele>
        <time>2022-05-07T07:43:17Z</time>
      </trkpt>
      <trkpt lat="43.30666" lon="-1.69787">
        <ele>496.4</ele>
        <time>2022-05-07T07:43:20Z</time>
      </trkpt>
      <trkpt lat="43.30663" lon="-1.69783">
        <ele>496.4</ele>
        <time>2022-05-07T07:43:21Z</time>
      </trkpt>
      <trkpt lat="43.30653" lon="-1.69776">
        <ele>495.2</ele>
        <time>2022-05-07T07:43:24Z</time>
      </trkpt>
      <trkpt lat="43.30646" lon="-1.69772">
        <ele>494</ele>
        <time>2022-05-07T07:43:26Z</time>
      </trkpt>
      <trkpt lat="43.3064" lon="-1.69769">
        <ele>492.8</ele>
        <time>2022-05-07T07:43:28Z</time>
      </trkpt>
      <trkpt lat="43.30635" lon="-1.69768">
        <ele>491.8</ele>
        <time>2022-05-07T07:43:30Z</time>
      </trkpt>
      <trkpt lat="43.30631" lon="-1.69766">
        <ele>490.8</ele>
        <time>2022-05-07T07:43:31Z</time>
      </trkpt>
      <trkpt lat="43.30628" lon="-1.69765">
        <ele>490.2</ele>
        <time>2022-05-07T07:43:32Z</time>
      </trkpt>
      <trkpt lat="43.30621" lon="-1.69763">
        <ele>489.2</ele>
        <time>2022-05-07T07:43:34Z</time>
      </trkpt>
      <trkpt lat="43.30609" lon="-1.69761">
        <ele>488</ele>
        <time>2022-05-07T07:43:37Z</time>
      </trkpt>
      <trkpt lat="43.30597" lon="-1.69756">
        <ele>486.2</ele>
        <time>2022-05-07T07:43:41Z</time>
      </trkpt>
      <trkpt lat="43.30592" lon="-1.69753">
        <ele>485.8</ele>
        <time>2022-05-07T07:43:42Z</time>
      </trkpt>
      <trkpt lat="43.30591" lon="-1.6975">
        <ele>484.2</ele>
        <time>2022-05-07T07:43:43Z</time>
      </trkpt>
      <trkpt lat="43.30591" lon="-1.69744">
        <ele>482.4</ele>
        <time>2022-05-07T07:43:45Z</time>
      </trkpt>
      <trkpt lat="43.30592" lon="-1.69741">
        <ele>481.8</ele>
        <time>2022-05-07T07:43:46Z</time>
      </trkpt>
      <trkpt lat="43.30594" lon="-1.69739">
        <ele>481</ele>
        <time>2022-05-07T07:43:47Z</time>
      </trkpt>
      <trkpt lat="43.30599" lon="-1.69734">
        <ele>479.8</ele>
        <time>2022-05-07T07:43:50Z</time>
      </trkpt>
      <trkpt lat="43.30602" lon="-1.69731">
        <ele>479.4</ele>
        <time>2022-05-07T07:43:52Z</time>
      </trkpt>
      <trkpt lat="43.30619" lon="-1.69715">
        <ele>479.8</ele>
        <time>2022-05-07T07:44:01Z</time>
      </trkpt>
      <trkpt lat="43.30638" lon="-1.69703">
        <ele>480.2</ele>
        <time>2022-05-07T07:44:10Z</time>
      </trkpt>
      <trkpt lat="43.30648" lon="-1.69698">
        <ele>480.4</ele>
        <time>2022-05-07T07:44:15Z</time>
      </trkpt>
      <trkpt lat="43.30665" lon="-1.69688">
        <ele>480.8</ele>
        <time>2022-05-07T07:44:22Z</time>
      </trkpt>
      <trkpt lat="43.3067" lon="-1.69687">
        <ele>481</ele>
        <time>2022-05-07T07:44:24Z</time>
      </trkpt>
      <trkpt lat="43.3069" lon="-1.69678">
        <ele>481.4</ele>
        <time>2022-05-07T07:44:31Z</time>
      </trkpt>
      <trkpt lat="43.30703" lon="-1.69672">
        <ele>481.6</ele>
        <time>2022-05-07T07:44:37Z</time>
      </trkpt>
      <trkpt lat="43.30722" lon="-1.69666">
        <ele>482.8</ele>
        <time>2022-05-07T07:44:44Z</time>
      </trkpt>
      <trkpt lat="43.30728" lon="-1.69666">
        <ele>483</ele>
        <time>2022-05-07T07:44:46Z</time>
      </trkpt>
      <trkpt lat="43.30746" lon="-1.69663">
        <ele>483.6</ele>
        <time>2022-05-07T07:44:53Z</time>
      </trkpt>
      <trkpt lat="43.30764" lon="-1.69665">
        <ele>483.6</ele>
        <time>2022-05-07T07:44:58Z</time>
      </trkpt>
      <trkpt lat="43.30776" lon="-1.69668">
        <ele>483.6</ele>
        <time>2022-05-07T07:45:00Z</time>
      </trkpt>
      <trkpt lat="43.30789" lon="-1.69674">
        <ele>483</ele>
        <time>2022-05-07T07:45:03Z</time>
      </trkpt>
      <trkpt lat="43.308" lon="-1.69681">
        <ele>482.2</ele>
        <time>2022-05-07T07:45:07Z</time>
      </trkpt>
      <trkpt lat="43.30806" lon="-1.69686">
        <ele>481.6</ele>
        <time>2022-05-07T07:45:09Z</time>
      </trkpt>
      <trkpt lat="43.30814" lon="-1.69695">
        <ele>480.4</ele>
        <time>2022-05-07T07:45:12Z</time>
      </trkpt>
      <trkpt lat="43.30817" lon="-1.697">
        <ele>480</ele>
        <time>2022-05-07T07:45:13Z</time>
      </trkpt>
      <trkpt lat="43.3082" lon="-1.69704">
        <ele>479.6</ele>
        <time>2022-05-07T07:45:14Z</time>
      </trkpt>
      <trkpt lat="43.30828" lon="-1.69712">
        <ele>479.2</ele>
        <time>2022-05-07T07:45:16Z</time>
      </trkpt>
      <trkpt lat="43.30831" lon="-1.69715">
        <ele>479</ele>
        <time>2022-05-07T07:45:17Z</time>
      </trkpt>
      <trkpt lat="43.30836" lon="-1.69719">
        <ele>478.6</ele>
        <time>2022-05-07T07:45:18Z</time>
      </trkpt>
      <trkpt lat="43.30844" lon="-1.69721">
        <ele>477.8</ele>
        <time>2022-05-07T07:45:20Z</time>
      </trkpt>
      <trkpt lat="43.30848" lon="-1.69721">
        <ele>477.4</ele>
        <time>2022-05-07T07:45:21Z</time>
      </trkpt>
      <trkpt lat="43.30859" lon="-1.6972">
        <ele>476.6</ele>
        <time>2022-05-07T07:45:23Z</time>
      </trkpt>
      <trkpt lat="43.30869" lon="-1.69716">
        <ele>475.4</ele>
        <time>2022-05-07T07:45:25Z</time>
      </trkpt>
      <trkpt lat="43.30884" lon="-1.69703">
        <ele>473.8</ele>
        <time>2022-05-07T07:45:28Z</time>
      </trkpt>
      <trkpt lat="43.30892" lon="-1.69696">
        <ele>473</ele>
        <time>2022-05-07T07:45:30Z</time>
      </trkpt>
      <trkpt lat="43.30901" lon="-1.69688">
        <ele>472.8</ele>
        <time>2022-05-07T07:45:32Z</time>
      </trkpt>
      <trkpt lat="43.30906" lon="-1.69684">
        <ele>472.4</ele>
        <time>2022-05-07T07:45:33Z</time>
      </trkpt>
      <trkpt lat="43.30912" lon="-1.69679">
        <ele>472.2</ele>
        <time>2022-05-07T07:45:34Z</time>
      </trkpt>
      <trkpt lat="43.30918" lon="-1.69675">
        <ele>471.6</ele>
        <time>2022-05-07T07:45:35Z</time>
      </trkpt>
      <trkpt lat="43.30923" lon="-1.69672">
        <ele>471</ele>
        <time>2022-05-07T07:45:36Z</time>
      </trkpt>
      <trkpt lat="43.3093" lon="-1.69667">
        <ele>470</ele>
        <time>2022-05-07T07:45:37Z</time>
      </trkpt>
      <trkpt lat="43.30945" lon="-1.6966">
        <ele>468.8</ele>
        <time>2022-05-07T07:45:39Z</time>
      </trkpt>
      <trkpt lat="43.30952" lon="-1.69657">
        <ele>468.6</ele>
        <time>2022-05-07T07:45:40Z</time>
      </trkpt>
      <trkpt lat="43.30965" lon="-1.69653">
        <ele>467</ele>
        <time>2022-05-07T07:45:42Z</time>
      </trkpt>
      <trkpt lat="43.30972" lon="-1.69651">
        <ele>466</ele>
        <time>2022-05-07T07:45:43Z</time>
      </trkpt>
      <trkpt lat="43.30983" lon="-1.69648">
        <ele>464.8</ele>
        <time>2022-05-07T07:45:45Z</time>
      </trkpt>
      <trkpt lat="43.30988" lon="-1.69647">
        <ele>464.6</ele>
        <time>2022-05-07T07:45:46Z</time>
      </trkpt>
      <trkpt lat="43.30995" lon="-1.69646">
        <ele>464</ele>
        <time>2022-05-07T07:45:47Z</time>
      </trkpt>
      <trkpt lat="43.31001" lon="-1.69643">
        <ele>462.6</ele>
        <time>2022-05-07T07:45:48Z</time>
      </trkpt>
      <trkpt lat="43.31012" lon="-1.69638">
        <ele>461.2</ele>
        <time>2022-05-07T07:45:50Z</time>
      </trkpt>
      <trkpt lat="43.31019" lon="-1.69635">
        <ele>460.6</ele>
        <time>2022-05-07T07:45:51Z</time>
      </trkpt>
      <trkpt lat="43.31031" lon="-1.6963">
        <ele>460</ele>
        <time>2022-05-07T07:45:53Z</time>
      </trkpt>
      <trkpt lat="43.3105" lon="-1.69622">
        <ele>458.4</ele>
        <time>2022-05-07T07:45:56Z</time>
      </trkpt>
      <trkpt lat="43.31055" lon="-1.69617">
        <ele>458</ele>
        <time>2022-05-07T07:45:57Z</time>
      </trkpt>
      <trkpt lat="43.31059" lon="-1.69613">
        <ele>457.4</ele>
        <time>2022-05-07T07:45:58Z</time>
      </trkpt>
      <trkpt lat="43.31061" lon="-1.69609">
        <ele>456.2</ele>
        <time>2022-05-07T07:45:59Z</time>
      </trkpt>
      <trkpt lat="43.31063" lon="-1.69605">
        <ele>455</ele>
        <time>2022-05-07T07:46:00Z</time>
      </trkpt>
      <trkpt lat="43.31066" lon="-1.69596">
        <ele>453.6</ele>
        <time>2022-05-07T07:46:02Z</time>
      </trkpt>
      <trkpt lat="43.31071" lon="-1.69582">
        <ele>452.6</ele>
        <time>2022-05-07T07:46:05Z</time>
      </trkpt>
      <trkpt lat="43.31074" lon="-1.69576">
        <ele>452.4</ele>
        <time>2022-05-07T07:46:06Z</time>
      </trkpt>
      <trkpt lat="43.31083" lon="-1.69559">
        <ele>451.2</ele>
        <time>2022-05-07T07:46:10Z</time>
      </trkpt>
      <trkpt lat="43.31089" lon="-1.69549">
        <ele>450.8</ele>
        <time>2022-05-07T07:46:12Z</time>
      </trkpt>
      <trkpt lat="43.31096" lon="-1.69538">
        <ele>450</ele>
        <time>2022-05-07T07:46:14Z</time>
      </trkpt>
      <trkpt lat="43.31103" lon="-1.69526">
        <ele>448.6</ele>
        <time>2022-05-07T07:46:16Z</time>
      </trkpt>
      <trkpt lat="43.31105" lon="-1.69523">
        <ele>447.6</ele>
        <time>2022-05-07T07:46:17Z</time>
      </trkpt>
      <trkpt lat="43.31106" lon="-1.69517">
        <ele>445.6</ele>
        <time>2022-05-07T07:46:19Z</time>
      </trkpt>
      <trkpt lat="43.31108" lon="-1.69511">
        <ele>444.2</ele>
        <time>2022-05-07T07:46:21Z</time>
      </trkpt>
      <trkpt lat="43.31108" lon="-1.69508">
        <ele>443.8</ele>
        <time>2022-05-07T07:46:22Z</time>
      </trkpt>
      <trkpt lat="43.31108" lon="-1.69501">
        <ele>442.8</ele>
        <time>2022-05-07T07:46:24Z</time>
      </trkpt>
      <trkpt lat="43.31108" lon="-1.69494">
        <ele>441.6</ele>
        <time>2022-05-07T07:46:26Z</time>
      </trkpt>
      <trkpt lat="43.31108" lon="-1.69487">
        <ele>439.8</ele>
        <time>2022-05-07T07:46:28Z</time>
      </trkpt>
      <trkpt lat="43.31109" lon="-1.6948">
        <ele>438.6</ele>
        <time>2022-05-07T07:46:30Z</time>
      </trkpt>
      <trkpt lat="43.31109" lon="-1.69475">
        <ele>438.2</ele>
        <time>2022-05-07T07:46:31Z</time>
      </trkpt>
      <trkpt lat="43.31109" lon="-1.69466">
        <ele>437.4</ele>
        <time>2022-05-07T07:46:33Z</time>
      </trkpt>
      <trkpt lat="43.3111" lon="-1.6946">
        <ele>436.4</ele>
        <time>2022-05-07T07:46:34Z</time>
      </trkpt>
      <trkpt lat="43.31112" lon="-1.69455">
        <ele>436</ele>
        <time>2022-05-07T07:46:35Z</time>
      </trkpt>
      <trkpt lat="43.31114" lon="-1.69451">
        <ele>434.6</ele>
        <time>2022-05-07T07:46:36Z</time>
      </trkpt>
      <trkpt lat="43.31118" lon="-1.69443">
        <ele>433.4</ele>
        <time>2022-05-07T07:46:38Z</time>
      </trkpt>
      <trkpt lat="43.31126" lon="-1.69426">
        <ele>431.6</ele>
        <time>2022-05-07T07:46:42Z</time>
      </trkpt>
      <trkpt lat="43.31132" lon="-1.69418">
        <ele>430.2</ele>
        <time>2022-05-07T07:46:44Z</time>
      </trkpt>
      <trkpt lat="43.31142" lon="-1.69402">
        <ele>428.8</ele>
        <time>2022-05-07T07:46:47Z</time>
      </trkpt>
      <trkpt lat="43.31149" lon="-1.69391">
        <ele>427.6</ele>
        <time>2022-05-07T07:46:49Z</time>
      </trkpt>
      <trkpt lat="43.31156" lon="-1.69383">
        <ele>425.8</ele>
        <time>2022-05-07T07:46:51Z</time>
      </trkpt>
      <trkpt lat="43.31163" lon="-1.69376">
        <ele>424.4</ele>
        <time>2022-05-07T07:46:53Z</time>
      </trkpt>
      <trkpt lat="43.31165" lon="-1.69373">
        <ele>423.8</ele>
        <time>2022-05-07T07:46:54Z</time>
      </trkpt>
      <trkpt lat="43.31168" lon="-1.6937">
        <ele>422.6</ele>
        <time>2022-05-07T07:46:55Z</time>
      </trkpt>
      <trkpt lat="43.31173" lon="-1.69364">
        <ele>421.4</ele>
        <time>2022-05-07T07:46:57Z</time>
      </trkpt>
      <trkpt lat="43.31178" lon="-1.69357">
        <ele>419.6</ele>
        <time>2022-05-07T07:46:59Z</time>
      </trkpt>
      <trkpt lat="43.31184" lon="-1.6935">
        <ele>418.4</ele>
        <time>2022-05-07T07:47:01Z</time>
      </trkpt>
      <trkpt lat="43.31189" lon="-1.69343">
        <ele>417.2</ele>
        <time>2022-05-07T07:47:03Z</time>
      </trkpt>
      <trkpt lat="43.31193" lon="-1.69337">
        <ele>415.6</ele>
        <time>2022-05-07T07:47:05Z</time>
      </trkpt>
      <trkpt lat="43.31197" lon="-1.69332">
        <ele>414.2</ele>
        <time>2022-05-07T07:47:07Z</time>
      </trkpt>
      <trkpt lat="43.312" lon="-1.69326">
        <ele>412.8</ele>
        <time>2022-05-07T07:47:09Z</time>
      </trkpt>
      <trkpt lat="43.31203" lon="-1.69322">
        <ele>411.2</ele>
        <time>2022-05-07T07:47:10Z</time>
      </trkpt>
      <trkpt lat="43.31205" lon="-1.69314">
        <ele>409.8</ele>
        <time>2022-05-07T07:47:12Z</time>
      </trkpt>
      <trkpt lat="43.31206" lon="-1.6931">
        <ele>409.2</ele>
        <time>2022-05-07T07:47:13Z</time>
      </trkpt>
      <trkpt lat="43.31206" lon="-1.69306">
        <ele>408.2</ele>
        <time>2022-05-07T07:47:14Z</time>
      </trkpt>
      <trkpt lat="43.31205" lon="-1.69303">
        <ele>407.4</ele>
        <time>2022-05-07T07:47:15Z</time>
      </trkpt>
      <trkpt lat="43.31203" lon="-1.69301">
        <ele>406</ele>
        <time>2022-05-07T07:47:16Z</time>
      </trkpt>
      <trkpt lat="43.312" lon="-1.69299">
        <ele>405.6</ele>
        <time>2022-05-07T07:47:17Z</time>
      </trkpt>
      <trkpt lat="43.31198" lon="-1.69299">
        <ele>404.8</ele>
        <time>2022-05-07T07:47:18Z</time>
      </trkpt>
      <trkpt lat="43.31194" lon="-1.69301">
        <ele>403.8</ele>
        <time>2022-05-07T07:47:20Z</time>
      </trkpt>
      <trkpt lat="43.31194" lon="-1.69302">
        <ele>403.6</ele>
        <time>2022-05-07T07:47:21Z</time>
      </trkpt>
      <trkpt lat="43.31194" lon="-1.69311">
        <ele>402.8</ele>
        <time>2022-05-07T07:47:27Z</time>
      </trkpt>
      <trkpt lat="43.31197" lon="-1.69306">
        <ele>402.8</ele>
        <time>2022-05-07T07:47:31Z</time>
      </trkpt>
      <trkpt lat="43.31198" lon="-1.69304">
        <ele>402.8</ele>
        <time>2022-05-07T07:47:32Z</time>
      </trkpt>
      <trkpt lat="43.31199" lon="-1.69295">
        <ele>402.8</ele>
        <time>2022-05-07T07:47:35Z</time>
      </trkpt>
      <trkpt lat="43.31199" lon="-1.69287">
        <ele>402.6</ele>
        <time>2022-05-07T07:47:37Z</time>
      </trkpt>
      <trkpt lat="43.312" lon="-1.69281">
        <ele>402.4</ele>
        <time>2022-05-07T07:47:39Z</time>
      </trkpt>
      <trkpt lat="43.31202" lon="-1.69277">
        <ele>401.6</ele>
        <time>2022-05-07T07:47:44Z</time>
      </trkpt>
      <trkpt lat="43.31202" lon="-1.69277">
        <ele>401.4</ele>
        <time>2022-05-07T07:47:46Z</time>
      </trkpt>
      <trkpt lat="43.31202" lon="-1.69277">
        <ele>400.8</ele>
        <time>2022-05-07T07:48:16Z</time>
      </trkpt>
      <trkpt lat="43.31202" lon="-1.69277">
        <ele>400.8</ele>
        <time>2022-05-07T07:49:36Z</time>
      </trkpt>
      <trkpt lat="43.31201" lon="-1.69274">
        <ele>400.8</ele>
        <time>2022-05-07T07:50:02Z</time>
      </trkpt>
      <trkpt lat="43.31199" lon="-1.69274">
        <ele>400.8</ele>
        <time>2022-05-07T07:50:03Z</time>
      </trkpt>
      <trkpt lat="43.31198" lon="-1.69274">
        <ele>400.8</ele>
        <time>2022-05-07T07:50:04Z</time>
      </trkpt>
      <trkpt lat="43.31191" lon="-1.6928">
        <ele>400.8</ele>
        <time>2022-05-07T07:50:09Z</time>
      </trkpt>
      <trkpt lat="43.3119" lon="-1.69287">
        <ele>400.8</ele>
        <time>2022-05-07T07:50:12Z</time>
      </trkpt>
      <trkpt lat="43.31188" lon="-1.6929">
        <ele>400.8</ele>
        <time>2022-05-07T07:50:14Z</time>
      </trkpt>
      <trkpt lat="43.31179" lon="-1.69291">
        <ele>400.6</ele>
        <time>2022-05-07T07:50:18Z</time>
      </trkpt>
      <trkpt lat="43.31174" lon="-1.69288">
        <ele>400.6</ele>
        <time>2022-05-07T07:50:20Z</time>
      </trkpt>
      <trkpt lat="43.31159" lon="-1.69277">
        <ele>399.2</ele>
        <time>2022-05-07T07:50:26Z</time>
      </trkpt>
      <trkpt lat="43.31154" lon="-1.69282">
        <ele>398</ele>
        <time>2022-05-07T07:50:28Z</time>
      </trkpt>
      <trkpt lat="43.31151" lon="-1.69287">
        <ele>396.6</ele>
        <time>2022-05-07T07:50:30Z</time>
      </trkpt>
      <trkpt lat="43.31149" lon="-1.6929">
        <ele>396.2</ele>
        <time>2022-05-07T07:50:31Z</time>
      </trkpt>
      <trkpt lat="43.31147" lon="-1.69293">
        <ele>395.6</ele>
        <time>2022-05-07T07:50:32Z</time>
      </trkpt>
      <trkpt lat="43.31134" lon="-1.69303">
        <ele>395</ele>
        <time>2022-05-07T07:50:36Z</time>
      </trkpt>
      <trkpt lat="43.31114" lon="-1.69316">
        <ele>394.8</ele>
        <time>2022-05-07T07:50:40Z</time>
      </trkpt>
      <trkpt lat="43.31108" lon="-1.6932">
        <ele>394.6</ele>
        <time>2022-05-07T07:50:41Z</time>
      </trkpt>
      <trkpt lat="43.31098" lon="-1.69328">
        <ele>394.2</ele>
        <time>2022-05-07T07:50:43Z</time>
      </trkpt>
      <trkpt lat="43.31088" lon="-1.69329">
        <ele>393.6</ele>
        <time>2022-05-07T07:50:45Z</time>
      </trkpt>
      <trkpt lat="43.31078" lon="-1.69322">
        <ele>392.8</ele>
        <time>2022-05-07T07:50:47Z</time>
      </trkpt>
      <trkpt lat="43.31074" lon="-1.69318">
        <ele>392.6</ele>
        <time>2022-05-07T07:50:48Z</time>
      </trkpt>
      <trkpt lat="43.31065" lon="-1.69308">
        <ele>392</ele>
        <time>2022-05-07T07:50:50Z</time>
      </trkpt>
      <trkpt lat="43.31059" lon="-1.69303">
        <ele>391.2</ele>
        <time>2022-05-07T07:50:51Z</time>
      </trkpt>
      <trkpt lat="43.31053" lon="-1.693">
        <ele>391</ele>
        <time>2022-05-07T07:50:52Z</time>
      </trkpt>
      <trkpt lat="43.31042" lon="-1.69299">
        <ele>390.2</ele>
        <time>2022-05-07T07:50:54Z</time>
      </trkpt>
      <trkpt lat="43.31027" lon="-1.69305">
        <ele>388.8</ele>
        <time>2022-05-07T07:50:56Z</time>
      </trkpt>
      <trkpt lat="43.31023" lon="-1.69309">
        <ele>388</ele>
        <time>2022-05-07T07:50:57Z</time>
      </trkpt>
      <trkpt lat="43.31018" lon="-1.69316">
        <ele>387.6</ele>
        <time>2022-05-07T07:50:58Z</time>
      </trkpt>
      <trkpt lat="43.3101" lon="-1.69334">
        <ele>386.4</ele>
        <time>2022-05-07T07:51:00Z</time>
      </trkpt>
      <trkpt lat="43.31005" lon="-1.69352">
        <ele>384.8</ele>
        <time>2022-05-07T07:51:02Z</time>
      </trkpt>
      <trkpt lat="43.30997" lon="-1.69366">
        <ele>383.4</ele>
        <time>2022-05-07T07:51:04Z</time>
      </trkpt>
      <trkpt lat="43.30991" lon="-1.6937">
        <ele>382.4</ele>
        <time>2022-05-07T07:51:05Z</time>
      </trkpt>
      <trkpt lat="43.30985" lon="-1.69372">
        <ele>381.2</ele>
        <time>2022-05-07T07:51:06Z</time>
      </trkpt>
      <trkpt lat="43.3098" lon="-1.69371">
        <ele>381</ele>
        <time>2022-05-07T07:51:07Z</time>
      </trkpt>
      <trkpt lat="43.30975" lon="-1.69366">
        <ele>379.8</ele>
        <time>2022-05-07T07:51:08Z</time>
      </trkpt>
      <trkpt lat="43.30972" lon="-1.69357">
        <ele>379.2</ele>
        <time>2022-05-07T07:51:09Z</time>
      </trkpt>
      <trkpt lat="43.30971" lon="-1.69348">
        <ele>378.4</ele>
        <time>2022-05-07T07:51:10Z</time>
      </trkpt>
      <trkpt lat="43.30972" lon="-1.69335">
        <ele>377.6</ele>
        <time>2022-05-07T07:51:11Z</time>
      </trkpt>
      <trkpt lat="43.30973" lon="-1.69326">
        <ele>376.4</ele>
        <time>2022-05-07T07:51:12Z</time>
      </trkpt>
      <trkpt lat="43.30976" lon="-1.693">
        <ele>375.2</ele>
        <time>2022-05-07T07:51:14Z</time>
      </trkpt>
      <trkpt lat="43.30977" lon="-1.69286">
        <ele>374.6</ele>
        <time>2022-05-07T07:51:15Z</time>
      </trkpt>
      <trkpt lat="43.30978" lon="-1.69272">
        <ele>373.4</ele>
        <time>2022-05-07T07:51:16Z</time>
      </trkpt>
      <trkpt lat="43.30979" lon="-1.69246">
        <ele>371.6</ele>
        <time>2022-05-07T07:51:18Z</time>
      </trkpt>
      <trkpt lat="43.30979" lon="-1.69234">
        <ele>371</ele>
        <time>2022-05-07T07:51:19Z</time>
      </trkpt>
      <trkpt lat="43.3098" lon="-1.69222">
        <ele>370</ele>
        <time>2022-05-07T07:51:20Z</time>
      </trkpt>
      <trkpt lat="43.30987" lon="-1.69205">
        <ele>367.8</ele>
        <time>2022-05-07T07:51:22Z</time>
      </trkpt>
      <trkpt lat="43.30996" lon="-1.69196">
        <ele>365.8</ele>
        <time>2022-05-07T07:51:24Z</time>
      </trkpt>
      <trkpt lat="43.31002" lon="-1.69195">
        <ele>365</ele>
        <time>2022-05-07T07:51:25Z</time>
      </trkpt>
      <trkpt lat="43.31007" lon="-1.69194">
        <ele>363.8</ele>
        <time>2022-05-07T07:51:26Z</time>
      </trkpt>
      <trkpt lat="43.3102" lon="-1.69197">
        <ele>362.4</ele>
        <time>2022-05-07T07:51:28Z</time>
      </trkpt>
      <trkpt lat="43.31029" lon="-1.69199">
        <ele>361.4</ele>
        <time>2022-05-07T07:51:29Z</time>
      </trkpt>
      <trkpt lat="43.31045" lon="-1.69202">
        <ele>359.8</ele>
        <time>2022-05-07T07:51:31Z</time>
      </trkpt>
      <trkpt lat="43.31052" lon="-1.69202">
        <ele>359.4</ele>
        <time>2022-05-07T07:51:32Z</time>
      </trkpt>
      <trkpt lat="43.3106" lon="-1.69202">
        <ele>358.8</ele>
        <time>2022-05-07T07:51:33Z</time>
      </trkpt>
      <trkpt lat="43.31069" lon="-1.692">
        <ele>358.4</ele>
        <time>2022-05-07T07:51:34Z</time>
      </trkpt>
      <trkpt lat="43.31073" lon="-1.69195">
        <ele>357.8</ele>
        <time>2022-05-07T07:51:35Z</time>
      </trkpt>
      <trkpt lat="43.31079" lon="-1.69181">
        <ele>356.6</ele>
        <time>2022-05-07T07:51:37Z</time>
      </trkpt>
      <trkpt lat="43.31079" lon="-1.69162">
        <ele>355</ele>
        <time>2022-05-07T07:51:39Z</time>
      </trkpt>
      <trkpt lat="43.31077" lon="-1.69139">
        <ele>353.6</ele>
        <time>2022-05-07T07:51:41Z</time>
      </trkpt>
      <trkpt lat="43.31076" lon="-1.69116">
        <ele>352.2</ele>
        <time>2022-05-07T07:51:43Z</time>
      </trkpt>
      <trkpt lat="43.31075" lon="-1.69072">
        <ele>350.8</ele>
        <time>2022-05-07T07:51:47Z</time>
      </trkpt>
      <trkpt lat="43.31076" lon="-1.69054">
        <ele>349.8</ele>
        <time>2022-05-07T07:51:49Z</time>
      </trkpt>
      <trkpt lat="43.31075" lon="-1.69046">
        <ele>349.4</ele>
        <time>2022-05-07T07:51:50Z</time>
      </trkpt>
      <trkpt lat="43.31073" lon="-1.69038">
        <ele>349.2</ele>
        <time>2022-05-07T07:51:51Z</time>
      </trkpt>
      <trkpt lat="43.31067" lon="-1.69025">
        <ele>348.4</ele>
        <time>2022-05-07T07:51:53Z</time>
      </trkpt>
      <trkpt lat="43.31064" lon="-1.69019">
        <ele>348</ele>
        <time>2022-05-07T07:51:54Z</time>
      </trkpt>
      <trkpt lat="43.3106" lon="-1.69014">
        <ele>347.8</ele>
        <time>2022-05-07T07:51:55Z</time>
      </trkpt>
      <trkpt lat="43.31056" lon="-1.69007">
        <ele>347.2</ele>
        <time>2022-05-07T07:51:56Z</time>
      </trkpt>
      <trkpt lat="43.31048" lon="-1.68995">
        <ele>346.4</ele>
        <time>2022-05-07T07:51:58Z</time>
      </trkpt>
      <trkpt lat="43.31043" lon="-1.68989">
        <ele>346.2</ele>
        <time>2022-05-07T07:51:59Z</time>
      </trkpt>
      <trkpt lat="43.31039" lon="-1.68983">
        <ele>345.6</ele>
        <time>2022-05-07T07:52:00Z</time>
      </trkpt>
      <trkpt lat="43.31036" lon="-1.68976">
        <ele>345.4</ele>
        <time>2022-05-07T07:52:01Z</time>
      </trkpt>
      <trkpt lat="43.31028" lon="-1.68964">
        <ele>344.6</ele>
        <time>2022-05-07T07:52:03Z</time>
      </trkpt>
      <trkpt lat="43.31024" lon="-1.68959">
        <ele>344</ele>
        <time>2022-05-07T07:52:04Z</time>
      </trkpt>
      <trkpt lat="43.31011" lon="-1.68937">
        <ele>342.4</ele>
        <time>2022-05-07T07:52:08Z</time>
      </trkpt>
      <trkpt lat="43.31006" lon="-1.68927">
        <ele>341.2</ele>
        <time>2022-05-07T07:52:10Z</time>
      </trkpt>
      <trkpt lat="43.31003" lon="-1.68916">
        <ele>340.2</ele>
        <time>2022-05-07T07:52:12Z</time>
      </trkpt>
      <trkpt lat="43.31002" lon="-1.68909">
        <ele>339.4</ele>
        <time>2022-05-07T07:52:13Z</time>
      </trkpt>
      <trkpt lat="43.30998" lon="-1.68894">
        <ele>338.4</ele>
        <time>2022-05-07T07:52:15Z</time>
      </trkpt>
      <trkpt lat="43.30994" lon="-1.68878">
        <ele>337.4</ele>
        <time>2022-05-07T07:52:17Z</time>
      </trkpt>
      <trkpt lat="43.30991" lon="-1.6887">
        <ele>337</ele>
        <time>2022-05-07T07:52:18Z</time>
      </trkpt>
      <trkpt lat="43.30986" lon="-1.68855">
        <ele>336</ele>
        <time>2022-05-07T07:52:20Z</time>
      </trkpt>
      <trkpt lat="43.30984" lon="-1.68848">
        <ele>335.2</ele>
        <time>2022-05-07T07:52:21Z</time>
      </trkpt>
      <trkpt lat="43.30982" lon="-1.68841">
        <ele>335</ele>
        <time>2022-05-07T07:52:22Z</time>
      </trkpt>
      <trkpt lat="43.30975" lon="-1.68828">
        <ele>334.2</ele>
        <time>2022-05-07T07:52:24Z</time>
      </trkpt>
      <trkpt lat="43.3097" lon="-1.68823">
        <ele>333.8</ele>
        <time>2022-05-07T07:52:25Z</time>
      </trkpt>
      <trkpt lat="43.30966" lon="-1.68818">
        <ele>333.4</ele>
        <time>2022-05-07T07:52:26Z</time>
      </trkpt>
      <trkpt lat="43.30959" lon="-1.68807">
        <ele>332.8</ele>
        <time>2022-05-07T07:52:28Z</time>
      </trkpt>
      <trkpt lat="43.30955" lon="-1.68803">
        <ele>332.6</ele>
        <time>2022-05-07T07:52:29Z</time>
      </trkpt>
      <trkpt lat="43.30946" lon="-1.68789">
        <ele>332.4</ele>
        <time>2022-05-07T07:52:33Z</time>
      </trkpt>
      <trkpt lat="43.3094" lon="-1.68776">
        <ele>332.8</ele>
        <time>2022-05-07T07:52:38Z</time>
      </trkpt>
      <trkpt lat="43.30934" lon="-1.68758">
        <ele>333.4</ele>
        <time>2022-05-07T07:52:44Z</time>
      </trkpt>
      <trkpt lat="43.30932" lon="-1.68735">
        <ele>333.6</ele>
        <time>2022-05-07T07:52:51Z</time>
      </trkpt>
      <trkpt lat="43.30941" lon="-1.68718">
        <ele>333.4</ele>
        <time>2022-05-07T07:52:57Z</time>
      </trkpt>
      <trkpt lat="43.30943" lon="-1.68717">
        <ele>333.6</ele>
        <time>2022-05-07T07:52:58Z</time>
      </trkpt>
      <trkpt lat="43.30944" lon="-1.68718">
        <ele>333.6</ele>
        <time>2022-05-07T07:52:59Z</time>
      </trkpt>
      <trkpt lat="43.30945" lon="-1.68721">
        <ele>333.6</ele>
        <time>2022-05-07T07:53:01Z</time>
      </trkpt>
      <trkpt lat="43.30945" lon="-1.68722">
        <ele>333.6</ele>
        <time>2022-05-07T07:53:02Z</time>
      </trkpt>
      <trkpt lat="43.30941" lon="-1.68726">
        <ele>333.8</ele>
        <time>2022-05-07T07:53:07Z</time>
      </trkpt>
      <trkpt lat="43.3094" lon="-1.68726">
        <ele>333.8</ele>
        <time>2022-05-07T07:53:08Z</time>
      </trkpt>
      <trkpt lat="43.30939" lon="-1.68725">
        <ele>333.8</ele>
        <time>2022-05-07T07:53:09Z</time>
      </trkpt>
      <trkpt lat="43.3094" lon="-1.68717">
        <ele>333.8</ele>
        <time>2022-05-07T07:53:12Z</time>
      </trkpt>
      <trkpt lat="43.30943" lon="-1.68713">
        <ele>333.8</ele>
        <time>2022-05-07T07:53:15Z</time>
      </trkpt>
      <trkpt lat="43.30945" lon="-1.6871">
        <ele>333.6</ele>
        <time>2022-05-07T07:53:17Z</time>
      </trkpt>
      <trkpt lat="43.3095" lon="-1.68698">
        <ele>333.6</ele>
        <time>2022-05-07T07:53:23Z</time>
      </trkpt>
      <trkpt lat="43.3096" lon="-1.6869">
        <ele>333.4</ele>
        <time>2022-05-07T07:53:28Z</time>
      </trkpt>
      <trkpt lat="43.30963" lon="-1.6869">
        <ele>333.4</ele>
        <time>2022-05-07T07:53:29Z</time>
      </trkpt>
      <trkpt lat="43.3097" lon="-1.68698">
        <ele>332.8</ele>
        <time>2022-05-07T07:53:33Z</time>
      </trkpt>
      <trkpt lat="43.30974" lon="-1.68704">
        <ele>332.8</ele>
        <time>2022-05-07T07:53:36Z</time>
      </trkpt>
      <trkpt lat="43.30974" lon="-1.68708">
        <ele>332.8</ele>
        <time>2022-05-07T07:53:38Z</time>
      </trkpt>
      <trkpt lat="43.30974" lon="-1.68712">
        <ele>333.2</ele>
        <time>2022-05-07T07:53:41Z</time>
      </trkpt>
      <trkpt lat="43.30976" lon="-1.68714">
        <ele>333.6</ele>
        <time>2022-05-07T07:53:43Z</time>
      </trkpt>
      <trkpt lat="43.30978" lon="-1.68714">
        <ele>333.6</ele>
        <time>2022-05-07T07:53:44Z</time>
      </trkpt>
      <trkpt lat="43.30982" lon="-1.68714">
        <ele>333.8</ele>
        <time>2022-05-07T07:53:46Z</time>
      </trkpt>
      <trkpt lat="43.30984" lon="-1.68716">
        <ele>334.2</ele>
        <time>2022-05-07T07:53:47Z</time>
      </trkpt>
      <trkpt lat="43.30991" lon="-1.68726">
        <ele>335.2</ele>
        <time>2022-05-07T07:53:53Z</time>
      </trkpt>
      <trkpt lat="43.30995" lon="-1.68733">
        <ele>336.4</ele>
        <time>2022-05-07T07:53:57Z</time>
      </trkpt>
      <trkpt lat="43.30999" lon="-1.6874">
        <ele>337.2</ele>
        <time>2022-05-07T07:54:01Z</time>
      </trkpt>
      <trkpt lat="43.30999" lon="-1.68742">
        <ele>337.4</ele>
        <time>2022-05-07T07:54:02Z</time>
      </trkpt>
      <trkpt lat="43.31005" lon="-1.68752">
        <ele>338.6</ele>
        <time>2022-05-07T07:54:08Z</time>
      </trkpt>
      <trkpt lat="43.31006" lon="-1.68754">
        <ele>338.6</ele>
        <time>2022-05-07T07:54:09Z</time>
      </trkpt>
      <trkpt lat="43.3101" lon="-1.6876">
        <ele>339.6</ele>
        <time>2022-05-07T07:54:13Z</time>
      </trkpt>
      <trkpt lat="43.31012" lon="-1.68765">
        <ele>340</ele>
        <time>2022-05-07T07:54:16Z</time>
      </trkpt>
      <trkpt lat="43.31014" lon="-1.6877">
        <ele>340.8</ele>
        <time>2022-05-07T07:54:19Z</time>
      </trkpt>
      <trkpt lat="43.31019" lon="-1.6878">
        <ele>342</ele>
        <time>2022-05-07T07:54:25Z</time>
      </trkpt>
      <trkpt lat="43.31024" lon="-1.68791">
        <ele>343.6</ele>
        <time>2022-05-07T07:54:31Z</time>
      </trkpt>
      <trkpt lat="43.31027" lon="-1.68797">
        <ele>344</ele>
        <time>2022-05-07T07:54:34Z</time>
      </trkpt>
      <trkpt lat="43.31031" lon="-1.68805">
        <ele>344.8</ele>
        <time>2022-05-07T07:54:38Z</time>
      </trkpt>
      <trkpt lat="43.31037" lon="-1.68817">
        <ele>345</ele>
        <time>2022-05-07T07:54:44Z</time>
      </trkpt>
      <trkpt lat="43.31038" lon="-1.68822">
        <ele>345</ele>
        <time>2022-05-07T07:54:46Z</time>
      </trkpt>
      <trkpt lat="43.3104" lon="-1.68827">
        <ele>345.2</ele>
        <time>2022-05-07T07:54:49Z</time>
      </trkpt>
      <trkpt lat="43.31046" lon="-1.6884">
        <ele>345.2</ele>
        <time>2022-05-07T07:54:56Z</time>
      </trkpt>
      <trkpt lat="43.31049" lon="-1.6885">
        <ele>345.6</ele>
        <time>2022-05-07T07:55:01Z</time>
      </trkpt>
      <trkpt lat="43.31052" lon="-1.68854">
        <ele>345.6</ele>
        <time>2022-05-07T07:55:04Z</time>
      </trkpt>
      <trkpt lat="43.31055" lon="-1.68856">
        <ele>345.8</ele>
        <time>2022-05-07T07:55:06Z</time>
      </trkpt>
      <trkpt lat="43.3106" lon="-1.68865">
        <ele>346</ele>
        <time>2022-05-07T07:55:12Z</time>
      </trkpt>
      <trkpt lat="43.31061" lon="-1.68867">
        <ele>346</ele>
        <time>2022-05-07T07:55:13Z</time>
      </trkpt>
      <trkpt lat="43.31062" lon="-1.68876">
        <ele>346.2</ele>
        <time>2022-05-07T07:55:18Z</time>
      </trkpt>
      <trkpt lat="43.31064" lon="-1.68881">
        <ele>346.2</ele>
        <time>2022-05-07T07:55:21Z</time>
      </trkpt>
      <trkpt lat="43.31063" lon="-1.68884">
        <ele>346.4</ele>
        <time>2022-05-07T07:55:23Z</time>
      </trkpt>
      <trkpt lat="43.31063" lon="-1.68885">
        <ele>346.4</ele>
        <time>2022-05-07T07:55:24Z</time>
      </trkpt>
      <trkpt lat="43.31063" lon="-1.68887">
        <ele>346.6</ele>
        <time>2022-05-07T07:55:25Z</time>
      </trkpt>
      <trkpt lat="43.31064" lon="-1.6889">
        <ele>346.6</ele>
        <time>2022-05-07T07:55:27Z</time>
      </trkpt>
      <trkpt lat="43.31066" lon="-1.68891">
        <ele>346.6</ele>
        <time>2022-05-07T07:55:28Z</time>
      </trkpt>
      <trkpt lat="43.31076" lon="-1.68897">
        <ele>347</ele>
        <time>2022-05-07T07:55:36Z</time>
      </trkpt>
      <trkpt lat="43.31077" lon="-1.68898">
        <ele>347.2</ele>
        <time>2022-05-07T07:55:37Z</time>
      </trkpt>
      <trkpt lat="43.3108" lon="-1.68909">
        <ele>348</ele>
        <time>2022-05-07T07:55:43Z</time>
      </trkpt>
      <trkpt lat="43.31081" lon="-1.6891">
        <ele>348.2</ele>
        <time>2022-05-07T07:55:44Z</time>
      </trkpt>
      <trkpt lat="43.31086" lon="-1.68919">
        <ele>349.2</ele>
        <time>2022-05-07T07:55:50Z</time>
      </trkpt>
      <trkpt lat="43.31088" lon="-1.68923">
        <ele>349.6</ele>
        <time>2022-05-07T07:55:52Z</time>
      </trkpt>
      <trkpt lat="43.31093" lon="-1.68931">
        <ele>350.2</ele>
        <time>2022-05-07T07:55:57Z</time>
      </trkpt>
      <trkpt lat="43.31094" lon="-1.68932">
        <ele>350.4</ele>
        <time>2022-05-07T07:55:58Z</time>
      </trkpt>
      <trkpt lat="43.31095" lon="-1.68934">
        <ele>350.8</ele>
        <time>2022-05-07T07:55:59Z</time>
      </trkpt>
      <trkpt lat="43.31097" lon="-1.68937">
        <ele>351.2</ele>
        <time>2022-05-07T07:56:01Z</time>
      </trkpt>
      <trkpt lat="43.31098" lon="-1.6894">
        <ele>351.6</ele>
        <time>2022-05-07T07:56:03Z</time>
      </trkpt>
      <trkpt lat="43.31101" lon="-1.68943">
        <ele>352.4</ele>
        <time>2022-05-07T07:56:06Z</time>
      </trkpt>
      <trkpt lat="43.31106" lon="-1.6895">
        <ele>353.2</ele>
        <time>2022-05-07T07:56:12Z</time>
      </trkpt>
      <trkpt lat="43.31107" lon="-1.6895">
        <ele>353.4</ele>
        <time>2022-05-07T07:56:13Z</time>
      </trkpt>
      <trkpt lat="43.31109" lon="-1.68953">
        <ele>354</ele>
        <time>2022-05-07T07:56:15Z</time>
      </trkpt>
      <trkpt lat="43.31108" lon="-1.68958">
        <ele>354.4</ele>
        <time>2022-05-07T07:56:17Z</time>
      </trkpt>
      <trkpt lat="43.31107" lon="-1.68959">
        <ele>354.6</ele>
        <time>2022-05-07T07:56:18Z</time>
      </trkpt>
      <trkpt lat="43.31104" lon="-1.68957">
        <ele>354.8</ele>
        <time>2022-05-07T07:56:20Z</time>
      </trkpt>
      <trkpt lat="43.31103" lon="-1.68955">
        <ele>354.8</ele>
        <time>2022-05-07T07:56:21Z</time>
      </trkpt>
      <trkpt lat="43.31094" lon="-1.6894">
        <ele>355</ele>
        <time>2022-05-07T07:56:26Z</time>
      </trkpt>
      <trkpt lat="43.31084" lon="-1.68924">
        <ele>353.8</ele>
        <time>2022-05-07T07:56:32Z</time>
      </trkpt>
      <trkpt lat="43.31082" lon="-1.68921">
        <ele>353.4</ele>
        <time>2022-05-07T07:56:33Z</time>
      </trkpt>
      <trkpt lat="43.31078" lon="-1.68913">
        <ele>352.6</ele>
        <time>2022-05-07T07:56:36Z</time>
      </trkpt>
      <trkpt lat="43.31074" lon="-1.68906">
        <ele>351.2</ele>
        <time>2022-05-07T07:56:39Z</time>
      </trkpt>
      <trkpt lat="43.31068" lon="-1.68897">
        <ele>350.2</ele>
        <time>2022-05-07T07:56:43Z</time>
      </trkpt>
      <trkpt lat="43.31063" lon="-1.68886">
        <ele>349.2</ele>
        <time>2022-05-07T07:56:46Z</time>
      </trkpt>
      <trkpt lat="43.31062" lon="-1.68882">
        <ele>349</ele>
        <time>2022-05-07T07:56:47Z</time>
      </trkpt>
      <trkpt lat="43.31052" lon="-1.68863">
        <ele>348.2</ele>
        <time>2022-05-07T07:56:51Z</time>
      </trkpt>
      <trkpt lat="43.3105" lon="-1.68858">
        <ele>348</ele>
        <time>2022-05-07T07:56:52Z</time>
      </trkpt>
      <trkpt lat="43.31045" lon="-1.68846">
        <ele>347.6</ele>
        <time>2022-05-07T07:56:54Z</time>
      </trkpt>
      <trkpt lat="43.31037" lon="-1.68831">
        <ele>346.8</ele>
        <time>2022-05-07T07:56:57Z</time>
      </trkpt>
      <trkpt lat="43.31035" lon="-1.68826">
        <ele>346.6</ele>
        <time>2022-05-07T07:56:58Z</time>
      </trkpt>
      <trkpt lat="43.31023" lon="-1.68801">
        <ele>346.2</ele>
        <time>2022-05-07T07:57:03Z</time>
      </trkpt>
      <trkpt lat="43.31013" lon="-1.6878">
        <ele>345.8</ele>
        <time>2022-05-07T07:57:07Z</time>
      </trkpt>
      <trkpt lat="43.31007" lon="-1.68768">
        <ele>345.4</ele>
        <time>2022-05-07T07:57:09Z</time>
      </trkpt>
      <trkpt lat="43.30994" lon="-1.68743">
        <ele>344.4</ele>
        <time>2022-05-07T07:57:13Z</time>
      </trkpt>
      <trkpt lat="43.30983" lon="-1.68726">
        <ele>342.8</ele>
        <time>2022-05-07T07:57:16Z</time>
      </trkpt>
      <trkpt lat="43.3098" lon="-1.6872">
        <ele>342</ele>
        <time>2022-05-07T07:57:17Z</time>
      </trkpt>
      <trkpt lat="43.30977" lon="-1.68714">
        <ele>341.6</ele>
        <time>2022-05-07T07:57:18Z</time>
      </trkpt>
      <trkpt lat="43.30974" lon="-1.68709">
        <ele>340.4</ele>
        <time>2022-05-07T07:57:19Z</time>
      </trkpt>
      <trkpt lat="43.30968" lon="-1.68699">
        <ele>338.8</ele>
        <time>2022-05-07T07:57:21Z</time>
      </trkpt>
      <trkpt lat="43.30963" lon="-1.68689">
        <ele>337.4</ele>
        <time>2022-05-07T07:57:23Z</time>
      </trkpt>
      <trkpt lat="43.30961" lon="-1.68684">
        <ele>337</ele>
        <time>2022-05-07T07:57:24Z</time>
      </trkpt>
      <trkpt lat="43.30959" lon="-1.68678">
        <ele>335.8</ele>
        <time>2022-05-07T07:57:25Z</time>
      </trkpt>
      <trkpt lat="43.30955" lon="-1.68667">
        <ele>334.2</ele>
        <time>2022-05-07T07:57:27Z</time>
      </trkpt>
      <trkpt lat="43.3095" lon="-1.6865">
        <ele>332.6</ele>
        <time>2022-05-07T07:57:30Z</time>
      </trkpt>
      <trkpt lat="43.30949" lon="-1.68645">
        <ele>332.2</ele>
        <time>2022-05-07T07:57:31Z</time>
      </trkpt>
      <trkpt lat="43.30948" lon="-1.6864">
        <ele>331.4</ele>
        <time>2022-05-07T07:57:32Z</time>
      </trkpt>
      <trkpt lat="43.30944" lon="-1.68623">
        <ele>330.2</ele>
        <time>2022-05-07T07:57:35Z</time>
      </trkpt>
      <trkpt lat="43.30941" lon="-1.68605">
        <ele>328.8</ele>
        <time>2022-05-07T07:57:38Z</time>
      </trkpt>
      <trkpt lat="43.30941" lon="-1.68598">
        <ele>328.4</ele>
        <time>2022-05-07T07:57:39Z</time>
      </trkpt>
      <trkpt lat="43.3094" lon="-1.68593">
        <ele>327.6</ele>
        <time>2022-05-07T07:57:40Z</time>
      </trkpt>
      <trkpt lat="43.30939" lon="-1.68574">
        <ele>326.4</ele>
        <time>2022-05-07T07:57:43Z</time>
      </trkpt>
      <trkpt lat="43.30938" lon="-1.68556">
        <ele>324.8</ele>
        <time>2022-05-07T07:57:46Z</time>
      </trkpt>
      <trkpt lat="43.30939" lon="-1.68544">
        <ele>323.8</ele>
        <time>2022-05-07T07:57:48Z</time>
      </trkpt>
      <trkpt lat="43.30941" lon="-1.68529">
        <ele>322.4</ele>
        <time>2022-05-07T07:57:51Z</time>
      </trkpt>
      <trkpt lat="43.30944" lon="-1.68516">
        <ele>321</ele>
        <time>2022-05-07T07:57:54Z</time>
      </trkpt>
      <trkpt lat="43.30947" lon="-1.68502">
        <ele>319.8</ele>
        <time>2022-05-07T07:57:57Z</time>
      </trkpt>
      <trkpt lat="43.3095" lon="-1.68488">
        <ele>319.2</ele>
        <time>2022-05-07T07:58:00Z</time>
      </trkpt>
      <trkpt lat="43.30952" lon="-1.68478">
        <ele>318.8</ele>
        <time>2022-05-07T07:58:02Z</time>
      </trkpt>
      <trkpt lat="43.30958" lon="-1.68454">
        <ele>318.2</ele>
        <time>2022-05-07T07:58:07Z</time>
      </trkpt>
      <trkpt lat="43.30962" lon="-1.68439">
        <ele>317.6</ele>
        <time>2022-05-07T07:58:10Z</time>
      </trkpt>
      <trkpt lat="43.30966" lon="-1.68431">
        <ele>316.8</ele>
        <time>2022-05-07T07:58:12Z</time>
      </trkpt>
      <trkpt lat="43.3097" lon="-1.68429">
        <ele>316.6</ele>
        <time>2022-05-07T07:58:13Z</time>
      </trkpt>
      <trkpt lat="43.30976" lon="-1.6843">
        <ele>316.2</ele>
        <time>2022-05-07T07:58:15Z</time>
      </trkpt>
      <trkpt lat="43.3099" lon="-1.68434">
        <ele>315.6</ele>
        <time>2022-05-07T07:58:19Z</time>
      </trkpt>
      <trkpt lat="43.31005" lon="-1.68439">
        <ele>315</ele>
        <time>2022-05-07T07:58:23Z</time>
      </trkpt>
      <trkpt lat="43.31023" lon="-1.68446">
        <ele>314.4</ele>
        <time>2022-05-07T07:58:28Z</time>
      </trkpt>
      <trkpt lat="43.31034" lon="-1.68451">
        <ele>313.8</ele>
        <time>2022-05-07T07:58:32Z</time>
      </trkpt>
      <trkpt lat="43.31038" lon="-1.68452">
        <ele>313.4</ele>
        <time>2022-05-07T07:58:36Z</time>
      </trkpt>
      <trkpt lat="43.31038" lon="-1.68452">
        <ele>313</ele>
        <time>2022-05-07T07:58:37Z</time>
      </trkpt>
      <trkpt lat="43.31041" lon="-1.68449">
        <ele>312.4</ele>
        <time>2022-05-07T07:58:43Z</time>
      </trkpt>
      <trkpt lat="43.31043" lon="-1.6845">
        <ele>312.4</ele>
        <time>2022-05-07T07:58:50Z</time>
      </trkpt>
      <trkpt lat="43.31047" lon="-1.68447">
        <ele>312.4</ele>
        <time>2022-05-07T07:58:56Z</time>
      </trkpt>
      <trkpt lat="43.31048" lon="-1.68447">
        <ele>312.4</ele>
        <time>2022-05-07T07:58:57Z</time>
      </trkpt>
      <trkpt lat="43.31057" lon="-1.68443">
        <ele>313.2</ele>
        <time>2022-05-07T07:59:06Z</time>
      </trkpt>
      <trkpt lat="43.31059" lon="-1.68444">
        <ele>313.2</ele>
        <time>2022-05-07T07:59:08Z</time>
      </trkpt>
      <trkpt lat="43.31062" lon="-1.68447">
        <ele>313.8</ele>
        <time>2022-05-07T07:59:12Z</time>
      </trkpt>
      <trkpt lat="43.31064" lon="-1.68446">
        <ele>314.2</ele>
        <time>2022-05-07T07:59:15Z</time>
      </trkpt>
      <trkpt lat="43.31064" lon="-1.68445">
        <ele>314.2</ele>
        <time>2022-05-07T07:59:17Z</time>
      </trkpt>
      <trkpt lat="43.31066" lon="-1.68443">
        <ele>315.2</ele>
        <time>2022-05-07T07:59:24Z</time>
      </trkpt>
      <trkpt lat="43.31068" lon="-1.68442">
        <ele>315.2</ele>
        <time>2022-05-07T07:59:25Z</time>
      </trkpt>
      <trkpt lat="43.31078" lon="-1.68434">
        <ele>315.8</ele>
        <time>2022-05-07T07:59:31Z</time>
      </trkpt>
      <trkpt lat="43.31081" lon="-1.68433">
        <ele>316.4</ele>
        <time>2022-05-07T07:59:33Z</time>
      </trkpt>
      <trkpt lat="43.31086" lon="-1.68428">
        <ele>317.4</ele>
        <time>2022-05-07T07:59:37Z</time>
      </trkpt>
      <trkpt lat="43.31088" lon="-1.68427">
        <ele>317.6</ele>
        <time>2022-05-07T07:59:38Z</time>
      </trkpt>
      <trkpt lat="43.31097" lon="-1.68425">
        <ele>318.6</ele>
        <time>2022-05-07T07:59:43Z</time>
      </trkpt>
      <trkpt lat="43.31101" lon="-1.68423">
        <ele>319.4</ele>
        <time>2022-05-07T07:59:46Z</time>
      </trkpt>
      <trkpt lat="43.31104" lon="-1.68424">
        <ele>319.8</ele>
        <time>2022-05-07T07:59:48Z</time>
      </trkpt>
      <trkpt lat="43.31113" lon="-1.68426">
        <ele>320.6</ele>
        <time>2022-05-07T07:59:54Z</time>
      </trkpt>
      <trkpt lat="43.31121" lon="-1.68425">
        <ele>320.8</ele>
        <time>2022-05-07T07:59:59Z</time>
      </trkpt>
      <trkpt lat="43.31129" lon="-1.68425">
        <ele>321.2</ele>
        <time>2022-05-07T08:00:03Z</time>
      </trkpt>
      <trkpt lat="43.31131" lon="-1.68425">
        <ele>321.2</ele>
        <time>2022-05-07T08:00:04Z</time>
      </trkpt>
      <trkpt lat="43.31142" lon="-1.68424">
        <ele>322</ele>
        <time>2022-05-07T08:00:11Z</time>
      </trkpt>
      <trkpt lat="43.31147" lon="-1.68423">
        <ele>322.2</ele>
        <time>2022-05-07T08:00:14Z</time>
      </trkpt>
      <trkpt lat="43.31159" lon="-1.6842">
        <ele>323</ele>
        <time>2022-05-07T08:00:22Z</time>
      </trkpt>
      <trkpt lat="43.3116" lon="-1.68419">
        <ele>323</ele>
        <time>2022-05-07T08:00:23Z</time>
      </trkpt>
      <trkpt lat="43.31164" lon="-1.68415">
        <ele>323.8</ele>
        <time>2022-05-07T08:00:30Z</time>
      </trkpt>
      <trkpt lat="43.31164" lon="-1.68415">
        <ele>324</ele>
        <time>2022-05-07T08:00:31Z</time>
      </trkpt>
      <trkpt lat="43.31163" lon="-1.68415">
        <ele>324.4</ele>
        <time>2022-05-07T08:01:26Z</time>
      </trkpt>
      <trkpt lat="43.31163" lon="-1.68415">
        <ele>324.2</ele>
        <time>2022-05-07T08:02:13Z</time>
      </trkpt>
      <trkpt lat="43.31163" lon="-1.68415">
        <ele>324.4</ele>
        <time>2022-05-07T08:02:17Z</time>
      </trkpt>
      <trkpt lat="43.31163" lon="-1.68415">
        <ele>325.2</ele>
        <time>2022-05-07T08:02:21Z</time>
      </trkpt>
      <trkpt lat="43.31162" lon="-1.68412">
        <ele>326.4</ele>
        <time>2022-05-07T08:02:33Z</time>
      </trkpt>
      <trkpt lat="43.31162" lon="-1.68408">
        <ele>327.4</ele>
        <time>2022-05-07T08:02:45Z</time>
      </trkpt>
      <trkpt lat="43.31161" lon="-1.68401">
        <ele>328.4</ele>
        <time>2022-05-07T08:02:50Z</time>
      </trkpt>
      <trkpt lat="43.31161" lon="-1.684">
        <ele>328.8</ele>
        <time>2022-05-07T08:02:51Z</time>
      </trkpt>
      <trkpt lat="43.3116" lon="-1.68394">
        <ele>330</ele>
        <time>2022-05-07T08:02:56Z</time>
      </trkpt>
      <trkpt lat="43.31159" lon="-1.6839">
        <ele>331.2</ele>
        <time>2022-05-07T08:03:00Z</time>
      </trkpt>
      <trkpt lat="43.31159" lon="-1.68387">
        <ele>331.8</ele>
        <time>2022-05-07T08:03:02Z</time>
      </trkpt>
      <trkpt lat="43.31158" lon="-1.68385">
        <ele>332.6</ele>
        <time>2022-05-07T08:03:04Z</time>
      </trkpt>
      <trkpt lat="43.31158" lon="-1.6838">
        <ele>333.8</ele>
        <time>2022-05-07T08:03:09Z</time>
      </trkpt>
      <trkpt lat="43.31157" lon="-1.68376">
        <ele>335</ele>
        <time>2022-05-07T08:03:13Z</time>
      </trkpt>
      <trkpt lat="43.31157" lon="-1.68374">
        <ele>335.8</ele>
        <time>2022-05-07T08:03:15Z</time>
      </trkpt>
      <trkpt lat="43.31157" lon="-1.68372">
        <ele>336.2</ele>
        <time>2022-05-07T08:03:17Z</time>
      </trkpt>
      <trkpt lat="43.31156" lon="-1.68367">
        <ele>337.4</ele>
        <time>2022-05-07T08:03:22Z</time>
      </trkpt>
      <trkpt lat="43.31155" lon="-1.68365">
        <ele>338</ele>
        <time>2022-05-07T08:03:24Z</time>
      </trkpt>
      <trkpt lat="43.31155" lon="-1.68364">
        <ele>338.6</ele>
        <time>2022-05-07T08:03:26Z</time>
      </trkpt>
      <trkpt lat="43.31154" lon="-1.68361">
        <ele>339.6</ele>
        <time>2022-05-07T08:03:29Z</time>
      </trkpt>
      <trkpt lat="43.31154" lon="-1.68359">
        <ele>340.6</ele>
        <time>2022-05-07T08:03:33Z</time>
      </trkpt>
      <trkpt lat="43.31154" lon="-1.68359">
        <ele>341</ele>
        <time>2022-05-07T08:03:35Z</time>
      </trkpt>
      <trkpt lat="43.31153" lon="-1.68356">
        <ele>341.8</ele>
        <time>2022-05-07T08:03:38Z</time>
      </trkpt>
      <trkpt lat="43.31153" lon="-1.68351">
        <ele>343</ele>
        <time>2022-05-07T08:03:44Z</time>
      </trkpt>
      <trkpt lat="43.31153" lon="-1.68347">
        <ele>344.2</ele>
        <time>2022-05-07T08:03:48Z</time>
      </trkpt>
      <trkpt lat="43.31153" lon="-1.68346">
        <ele>345.2</ele>
        <time>2022-05-07T08:03:53Z</time>
      </trkpt>
      <trkpt lat="43.31155" lon="-1.68342">
        <ele>346.2</ele>
        <time>2022-05-07T08:04:02Z</time>
      </trkpt>
      <trkpt lat="43.31155" lon="-1.68342">
        <ele>346.2</ele>
        <time>2022-05-07T08:04:03Z</time>
      </trkpt>
      <trkpt lat="43.31155" lon="-1.68342">
        <ele>347.4</ele>
        <time>2022-05-07T08:04:12Z</time>
      </trkpt>
      <trkpt lat="43.31156" lon="-1.6834">
        <ele>348.4</ele>
        <time>2022-05-07T08:04:23Z</time>
      </trkpt>
      <trkpt lat="43.31157" lon="-1.68339">
        <ele>348.6</ele>
        <time>2022-05-07T08:04:25Z</time>
      </trkpt>
      <trkpt lat="43.31159" lon="-1.68334">
        <ele>349.4</ele>
        <time>2022-05-07T08:04:37Z</time>
      </trkpt>
      <trkpt lat="43.3116" lon="-1.68332">
        <ele>350.4</ele>
        <time>2022-05-07T08:04:47Z</time>
      </trkpt>
      <trkpt lat="43.31161" lon="-1.6833">
        <ele>351.6</ele>
        <time>2022-05-07T08:04:56Z</time>
      </trkpt>
      <trkpt lat="43.31161" lon="-1.68327">
        <ele>352.8</ele>
        <time>2022-05-07T08:05:04Z</time>
      </trkpt>
      <trkpt lat="43.3116" lon="-1.68324">
        <ele>354</ele>
        <time>2022-05-07T08:05:14Z</time>
      </trkpt>
      <trkpt lat="43.31158" lon="-1.68323">
        <ele>355</ele>
        <time>2022-05-07T08:05:21Z</time>
      </trkpt>
      <trkpt lat="43.31155" lon="-1.6832">
        <ele>356.2</ele>
        <time>2022-05-07T08:05:42Z</time>
      </trkpt>
      <trkpt lat="43.31154" lon="-1.68319">
        <ele>357.2</ele>
        <time>2022-05-07T08:05:57Z</time>
      </trkpt>
      <trkpt lat="43.31154" lon="-1.68316">
        <ele>358.6</ele>
        <time>2022-05-07T08:06:12Z</time>
      </trkpt>
      <trkpt lat="43.31154" lon="-1.68314">
        <ele>359.6</ele>
        <time>2022-05-07T08:06:23Z</time>
      </trkpt>
      <trkpt lat="43.31154" lon="-1.68313">
        <ele>360.6</ele>
        <time>2022-05-07T08:06:32Z</time>
      </trkpt>
      <trkpt lat="43.31153" lon="-1.68311">
        <ele>362</ele>
        <time>2022-05-07T08:06:41Z</time>
      </trkpt>
      <trkpt lat="43.31153" lon="-1.68309">
        <ele>363</ele>
        <time>2022-05-07T08:07:01Z</time>
      </trkpt>
      <trkpt lat="43.31155" lon="-1.68304">
        <ele>363.8</ele>
        <time>2022-05-07T08:07:19Z</time>
      </trkpt>
      <trkpt lat="43.31155" lon="-1.68304">
        <ele>364</ele>
        <time>2022-05-07T08:07:23Z</time>
      </trkpt>
      <trkpt lat="43.31155" lon="-1.683">
        <ele>364.8</ele>
        <time>2022-05-07T08:07:32Z</time>
      </trkpt>
      <trkpt lat="43.31155" lon="-1.683">
        <ele>365.2</ele>
        <time>2022-05-07T08:07:34Z</time>
      </trkpt>
      <trkpt lat="43.31157" lon="-1.68288">
        <ele>366.4</ele>
        <time>2022-05-07T08:07:48Z</time>
      </trkpt>
      <trkpt lat="43.31158" lon="-1.68284">
        <ele>366.6</ele>
        <time>2022-05-07T08:07:51Z</time>
      </trkpt>
      <trkpt lat="43.31159" lon="-1.68277">
        <ele>367.4</ele>
        <time>2022-05-07T08:07:57Z</time>
      </trkpt>
      <trkpt lat="43.3116" lon="-1.68275">
        <ele>368</ele>
        <time>2022-05-07T08:08:03Z</time>
      </trkpt>
      <trkpt lat="43.31159" lon="-1.68272">
        <ele>368.4</ele>
        <time>2022-05-07T08:08:07Z</time>
      </trkpt>
      <trkpt lat="43.31159" lon="-1.68272">
        <ele>369.4</ele>
        <time>2022-05-07T08:08:15Z</time>
      </trkpt>
      <trkpt lat="43.31159" lon="-1.68272">
        <ele>370</ele>
        <time>2022-05-07T08:08:20Z</time>
      </trkpt>
      <trkpt lat="43.31159" lon="-1.68272">
        <ele>370.6</ele>
        <time>2022-05-07T08:08:25Z</time>
      </trkpt>
      <trkpt lat="43.31159" lon="-1.68266">
        <ele>371.6</ele>
        <time>2022-05-07T08:08:36Z</time>
      </trkpt>
      <trkpt lat="43.31159" lon="-1.68263">
        <ele>372.2</ele>
        <time>2022-05-07T08:08:39Z</time>
      </trkpt>
      <trkpt lat="43.31159" lon="-1.6826">
        <ele>372.8</ele>
        <time>2022-05-07T08:08:42Z</time>
      </trkpt>
      <trkpt lat="43.31159" lon="-1.6826">
        <ele>374</ele>
        <time>2022-05-07T08:08:53Z</time>
      </trkpt>
      <trkpt lat="43.31159" lon="-1.6826">
        <ele>374.2</ele>
        <time>2022-05-07T08:08:55Z</time>
      </trkpt>
      <trkpt lat="43.31158" lon="-1.68258">
        <ele>375</ele>
        <time>2022-05-07T08:09:01Z</time>
      </trkpt>
      <trkpt lat="43.31155" lon="-1.68255">
        <ele>376</ele>
        <time>2022-05-07T08:09:09Z</time>
      </trkpt>
      <trkpt lat="43.31151" lon="-1.68247">
        <ele>376.8</ele>
        <time>2022-05-07T08:12:20Z</time>
      </trkpt>
      <trkpt lat="43.31154" lon="-1.68239">
        <ele>376.8</ele>
        <time>2022-05-07T08:12:23Z</time>
      </trkpt>
      <trkpt lat="43.31153" lon="-1.6823">
        <ele>377.4</ele>
        <time>2022-05-07T08:12:26Z</time>
      </trkpt>
      <trkpt lat="43.31152" lon="-1.68228">
        <ele>377.6</ele>
        <time>2022-05-07T08:12:27Z</time>
      </trkpt>
      <trkpt lat="43.3115" lon="-1.68227">
        <ele>377.8</ele>
        <time>2022-05-07T08:12:28Z</time>
      </trkpt>
      <trkpt lat="43.31146" lon="-1.68225">
        <ele>378.8</ele>
        <time>2022-05-07T08:12:30Z</time>
      </trkpt>
      <trkpt lat="43.31139" lon="-1.68224">
        <ele>380</ele>
        <time>2022-05-07T08:12:34Z</time>
      </trkpt>
      <trkpt lat="43.31136" lon="-1.68223">
        <ele>380.4</ele>
        <time>2022-05-07T08:12:36Z</time>
      </trkpt>
      <trkpt lat="43.31129" lon="-1.6822">
        <ele>381.2</ele>
        <time>2022-05-07T08:12:40Z</time>
      </trkpt>
      <trkpt lat="43.31119" lon="-1.68216">
        <ele>382.2</ele>
        <time>2022-05-07T08:12:46Z</time>
      </trkpt>
      <trkpt lat="43.31117" lon="-1.68215">
        <ele>382.2</ele>
        <time>2022-05-07T08:12:47Z</time>
      </trkpt>
      <trkpt lat="43.31105" lon="-1.68209">
        <ele>383.2</ele>
        <time>2022-05-07T08:12:55Z</time>
      </trkpt>
      <trkpt lat="43.31106" lon="-1.68205">
        <ele>383.4</ele>
        <time>2022-05-07T08:12:57Z</time>
      </trkpt>
      <trkpt lat="43.31108" lon="-1.68203">
        <ele>383.8</ele>
        <time>2022-05-07T08:12:59Z</time>
      </trkpt>
      <trkpt lat="43.31114" lon="-1.682">
        <ele>384.4</ele>
        <time>2022-05-07T08:13:03Z</time>
      </trkpt>
      <trkpt lat="43.31117" lon="-1.68198">
        <ele>384.8</ele>
        <time>2022-05-07T08:13:05Z</time>
      </trkpt>
      <trkpt lat="43.31124" lon="-1.68194">
        <ele>385.6</ele>
        <time>2022-05-07T08:13:10Z</time>
      </trkpt>
      <trkpt lat="43.31128" lon="-1.68192">
        <ele>386.2</ele>
        <time>2022-05-07T08:13:13Z</time>
      </trkpt>
      <trkpt lat="43.31139" lon="-1.68186">
        <ele>386.8</ele>
        <time>2022-05-07T08:13:20Z</time>
      </trkpt>
      <trkpt lat="43.31144" lon="-1.68182">
        <ele>386.8</ele>
        <time>2022-05-07T08:13:24Z</time>
      </trkpt>
      <trkpt lat="43.31148" lon="-1.6818">
        <ele>387.2</ele>
        <time>2022-05-07T08:13:27Z</time>
      </trkpt>
      <trkpt lat="43.31156" lon="-1.68176">
        <ele>387.8</ele>
        <time>2022-05-07T08:13:32Z</time>
      </trkpt>
      <trkpt lat="43.31161" lon="-1.68175">
        <ele>387.8</ele>
        <time>2022-05-07T08:13:35Z</time>
      </trkpt>
      <trkpt lat="43.31163" lon="-1.68172">
        <ele>388.2</ele>
        <time>2022-05-07T08:13:37Z</time>
      </trkpt>
      <trkpt lat="43.31172" lon="-1.6817">
        <ele>388.8</ele>
        <time>2022-05-07T08:13:42Z</time>
      </trkpt>
      <trkpt lat="43.31186" lon="-1.68167">
        <ele>389.4</ele>
        <time>2022-05-07T08:13:49Z</time>
      </trkpt>
      <trkpt lat="43.31192" lon="-1.68166">
        <ele>389.8</ele>
        <time>2022-05-07T08:13:52Z</time>
      </trkpt>
      <trkpt lat="43.31202" lon="-1.68164">
        <ele>390.2</ele>
        <time>2022-05-07T08:13:57Z</time>
      </trkpt>
      <trkpt lat="43.31212" lon="-1.68161">
        <ele>390.6</ele>
        <time>2022-05-07T08:14:03Z</time>
      </trkpt>
      <trkpt lat="43.31214" lon="-1.68162">
        <ele>390.8</ele>
        <time>2022-05-07T08:14:04Z</time>
      </trkpt>
      <trkpt lat="43.31215" lon="-1.68162">
        <ele>390.8</ele>
        <time>2022-05-07T08:14:05Z</time>
      </trkpt>
      <trkpt lat="43.31225" lon="-1.68162">
        <ele>392</ele>
        <time>2022-05-07T08:14:11Z</time>
      </trkpt>
      <trkpt lat="43.31229" lon="-1.68161">
        <ele>392.2</ele>
        <time>2022-05-07T08:14:13Z</time>
      </trkpt>
      <trkpt lat="43.31236" lon="-1.68161">
        <ele>393</ele>
        <time>2022-05-07T08:14:17Z</time>
      </trkpt>
      <trkpt lat="43.31243" lon="-1.68163">
        <ele>393.8</ele>
        <time>2022-05-07T08:14:21Z</time>
      </trkpt>
      <trkpt lat="43.31256" lon="-1.68164">
        <ele>394.2</ele>
        <time>2022-05-07T08:14:28Z</time>
      </trkpt>
      <trkpt lat="43.3126" lon="-1.68164">
        <ele>394.4</ele>
        <time>2022-05-07T08:14:30Z</time>
      </trkpt>
      <trkpt lat="43.31279" lon="-1.68164">
        <ele>394.6</ele>
        <time>2022-05-07T08:14:38Z</time>
      </trkpt>
      <trkpt lat="43.31301" lon="-1.68161">
        <ele>394.2</ele>
        <time>2022-05-07T08:14:44Z</time>
      </trkpt>
      <trkpt lat="43.31321" lon="-1.6816">
        <ele>393.6</ele>
        <time>2022-05-07T08:14:50Z</time>
      </trkpt>
      <trkpt lat="43.31332" lon="-1.68161">
        <ele>393.2</ele>
        <time>2022-05-07T08:14:54Z</time>
      </trkpt>
      <trkpt lat="43.31342" lon="-1.68162">
        <ele>392.8</ele>
        <time>2022-05-07T08:14:57Z</time>
      </trkpt>
      <trkpt lat="43.31356" lon="-1.68161">
        <ele>392.2</ele>
        <time>2022-05-07T08:15:01Z</time>
      </trkpt>
      <trkpt lat="43.31363" lon="-1.68162">
        <ele>392</ele>
        <time>2022-05-07T08:15:03Z</time>
      </trkpt>
      <trkpt lat="43.31385" lon="-1.68167">
        <ele>391.2</ele>
        <time>2022-05-07T08:15:08Z</time>
      </trkpt>
      <trkpt lat="43.31389" lon="-1.68167">
        <ele>391.2</ele>
        <time>2022-05-07T08:15:09Z</time>
      </trkpt>
      <trkpt lat="43.31402" lon="-1.68165">
        <ele>390.8</ele>
        <time>2022-05-07T08:15:13Z</time>
      </trkpt>
      <trkpt lat="43.31411" lon="-1.68163">
        <ele>390.6</ele>
        <time>2022-05-07T08:15:17Z</time>
      </trkpt>
      <trkpt lat="43.31431" lon="-1.68162">
        <ele>390.6</ele>
        <time>2022-05-07T08:15:23Z</time>
      </trkpt>
      <trkpt lat="43.31444" lon="-1.6816">
        <ele>390.6</ele>
        <time>2022-05-07T08:15:28Z</time>
      </trkpt>
      <trkpt lat="43.31455" lon="-1.6816">
        <ele>390.4</ele>
        <time>2022-05-07T08:15:32Z</time>
      </trkpt>
      <trkpt lat="43.31456" lon="-1.68161">
        <ele>390.4</ele>
        <time>2022-05-07T08:15:33Z</time>
      </trkpt>
      <trkpt lat="43.31457" lon="-1.68162">
        <ele>390.2</ele>
        <time>2022-05-07T08:15:35Z</time>
      </trkpt>
      <trkpt lat="43.31457" lon="-1.68162">
        <ele>390.2</ele>
        <time>2022-05-07T08:15:38Z</time>
      </trkpt>
      <trkpt lat="43.3146" lon="-1.68163">
        <ele>390</ele>
        <time>2022-05-07T08:15:44Z</time>
      </trkpt>
      <trkpt lat="43.31461" lon="-1.68163">
        <ele>389.8</ele>
        <time>2022-05-07T08:15:45Z</time>
      </trkpt>
      <trkpt lat="43.31465" lon="-1.6817">
        <ele>389</ele>
        <time>2022-05-07T08:15:50Z</time>
      </trkpt>
      <trkpt lat="43.31466" lon="-1.68172">
        <ele>389</ele>
        <time>2022-05-07T08:15:51Z</time>
      </trkpt>
      <trkpt lat="43.31471" lon="-1.68176">
        <ele>388.6</ele>
        <time>2022-05-07T08:15:53Z</time>
      </trkpt>
      <trkpt lat="43.31474" lon="-1.68177">
        <ele>388</ele>
        <time>2022-05-07T08:15:54Z</time>
      </trkpt>
      <trkpt lat="43.31476" lon="-1.68176">
        <ele>388</ele>
        <time>2022-05-07T08:15:55Z</time>
      </trkpt>
      <trkpt lat="43.31482" lon="-1.68172">
        <ele>386.8</ele>
        <time>2022-05-07T08:15:58Z</time>
      </trkpt>
      <trkpt lat="43.31484" lon="-1.68171">
        <ele>386.6</ele>
        <time>2022-05-07T08:15:59Z</time>
      </trkpt>
      <trkpt lat="43.3149" lon="-1.6817">
        <ele>385.6</ele>
        <time>2022-05-07T08:16:04Z</time>
      </trkpt>
      <trkpt lat="43.31492" lon="-1.68178">
        <ele>384.6</ele>
        <time>2022-05-07T08:16:08Z</time>
      </trkpt>
      <trkpt lat="43.31493" lon="-1.6818">
        <ele>384.2</ele>
        <time>2022-05-07T08:16:09Z</time>
      </trkpt>
      <trkpt lat="43.315" lon="-1.68186">
        <ele>383.4</ele>
        <time>2022-05-07T08:16:13Z</time>
      </trkpt>
      <trkpt lat="43.31504" lon="-1.68191">
        <ele>383.2</ele>
        <time>2022-05-07T08:16:15Z</time>
      </trkpt>
      <trkpt lat="43.31511" lon="-1.68201">
        <ele>382.2</ele>
        <time>2022-05-07T08:16:19Z</time>
      </trkpt>
      <trkpt lat="43.31517" lon="-1.68205">
        <ele>381.2</ele>
        <time>2022-05-07T08:16:21Z</time>
      </trkpt>
      <trkpt lat="43.3152" lon="-1.68207">
        <ele>381</ele>
        <time>2022-05-07T08:16:22Z</time>
      </trkpt>
      <trkpt lat="43.31524" lon="-1.68209">
        <ele>380.4</ele>
        <time>2022-05-07T08:16:23Z</time>
      </trkpt>
      <trkpt lat="43.31532" lon="-1.68213">
        <ele>379.4</ele>
        <time>2022-05-07T08:16:25Z</time>
      </trkpt>
      <trkpt lat="43.31536" lon="-1.68215">
        <ele>378.6</ele>
        <time>2022-05-07T08:16:26Z</time>
      </trkpt>
      <trkpt lat="43.3154" lon="-1.68217">
        <ele>377.8</ele>
        <time>2022-05-07T08:16:27Z</time>
      </trkpt>
      <trkpt lat="43.31544" lon="-1.68219">
        <ele>376.6</ele>
        <time>2022-05-07T08:16:29Z</time>
      </trkpt>
      <trkpt lat="43.31546" lon="-1.6822">
        <ele>376</ele>
        <time>2022-05-07T08:16:30Z</time>
      </trkpt>
      <trkpt lat="43.31548" lon="-1.68221">
        <ele>375.2</ele>
        <time>2022-05-07T08:16:31Z</time>
      </trkpt>
      <trkpt lat="43.3155" lon="-1.68222">
        <ele>374</ele>
        <time>2022-05-07T08:16:32Z</time>
      </trkpt>
      <trkpt lat="43.31556" lon="-1.68226">
        <ele>372.6</ele>
        <time>2022-05-07T08:16:34Z</time>
      </trkpt>
      <trkpt lat="43.31559" lon="-1.68229">
        <ele>372.2</ele>
        <time>2022-05-07T08:16:35Z</time>
      </trkpt>
      <trkpt lat="43.31562" lon="-1.68231">
        <ele>371.4</ele>
        <time>2022-05-07T08:16:36Z</time>
      </trkpt>
      <trkpt lat="43.31567" lon="-1.68237">
        <ele>370.4</ele>
        <time>2022-05-07T08:16:38Z</time>
      </trkpt>
      <trkpt lat="43.31574" lon="-1.68242">
        <ele>369</ele>
        <time>2022-05-07T08:16:40Z</time>
      </trkpt>
      <trkpt lat="43.3159" lon="-1.68253">
        <ele>367.8</ele>
        <time>2022-05-07T08:16:43Z</time>
      </trkpt>
      <trkpt lat="43.31595" lon="-1.68257">
        <ele>366</ele>
        <time>2022-05-07T08:16:44Z</time>
      </trkpt>
      <trkpt lat="43.316" lon="-1.68261">
        <ele>364.6</ele>
        <time>2022-05-07T08:16:45Z</time>
      </trkpt>
      <trkpt lat="43.31608" lon="-1.68267">
        <ele>362.2</ele>
        <time>2022-05-07T08:16:47Z</time>
      </trkpt>
      <trkpt lat="43.31613" lon="-1.6827">
        <ele>361.4</ele>
        <time>2022-05-07T08:16:48Z</time>
      </trkpt>
      <trkpt lat="43.31617" lon="-1.68273">
        <ele>360</ele>
        <time>2022-05-07T08:16:49Z</time>
      </trkpt>
      <trkpt lat="43.31624" lon="-1.68279">
        <ele>357.6</ele>
        <time>2022-05-07T08:16:51Z</time>
      </trkpt>
      <trkpt lat="43.31632" lon="-1.68284">
        <ele>354.8</ele>
        <time>2022-05-07T08:16:53Z</time>
      </trkpt>
      <trkpt lat="43.31635" lon="-1.68287">
        <ele>353.8</ele>
        <time>2022-05-07T08:16:54Z</time>
      </trkpt>
      <trkpt lat="43.31639" lon="-1.68289">
        <ele>352</ele>
        <time>2022-05-07T08:16:55Z</time>
      </trkpt>
      <trkpt lat="43.31648" lon="-1.68293">
        <ele>349.2</ele>
        <time>2022-05-07T08:16:57Z</time>
      </trkpt>
      <trkpt lat="43.31657" lon="-1.68297">
        <ele>347</ele>
        <time>2022-05-07T08:16:59Z</time>
      </trkpt>
      <trkpt lat="43.31667" lon="-1.68301">
        <ele>345</ele>
        <time>2022-05-07T08:17:01Z</time>
      </trkpt>
      <trkpt lat="43.31675" lon="-1.68305">
        <ele>342</ele>
        <time>2022-05-07T08:17:03Z</time>
      </trkpt>
      <trkpt lat="43.31678" lon="-1.68307">
        <ele>340.8</ele>
        <time>2022-05-07T08:17:04Z</time>
      </trkpt>
      <trkpt lat="43.31681" lon="-1.68308">
        <ele>339.4</ele>
        <time>2022-05-07T08:17:05Z</time>
      </trkpt>
      <trkpt lat="43.31684" lon="-1.6831">
        <ele>338</ele>
        <time>2022-05-07T08:17:06Z</time>
      </trkpt>
      <trkpt lat="43.3169" lon="-1.68312">
        <ele>335.6</ele>
        <time>2022-05-07T08:17:08Z</time>
      </trkpt>
      <trkpt lat="43.31695" lon="-1.68314">
        <ele>333.2</ele>
        <time>2022-05-07T08:17:10Z</time>
      </trkpt>
      <trkpt lat="43.31699" lon="-1.68316">
        <ele>331.6</ele>
        <time>2022-05-07T08:17:12Z</time>
      </trkpt>
      <trkpt lat="43.31701" lon="-1.68317">
        <ele>331</ele>
        <time>2022-05-07T08:17:13Z</time>
      </trkpt>
      <trkpt lat="43.31703" lon="-1.68317">
        <ele>330.2</ele>
        <time>2022-05-07T08:17:14Z</time>
      </trkpt>
      <trkpt lat="43.31707" lon="-1.68319">
        <ele>328.8</ele>
        <time>2022-05-07T08:17:16Z</time>
      </trkpt>
      <trkpt lat="43.31711" lon="-1.68319">
        <ele>327.6</ele>
        <time>2022-05-07T08:17:18Z</time>
      </trkpt>
      <trkpt lat="43.31715" lon="-1.6832">
        <ele>326.6</ele>
        <time>2022-05-07T08:17:20Z</time>
      </trkpt>
      <trkpt lat="43.31717" lon="-1.68321">
        <ele>326.2</ele>
        <time>2022-05-07T08:17:21Z</time>
      </trkpt>
      <trkpt lat="43.31727" lon="-1.68326">
        <ele>324.6</ele>
        <time>2022-05-07T08:17:24Z</time>
      </trkpt>
      <trkpt lat="43.31733" lon="-1.68328">
        <ele>324</ele>
        <time>2022-05-07T08:17:25Z</time>
      </trkpt>
      <trkpt lat="43.31742" lon="-1.6833">
        <ele>323.4</ele>
        <time>2022-05-07T08:17:27Z</time>
      </trkpt>
      <trkpt lat="43.31755" lon="-1.68331">
        <ele>322.6</ele>
        <time>2022-05-07T08:17:30Z</time>
      </trkpt>
      <trkpt lat="43.31759" lon="-1.68331">
        <ele>321.8</ele>
        <time>2022-05-07T08:17:31Z</time>
      </trkpt>
      <trkpt lat="43.31767" lon="-1.68332">
        <ele>319.8</ele>
        <time>2022-05-07T08:17:33Z</time>
      </trkpt>
      <trkpt lat="43.31775" lon="-1.68334">
        <ele>318.4</ele>
        <time>2022-05-07T08:17:35Z</time>
      </trkpt>
      <trkpt lat="43.31782" lon="-1.68335">
        <ele>316.8</ele>
        <time>2022-05-07T08:17:37Z</time>
      </trkpt>
      <trkpt lat="43.31789" lon="-1.68338">
        <ele>315</ele>
        <time>2022-05-07T08:17:39Z</time>
      </trkpt>
      <trkpt lat="43.31796" lon="-1.68343">
        <ele>312.8</ele>
        <time>2022-05-07T08:17:41Z</time>
      </trkpt>
      <trkpt lat="43.31802" lon="-1.68349">
        <ele>311</ele>
        <time>2022-05-07T08:17:43Z</time>
      </trkpt>
      <trkpt lat="43.31808" lon="-1.68354">
        <ele>309.8</ele>
        <time>2022-05-07T08:17:45Z</time>
      </trkpt>
      <trkpt lat="43.31811" lon="-1.68356">
        <ele>308.2</ele>
        <time>2022-05-07T08:17:46Z</time>
      </trkpt>
      <trkpt lat="43.31819" lon="-1.6836">
        <ele>306.4</ele>
        <time>2022-05-07T08:17:48Z</time>
      </trkpt>
      <trkpt lat="43.31823" lon="-1.68363">
        <ele>305.6</ele>
        <time>2022-05-07T08:17:49Z</time>
      </trkpt>
      <trkpt lat="43.31827" lon="-1.68366">
        <ele>304</ele>
        <time>2022-05-07T08:17:50Z</time>
      </trkpt>
      <trkpt lat="43.31835" lon="-1.68373">
        <ele>302.8</ele>
        <time>2022-05-07T08:17:52Z</time>
      </trkpt>
      <trkpt lat="43.3184" lon="-1.68377">
        <ele>302.2</ele>
        <time>2022-05-07T08:17:53Z</time>
      </trkpt>
      <trkpt lat="43.31844" lon="-1.6838">
        <ele>300.4</ele>
        <time>2022-05-07T08:17:54Z</time>
      </trkpt>
      <trkpt lat="43.31853" lon="-1.68388">
        <ele>298.6</ele>
        <time>2022-05-07T08:17:56Z</time>
      </trkpt>
      <trkpt lat="43.31862" lon="-1.68396">
        <ele>296.2</ele>
        <time>2022-05-07T08:17:58Z</time>
      </trkpt>
      <trkpt lat="43.31872" lon="-1.68406">
        <ele>294</ele>
        <time>2022-05-07T08:18:00Z</time>
      </trkpt>
      <trkpt lat="43.31877" lon="-1.6841">
        <ele>293</ele>
        <time>2022-05-07T08:18:01Z</time>
      </trkpt>
      <trkpt lat="43.31881" lon="-1.68415">
        <ele>291.8</ele>
        <time>2022-05-07T08:18:02Z</time>
      </trkpt>
      <trkpt lat="43.31888" lon="-1.68423">
        <ele>288.6</ele>
        <time>2022-05-07T08:18:04Z</time>
      </trkpt>
      <trkpt lat="43.31891" lon="-1.68425">
        <ele>287.6</ele>
        <time>2022-05-07T08:18:05Z</time>
      </trkpt>
      <trkpt lat="43.31895" lon="-1.68426">
        <ele>286</ele>
        <time>2022-05-07T08:18:06Z</time>
      </trkpt>
      <trkpt lat="43.31899" lon="-1.68427">
        <ele>284.2</ele>
        <time>2022-05-07T08:18:07Z</time>
      </trkpt>
      <trkpt lat="43.31908" lon="-1.6843">
        <ele>282.6</ele>
        <time>2022-05-07T08:18:09Z</time>
      </trkpt>
      <trkpt lat="43.31919" lon="-1.68434">
        <ele>280.8</ele>
        <time>2022-05-07T08:18:11Z</time>
      </trkpt>
      <trkpt lat="43.31926" lon="-1.68435">
        <ele>280.4</ele>
        <time>2022-05-07T08:18:12Z</time>
      </trkpt>
      <trkpt lat="43.31931" lon="-1.68436">
        <ele>279.4</ele>
        <time>2022-05-07T08:18:13Z</time>
      </trkpt>
      <trkpt lat="43.31936" lon="-1.68436">
        <ele>278.8</ele>
        <time>2022-05-07T08:18:14Z</time>
      </trkpt>
      <trkpt lat="43.31941" lon="-1.68435">
        <ele>277.6</ele>
        <time>2022-05-07T08:18:15Z</time>
      </trkpt>
      <trkpt lat="43.3195" lon="-1.68428">
        <ele>276</ele>
        <time>2022-05-07T08:18:17Z</time>
      </trkpt>
      <trkpt lat="43.31956" lon="-1.68422">
        <ele>275</ele>
        <time>2022-05-07T08:18:19Z</time>
      </trkpt>
      <trkpt lat="43.31961" lon="-1.68415">
        <ele>273.4</ele>
        <time>2022-05-07T08:18:21Z</time>
      </trkpt>
      <trkpt lat="43.31964" lon="-1.68412">
        <ele>272.8</ele>
        <time>2022-05-07T08:18:22Z</time>
      </trkpt>
      <trkpt lat="43.31968" lon="-1.68409">
        <ele>271.6</ele>
        <time>2022-05-07T08:18:23Z</time>
      </trkpt>
      <trkpt lat="43.31971" lon="-1.68406">
        <ele>271.2</ele>
        <time>2022-05-07T08:18:24Z</time>
      </trkpt>
      <trkpt lat="43.31974" lon="-1.68403">
        <ele>270</ele>
        <time>2022-05-07T08:18:25Z</time>
      </trkpt>
      <trkpt lat="43.31981" lon="-1.68398">
        <ele>268.6</ele>
        <time>2022-05-07T08:18:27Z</time>
      </trkpt>
      <trkpt lat="43.31985" lon="-1.68397">
        <ele>266.8</ele>
        <time>2022-05-07T08:18:28Z</time>
      </trkpt>
      <trkpt lat="43.31989" lon="-1.68396">
        <ele>266.2</ele>
        <time>2022-05-07T08:18:29Z</time>
      </trkpt>
      <trkpt lat="43.31993" lon="-1.68395">
        <ele>265.2</ele>
        <time>2022-05-07T08:18:30Z</time>
      </trkpt>
      <trkpt lat="43.32" lon="-1.68394">
        <ele>263</ele>
        <time>2022-05-07T08:18:32Z</time>
      </trkpt>
      <trkpt lat="43.32007" lon="-1.68395">
        <ele>261</ele>
        <time>2022-05-07T08:18:34Z</time>
      </trkpt>
      <trkpt lat="43.32014" lon="-1.68394">
        <ele>259.6</ele>
        <time>2022-05-07T08:18:36Z</time>
      </trkpt>
      <trkpt lat="43.32019" lon="-1.68395">
        <ele>258.6</ele>
        <time>2022-05-07T08:18:38Z</time>
      </trkpt>
      <trkpt lat="43.32021" lon="-1.68395">
        <ele>258</ele>
        <time>2022-05-07T08:18:39Z</time>
      </trkpt>
      <trkpt lat="43.32023" lon="-1.68396">
        <ele>257</ele>
        <time>2022-05-07T08:18:40Z</time>
      </trkpt>
      <trkpt lat="43.32029" lon="-1.68398">
        <ele>255.8</ele>
        <time>2022-05-07T08:18:42Z</time>
      </trkpt>
      <trkpt lat="43.32031" lon="-1.684">
        <ele>255.4</ele>
        <time>2022-05-07T08:18:43Z</time>
      </trkpt>
      <trkpt lat="43.32035" lon="-1.68405">
        <ele>254.4</ele>
        <time>2022-05-07T08:18:45Z</time>
      </trkpt>
      <trkpt lat="43.32039" lon="-1.68412">
        <ele>252.8</ele>
        <time>2022-05-07T08:18:47Z</time>
      </trkpt>
      <trkpt lat="43.32045" lon="-1.68417">
        <ele>251.2</ele>
        <time>2022-05-07T08:18:49Z</time>
      </trkpt>
      <trkpt lat="43.32051" lon="-1.68422">
        <ele>249.4</ele>
        <time>2022-05-07T08:18:51Z</time>
      </trkpt>
      <trkpt lat="43.3206" lon="-1.68426">
        <ele>248.2</ele>
        <time>2022-05-07T08:18:54Z</time>
      </trkpt>
      <trkpt lat="43.32062" lon="-1.68427">
        <ele>247.2</ele>
        <time>2022-05-07T08:18:55Z</time>
      </trkpt>
      <trkpt lat="43.3207" lon="-1.68429">
        <ele>246</ele>
        <time>2022-05-07T08:18:57Z</time>
      </trkpt>
      <trkpt lat="43.32078" lon="-1.68427">
        <ele>244.6</ele>
        <time>2022-05-07T08:18:59Z</time>
      </trkpt>
      <trkpt lat="43.32082" lon="-1.68426">
        <ele>244.4</ele>
        <time>2022-05-07T08:19:00Z</time>
      </trkpt>
      <trkpt lat="43.3209" lon="-1.68426">
        <ele>243.6</ele>
        <time>2022-05-07T08:19:02Z</time>
      </trkpt>
      <trkpt lat="43.32106" lon="-1.6842">
        <ele>242.4</ele>
        <time>2022-05-07T08:19:06Z</time>
      </trkpt>
      <trkpt lat="43.32108" lon="-1.68418">
        <ele>242</ele>
        <time>2022-05-07T08:19:07Z</time>
      </trkpt>
      <trkpt lat="43.32117" lon="-1.68404">
        <ele>241.2</ele>
        <time>2022-05-07T08:19:12Z</time>
      </trkpt>
      <trkpt lat="43.32136" lon="-1.68382">
        <ele>241.2</ele>
        <time>2022-05-07T08:19:21Z</time>
      </trkpt>
      <trkpt lat="43.3214" lon="-1.68377">
        <ele>241.6</ele>
        <time>2022-05-07T08:19:24Z</time>
      </trkpt>
      <trkpt lat="43.32141" lon="-1.68375">
        <ele>241.6</ele>
        <time>2022-05-07T08:19:25Z</time>
      </trkpt>
      <trkpt lat="43.32145" lon="-1.6837">
        <ele>242.2</ele>
        <time>2022-05-07T08:19:29Z</time>
      </trkpt>
      <trkpt lat="43.32146" lon="-1.68368">
        <ele>242.4</ele>
        <time>2022-05-07T08:19:30Z</time>
      </trkpt>
      <trkpt lat="43.32147" lon="-1.68366">
        <ele>242.4</ele>
        <time>2022-05-07T08:19:31Z</time>
      </trkpt>
      <trkpt lat="43.3215" lon="-1.68361">
        <ele>243</ele>
        <time>2022-05-07T08:19:33Z</time>
      </trkpt>
      <trkpt lat="43.32152" lon="-1.68355">
        <ele>243.2</ele>
        <time>2022-05-07T08:19:35Z</time>
      </trkpt>
      <trkpt lat="43.32153" lon="-1.6835">
        <ele>243.4</ele>
        <time>2022-05-07T08:19:37Z</time>
      </trkpt>
      <trkpt lat="43.32157" lon="-1.6833">
        <ele>244.4</ele>
        <time>2022-05-07T08:19:43Z</time>
      </trkpt>
      <trkpt lat="43.32159" lon="-1.68324">
        <ele>245.2</ele>
        <time>2022-05-07T08:19:45Z</time>
      </trkpt>
      <trkpt lat="43.32159" lon="-1.6832">
        <ele>245.8</ele>
        <time>2022-05-07T08:19:47Z</time>
      </trkpt>
      <trkpt lat="43.3216" lon="-1.68312">
        <ele>247.2</ele>
        <time>2022-05-07T08:19:50Z</time>
      </trkpt>
      <trkpt lat="43.32161" lon="-1.68309">
        <ele>247.6</ele>
        <time>2022-05-07T08:19:51Z</time>
      </trkpt>
      <trkpt lat="43.32161" lon="-1.68303">
        <ele>248.6</ele>
        <time>2022-05-07T08:19:54Z</time>
      </trkpt>
      <trkpt lat="43.3216" lon="-1.68298">
        <ele>249</ele>
        <time>2022-05-07T08:19:56Z</time>
      </trkpt>
      <trkpt lat="43.3216" lon="-1.68292">
        <ele>249.6</ele>
        <time>2022-05-07T08:19:58Z</time>
      </trkpt>
      <trkpt lat="43.3216" lon="-1.68285">
        <ele>250.6</ele>
        <time>2022-05-07T08:20:01Z</time>
      </trkpt>
      <trkpt lat="43.32159" lon="-1.68279">
        <ele>251.6</ele>
        <time>2022-05-07T08:20:04Z</time>
      </trkpt>
      <trkpt lat="43.32159" lon="-1.68274">
        <ele>252.2</ele>
        <time>2022-05-07T08:20:06Z</time>
      </trkpt>
      <trkpt lat="43.32159" lon="-1.68267">
        <ele>252.8</ele>
        <time>2022-05-07T08:20:09Z</time>
      </trkpt>
      <trkpt lat="43.32159" lon="-1.68258">
        <ele>254</ele>
        <time>2022-05-07T08:20:13Z</time>
      </trkpt>
      <trkpt lat="43.32159" lon="-1.68256">
        <ele>254.2</ele>
        <time>2022-05-07T08:20:14Z</time>
      </trkpt>
      <trkpt lat="43.32159" lon="-1.68251">
        <ele>255.2</ele>
        <time>2022-05-07T08:20:16Z</time>
      </trkpt>
      <trkpt lat="43.3216" lon="-1.68238">
        <ele>256.2</ele>
        <time>2022-05-07T08:20:21Z</time>
      </trkpt>
      <trkpt lat="43.3216" lon="-1.68236">
        <ele>256.4</ele>
        <time>2022-05-07T08:20:22Z</time>
      </trkpt>
      <trkpt lat="43.32161" lon="-1.68225">
        <ele>257.4</ele>
        <time>2022-05-07T08:20:26Z</time>
      </trkpt>
      <trkpt lat="43.32163" lon="-1.68216">
        <ele>258.2</ele>
        <time>2022-05-07T08:20:30Z</time>
      </trkpt>
      <trkpt lat="43.32164" lon="-1.68206">
        <ele>258.6</ele>
        <time>2022-05-07T08:20:33Z</time>
      </trkpt>
      <trkpt lat="43.32168" lon="-1.68189">
        <ele>259.4</ele>
        <time>2022-05-07T08:20:39Z</time>
      </trkpt>
      <trkpt lat="43.3217" lon="-1.68186">
        <ele>259.8</ele>
        <time>2022-05-07T08:20:40Z</time>
      </trkpt>
      <trkpt lat="43.32172" lon="-1.68175">
        <ele>260.4</ele>
        <time>2022-05-07T08:20:45Z</time>
      </trkpt>
      <trkpt lat="43.32174" lon="-1.68168">
        <ele>261.2</ele>
        <time>2022-05-07T08:20:48Z</time>
      </trkpt>
      <trkpt lat="43.32178" lon="-1.68159">
        <ele>262.2</ele>
        <time>2022-05-07T08:20:52Z</time>
      </trkpt>
      <trkpt lat="43.3218" lon="-1.68156">
        <ele>262.6</ele>
        <time>2022-05-07T08:20:54Z</time>
      </trkpt>
      <trkpt lat="43.32181" lon="-1.68154">
        <ele>263.2</ele>
        <time>2022-05-07T08:20:55Z</time>
      </trkpt>
      <trkpt lat="43.32185" lon="-1.68146">
        <ele>264.6</ele>
        <time>2022-05-07T08:20:59Z</time>
      </trkpt>
      <trkpt lat="43.32188" lon="-1.68142">
        <ele>265.4</ele>
        <time>2022-05-07T08:21:01Z</time>
      </trkpt>
      <trkpt lat="43.32191" lon="-1.68139">
        <ele>266</ele>
        <time>2022-05-07T08:21:03Z</time>
      </trkpt>
      <trkpt lat="43.32196" lon="-1.68134">
        <ele>267</ele>
        <time>2022-05-07T08:21:07Z</time>
      </trkpt>
      <trkpt lat="43.32197" lon="-1.68134">
        <ele>267.4</ele>
        <time>2022-05-07T08:21:08Z</time>
      </trkpt>
      <trkpt lat="43.32203" lon="-1.68131">
        <ele>268.6</ele>
        <time>2022-05-07T08:21:12Z</time>
      </trkpt>
      <trkpt lat="43.32207" lon="-1.68129">
        <ele>269.4</ele>
        <time>2022-05-07T08:21:15Z</time>
      </trkpt>
      <trkpt lat="43.32209" lon="-1.68128">
        <ele>269.8</ele>
        <time>2022-05-07T08:21:16Z</time>
      </trkpt>
      <trkpt lat="43.32214" lon="-1.68129">
        <ele>270.8</ele>
        <time>2022-05-07T08:21:20Z</time>
      </trkpt>
      <trkpt lat="43.32216" lon="-1.6813">
        <ele>271</ele>
        <time>2022-05-07T08:21:21Z</time>
      </trkpt>
      <trkpt lat="43.32217" lon="-1.68131">
        <ele>271.2</ele>
        <time>2022-05-07T08:21:22Z</time>
      </trkpt>
      <trkpt lat="43.32218" lon="-1.6814">
        <ele>271.4</ele>
        <time>2022-05-07T08:21:26Z</time>
      </trkpt>
      <trkpt lat="43.32218" lon="-1.68144">
        <ele>271.6</ele>
        <time>2022-05-07T08:21:32Z</time>
      </trkpt>
      <trkpt lat="43.32218" lon="-1.68144">
        <ele>271.4</ele>
        <time>2022-05-07T08:21:55Z</time>
      </trkpt>
      <trkpt lat="43.32218" lon="-1.68145">
        <ele>271.4</ele>
        <time>2022-05-07T08:22:01Z</time>
      </trkpt>
      <trkpt lat="43.32215" lon="-1.68149">
        <ele>271.4</ele>
        <time>2022-05-07T08:22:03Z</time>
      </trkpt>
      <trkpt lat="43.32207" lon="-1.68178">
        <ele>271.2</ele>
        <time>2022-05-07T08:22:10Z</time>
      </trkpt>
      <trkpt lat="43.32206" lon="-1.68207">
        <ele>271</ele>
        <time>2022-05-07T08:22:16Z</time>
      </trkpt>
      <trkpt lat="43.32212" lon="-1.68227">
        <ele>270.8</ele>
        <time>2022-05-07T08:22:22Z</time>
      </trkpt>
      <trkpt lat="43.32218" lon="-1.68247">
        <ele>271.8</ele>
        <time>2022-05-07T08:22:29Z</time>
      </trkpt>
      <trkpt lat="43.32219" lon="-1.68252">
        <ele>272.2</ele>
        <time>2022-05-07T08:22:31Z</time>
      </trkpt>
      <trkpt lat="43.3222" lon="-1.68263">
        <ele>273.4</ele>
        <time>2022-05-07T08:22:36Z</time>
      </trkpt>
      <trkpt lat="43.3222" lon="-1.68266">
        <ele>273.6</ele>
        <time>2022-05-07T08:22:37Z</time>
      </trkpt>
      <trkpt lat="43.32222" lon="-1.68273">
        <ele>274.4</ele>
        <time>2022-05-07T08:22:40Z</time>
      </trkpt>
      <trkpt lat="43.32223" lon="-1.68283">
        <ele>275.6</ele>
        <time>2022-05-07T08:22:44Z</time>
      </trkpt>
      <trkpt lat="43.32223" lon="-1.68286">
        <ele>275.8</ele>
        <time>2022-05-07T08:22:45Z</time>
      </trkpt>
      <trkpt lat="43.32224" lon="-1.68294">
        <ele>276.6</ele>
        <time>2022-05-07T08:22:48Z</time>
      </trkpt>
      <trkpt lat="43.32228" lon="-1.68312">
        <ele>277.4</ele>
        <time>2022-05-07T08:22:54Z</time>
      </trkpt>
      <trkpt lat="43.32229" lon="-1.68315">
        <ele>277.8</ele>
        <time>2022-05-07T08:22:55Z</time>
      </trkpt>
      <trkpt lat="43.32238" lon="-1.68334">
        <ele>278.6</ele>
        <time>2022-05-07T08:23:03Z</time>
      </trkpt>
      <trkpt lat="43.32239" lon="-1.68336">
        <ele>278.8</ele>
        <time>2022-05-07T08:23:04Z</time>
      </trkpt>
      <trkpt lat="43.32244" lon="-1.68347">
        <ele>280</ele>
        <time>2022-05-07T08:23:09Z</time>
      </trkpt>
      <trkpt lat="43.32245" lon="-1.68349">
        <ele>280.6</ele>
        <time>2022-05-07T08:23:10Z</time>
      </trkpt>
      <trkpt lat="43.32247" lon="-1.68354">
        <ele>281.2</ele>
        <time>2022-05-07T08:23:12Z</time>
      </trkpt>
      <trkpt lat="43.32251" lon="-1.68363">
        <ele>282.2</ele>
        <time>2022-05-07T08:23:16Z</time>
      </trkpt>
      <trkpt lat="43.32252" lon="-1.68365">
        <ele>282.4</ele>
        <time>2022-05-07T08:23:17Z</time>
      </trkpt>
      <trkpt lat="43.32257" lon="-1.68375">
        <ele>283.6</ele>
        <time>2022-05-07T08:23:22Z</time>
      </trkpt>
      <trkpt lat="43.32263" lon="-1.68385">
        <ele>285</ele>
        <time>2022-05-07T08:23:27Z</time>
      </trkpt>
      <trkpt lat="43.32277" lon="-1.68409">
        <ele>286</ele>
        <time>2022-05-07T08:23:37Z</time>
      </trkpt>
      <trkpt lat="43.3228" lon="-1.68413">
        <ele>286.2</ele>
        <time>2022-05-07T08:23:39Z</time>
      </trkpt>
      <trkpt lat="43.32293" lon="-1.68433">
        <ele>286.4</ele>
        <time>2022-05-07T08:23:48Z</time>
      </trkpt>
      <trkpt lat="43.32309" lon="-1.68447">
        <ele>286</ele>
        <time>2022-05-07T08:23:55Z</time>
      </trkpt>
      <trkpt lat="43.32329" lon="-1.68456">
        <ele>285.4</ele>
        <time>2022-05-07T08:24:01Z</time>
      </trkpt>
      <trkpt lat="43.32338" lon="-1.68459">
        <ele>284.8</ele>
        <time>2022-05-07T08:24:03Z</time>
      </trkpt>
      <trkpt lat="43.32355" lon="-1.68464">
        <ele>283.4</ele>
        <time>2022-05-07T08:24:07Z</time>
      </trkpt>
      <trkpt lat="43.32358" lon="-1.68464">
        <ele>283</ele>
        <time>2022-05-07T08:24:08Z</time>
      </trkpt>
      <trkpt lat="43.32362" lon="-1.68463">
        <ele>282.2</ele>
        <time>2022-05-07T08:24:09Z</time>
      </trkpt>
      <trkpt lat="43.32366" lon="-1.68461">
        <ele>281.6</ele>
        <time>2022-05-07T08:24:10Z</time>
      </trkpt>
      <trkpt lat="43.3237" lon="-1.6846">
        <ele>280.8</ele>
        <time>2022-05-07T08:24:11Z</time>
      </trkpt>
      <trkpt lat="43.3238" lon="-1.68458">
        <ele>280.2</ele>
        <time>2022-05-07T08:24:13Z</time>
      </trkpt>
      <trkpt lat="43.32385" lon="-1.68457">
        <ele>279.8</ele>
        <time>2022-05-07T08:24:14Z</time>
      </trkpt>
      <trkpt lat="43.3239" lon="-1.68457">
        <ele>279.2</ele>
        <time>2022-05-07T08:24:15Z</time>
      </trkpt>
      <trkpt lat="43.32395" lon="-1.68458">
        <ele>279.2</ele>
        <time>2022-05-07T08:24:16Z</time>
      </trkpt>
      <trkpt lat="43.324" lon="-1.68459">
        <ele>278.8</ele>
        <time>2022-05-07T08:24:17Z</time>
      </trkpt>
      <trkpt lat="43.32409" lon="-1.68462">
        <ele>277</ele>
        <time>2022-05-07T08:24:19Z</time>
      </trkpt>
      <trkpt lat="43.32416" lon="-1.68464">
        <ele>276</ele>
        <time>2022-05-07T08:24:21Z</time>
      </trkpt>
      <trkpt lat="43.32419" lon="-1.68465">
        <ele>274.8</ele>
        <time>2022-05-07T08:24:22Z</time>
      </trkpt>
      <trkpt lat="43.32425" lon="-1.68467">
        <ele>273.6</ele>
        <time>2022-05-07T08:24:24Z</time>
      </trkpt>
      <trkpt lat="43.32431" lon="-1.68471">
        <ele>272.4</ele>
        <time>2022-05-07T08:24:27Z</time>
      </trkpt>
      <trkpt lat="43.32433" lon="-1.68472">
        <ele>271.8</ele>
        <time>2022-05-07T08:24:28Z</time>
      </trkpt>
      <trkpt lat="43.3244" lon="-1.68473">
        <ele>271.2</ele>
        <time>2022-05-07T08:24:31Z</time>
      </trkpt>
      <trkpt lat="43.32448" lon="-1.68478">
        <ele>270</ele>
        <time>2022-05-07T08:24:34Z</time>
      </trkpt>
      <trkpt lat="43.3245" lon="-1.68481">
        <ele>269.8</ele>
        <time>2022-05-07T08:24:35Z</time>
      </trkpt>
      <trkpt lat="43.32461" lon="-1.68489">
        <ele>269</ele>
        <time>2022-05-07T08:24:39Z</time>
      </trkpt>
      <trkpt lat="43.32464" lon="-1.6849">
        <ele>269</ele>
        <time>2022-05-07T08:24:40Z</time>
      </trkpt>
      <trkpt lat="43.32484" lon="-1.68492">
        <ele>267.6</ele>
        <time>2022-05-07T08:24:45Z</time>
      </trkpt>
      <trkpt lat="43.32493" lon="-1.68492">
        <ele>267.4</ele>
        <time>2022-05-07T08:24:47Z</time>
      </trkpt>
      <trkpt lat="43.32509" lon="-1.6849">
        <ele>266.4</ele>
        <time>2022-05-07T08:24:51Z</time>
      </trkpt>
      <trkpt lat="43.32516" lon="-1.68491">
        <ele>266.2</ele>
        <time>2022-05-07T08:24:53Z</time>
      </trkpt>
      <trkpt lat="43.32536" lon="-1.68494">
        <ele>265.8</ele>
        <time>2022-05-07T08:25:00Z</time>
      </trkpt>
      <trkpt lat="43.32551" lon="-1.68494">
        <ele>265.4</ele>
        <time>2022-05-07T08:25:05Z</time>
      </trkpt>
      <trkpt lat="43.32557" lon="-1.68494">
        <ele>265.2</ele>
        <time>2022-05-07T08:25:08Z</time>
      </trkpt>
      <trkpt lat="43.32566" lon="-1.68494">
        <ele>265.4</ele>
        <time>2022-05-07T08:25:13Z</time>
      </trkpt>
      <trkpt lat="43.32581" lon="-1.68497">
        <ele>265.4</ele>
        <time>2022-05-07T08:25:19Z</time>
      </trkpt>
      <trkpt lat="43.32583" lon="-1.68498">
        <ele>265.4</ele>
        <time>2022-05-07T08:25:21Z</time>
      </trkpt>
      <trkpt lat="43.32585" lon="-1.68499">
        <ele>265</ele>
        <time>2022-05-07T08:25:23Z</time>
      </trkpt>
      <trkpt lat="43.32588" lon="-1.68504">
        <ele>264.6</ele>
        <time>2022-05-07T08:25:27Z</time>
      </trkpt>
      <trkpt lat="43.3259" lon="-1.68504">
        <ele>264.6</ele>
        <time>2022-05-07T08:25:28Z</time>
      </trkpt>
      <trkpt lat="43.32593" lon="-1.68505">
        <ele>264.4</ele>
        <time>2022-05-07T08:25:30Z</time>
      </trkpt>
      <trkpt lat="43.32594" lon="-1.68505">
        <ele>264.2</ele>
        <time>2022-05-07T08:25:31Z</time>
      </trkpt>
      <trkpt lat="43.32599" lon="-1.68508">
        <ele>263.6</ele>
        <time>2022-05-07T08:25:35Z</time>
      </trkpt>
      <trkpt lat="43.32601" lon="-1.68509">
        <ele>263.2</ele>
        <time>2022-05-07T08:25:37Z</time>
      </trkpt>
      <trkpt lat="43.32606" lon="-1.68513">
        <ele>262.2</ele>
        <time>2022-05-07T08:25:40Z</time>
      </trkpt>
      <trkpt lat="43.32611" lon="-1.68516">
        <ele>261.2</ele>
        <time>2022-05-07T08:25:43Z</time>
      </trkpt>
      <trkpt lat="43.32613" lon="-1.68518">
        <ele>260.8</ele>
        <time>2022-05-07T08:25:44Z</time>
      </trkpt>
      <trkpt lat="43.3262" lon="-1.68522">
        <ele>259.6</ele>
        <time>2022-05-07T08:25:48Z</time>
      </trkpt>
      <trkpt lat="43.32625" lon="-1.68525">
        <ele>258.4</ele>
        <time>2022-05-07T08:25:50Z</time>
      </trkpt>
      <trkpt lat="43.32627" lon="-1.68527">
        <ele>258</ele>
        <time>2022-05-07T08:25:51Z</time>
      </trkpt>
      <trkpt lat="43.32629" lon="-1.68529">
        <ele>257.4</ele>
        <time>2022-05-07T08:25:52Z</time>
      </trkpt>
      <trkpt lat="43.32635" lon="-1.68532">
        <ele>256.6</ele>
        <time>2022-05-07T08:25:55Z</time>
      </trkpt>
      <trkpt lat="43.32637" lon="-1.68534">
        <ele>255.4</ele>
        <time>2022-05-07T08:25:56Z</time>
      </trkpt>
      <trkpt lat="43.3264" lon="-1.68536">
        <ele>254.8</ele>
        <time>2022-05-07T08:25:57Z</time>
      </trkpt>
      <trkpt lat="43.32642" lon="-1.68538">
        <ele>253.6</ele>
        <time>2022-05-07T08:25:58Z</time>
      </trkpt>
      <trkpt lat="43.32647" lon="-1.6854">
        <ele>252.4</ele>
        <time>2022-05-07T08:26:00Z</time>
      </trkpt>
      <trkpt lat="43.32649" lon="-1.68542">
        <ele>251.4</ele>
        <time>2022-05-07T08:26:01Z</time>
      </trkpt>
      <trkpt lat="43.32653" lon="-1.68547">
        <ele>249.8</ele>
        <time>2022-05-07T08:26:03Z</time>
      </trkpt>
      <trkpt lat="43.32655" lon="-1.6855">
        <ele>249.4</ele>
        <time>2022-05-07T08:26:04Z</time>
      </trkpt>
      <trkpt lat="43.32658" lon="-1.68553">
        <ele>248.8</ele>
        <time>2022-05-07T08:26:05Z</time>
      </trkpt>
      <trkpt lat="43.32666" lon="-1.68561">
        <ele>247.2</ele>
        <time>2022-05-07T08:26:08Z</time>
      </trkpt>
      <trkpt lat="43.32668" lon="-1.68563">
        <ele>246</ele>
        <time>2022-05-07T08:26:09Z</time>
      </trkpt>
      <trkpt lat="43.32671" lon="-1.68565">
        <ele>245.6</ele>
        <time>2022-05-07T08:26:10Z</time>
      </trkpt>
      <trkpt lat="43.32673" lon="-1.68568">
        <ele>245</ele>
        <time>2022-05-07T08:26:11Z</time>
      </trkpt>
      <trkpt lat="43.32678" lon="-1.68572">
        <ele>243.4</ele>
        <time>2022-05-07T08:26:13Z</time>
      </trkpt>
      <trkpt lat="43.32684" lon="-1.68576">
        <ele>241.4</ele>
        <time>2022-05-07T08:26:15Z</time>
      </trkpt>
      <trkpt lat="43.3269" lon="-1.68579">
        <ele>240</ele>
        <time>2022-05-07T08:26:17Z</time>
      </trkpt>
      <trkpt lat="43.32697" lon="-1.68584">
        <ele>238.8</ele>
        <time>2022-05-07T08:26:19Z</time>
      </trkpt>
      <trkpt lat="43.32701" lon="-1.68587">
        <ele>237.4</ele>
        <time>2022-05-07T08:26:20Z</time>
      </trkpt>
      <trkpt lat="43.32707" lon="-1.68592">
        <ele>236</ele>
        <time>2022-05-07T08:26:22Z</time>
      </trkpt>
      <trkpt lat="43.32713" lon="-1.68595">
        <ele>235</ele>
        <time>2022-05-07T08:26:24Z</time>
      </trkpt>
      <trkpt lat="43.32718" lon="-1.68596">
        <ele>233.4</ele>
        <time>2022-05-07T08:26:26Z</time>
      </trkpt>
      <trkpt lat="43.3272" lon="-1.68597">
        <ele>232.4</ele>
        <time>2022-05-07T08:26:27Z</time>
      </trkpt>
      <trkpt lat="43.32721" lon="-1.68597">
        <ele>231.2</ele>
        <time>2022-05-07T08:26:28Z</time>
      </trkpt>
      <trkpt lat="43.32725" lon="-1.68599">
        <ele>230.2</ele>
        <time>2022-05-07T08:26:31Z</time>
      </trkpt>
      <trkpt lat="43.32727" lon="-1.686">
        <ele>229.4</ele>
        <time>2022-05-07T08:26:32Z</time>
      </trkpt>
      <trkpt lat="43.32729" lon="-1.68602">
        <ele>229.2</ele>
        <time>2022-05-07T08:26:33Z</time>
      </trkpt>
      <trkpt lat="43.3273" lon="-1.68604">
        <ele>229</ele>
        <time>2022-05-07T08:26:34Z</time>
      </trkpt>
      <trkpt lat="43.32734" lon="-1.6861">
        <ele>227.8</ele>
        <time>2022-05-07T08:26:36Z</time>
      </trkpt>
      <trkpt lat="43.3274" lon="-1.68615">
        <ele>226.4</ele>
        <time>2022-05-07T08:26:39Z</time>
      </trkpt>
      <trkpt lat="43.32746" lon="-1.68621">
        <ele>225</ele>
        <time>2022-05-07T08:26:42Z</time>
      </trkpt>
      <trkpt lat="43.32752" lon="-1.68627">
        <ele>223.6</ele>
        <time>2022-05-07T08:26:45Z</time>
      </trkpt>
      <trkpt lat="43.32755" lon="-1.68629">
        <ele>223.2</ele>
        <time>2022-05-07T08:26:46Z</time>
      </trkpt>
      <trkpt lat="43.3276" lon="-1.68633">
        <ele>222.6</ele>
        <time>2022-05-07T08:26:48Z</time>
      </trkpt>
      <trkpt lat="43.32766" lon="-1.68636">
        <ele>220.6</ele>
        <time>2022-05-07T08:26:51Z</time>
      </trkpt>
      <trkpt lat="43.32768" lon="-1.68638">
        <ele>220.2</ele>
        <time>2022-05-07T08:26:52Z</time>
      </trkpt>
      <trkpt lat="43.32774" lon="-1.6864">
        <ele>219.4</ele>
        <time>2022-05-07T08:26:54Z</time>
      </trkpt>
      <trkpt lat="43.3278" lon="-1.68643">
        <ele>218.2</ele>
        <time>2022-05-07T08:26:56Z</time>
      </trkpt>
      <trkpt lat="43.32783" lon="-1.68644">
        <ele>217.4</ele>
        <time>2022-05-07T08:26:57Z</time>
      </trkpt>
      <trkpt lat="43.32785" lon="-1.68645">
        <ele>216.4</ele>
        <time>2022-05-07T08:26:58Z</time>
      </trkpt>
      <trkpt lat="43.32793" lon="-1.68648">
        <ele>215.2</ele>
        <time>2022-05-07T08:27:01Z</time>
      </trkpt>
      <trkpt lat="43.32795" lon="-1.68649">
        <ele>214</ele>
        <time>2022-05-07T08:27:02Z</time>
      </trkpt>
      <trkpt lat="43.328" lon="-1.68653">
        <ele>212.4</ele>
        <time>2022-05-07T08:27:04Z</time>
      </trkpt>
      <trkpt lat="43.32804" lon="-1.68658">
        <ele>210.4</ele>
        <time>2022-05-07T08:27:06Z</time>
      </trkpt>
      <trkpt lat="43.32806" lon="-1.6866">
        <ele>209.8</ele>
        <time>2022-05-07T08:27:07Z</time>
      </trkpt>
      <trkpt lat="43.32807" lon="-1.68662">
        <ele>209.2</ele>
        <time>2022-05-07T08:27:08Z</time>
      </trkpt>
      <trkpt lat="43.32812" lon="-1.68666">
        <ele>207.6</ele>
        <time>2022-05-07T08:27:10Z</time>
      </trkpt>
      <trkpt lat="43.32817" lon="-1.68669">
        <ele>206.2</ele>
        <time>2022-05-07T08:27:12Z</time>
      </trkpt>
      <trkpt lat="43.32822" lon="-1.68672">
        <ele>204.4</ele>
        <time>2022-05-07T08:27:14Z</time>
      </trkpt>
      <trkpt lat="43.32827" lon="-1.68674">
        <ele>202.8</ele>
        <time>2022-05-07T08:27:16Z</time>
      </trkpt>
      <trkpt lat="43.32833" lon="-1.68676">
        <ele>201</ele>
        <time>2022-05-07T08:27:18Z</time>
      </trkpt>
      <trkpt lat="43.32836" lon="-1.68677">
        <ele>199.4</ele>
        <time>2022-05-07T08:27:19Z</time>
      </trkpt>
      <trkpt lat="43.32841" lon="-1.68678">
        <ele>198</ele>
        <time>2022-05-07T08:27:21Z</time>
      </trkpt>
      <trkpt lat="43.32847" lon="-1.68679">
        <ele>196.4</ele>
        <time>2022-05-07T08:27:23Z</time>
      </trkpt>
      <trkpt lat="43.32852" lon="-1.68677">
        <ele>194.8</ele>
        <time>2022-05-07T08:27:25Z</time>
      </trkpt>
      <trkpt lat="43.32858" lon="-1.68676">
        <ele>193.6</ele>
        <time>2022-05-07T08:27:27Z</time>
      </trkpt>
      <trkpt lat="43.32863" lon="-1.68674">
        <ele>192.2</ele>
        <time>2022-05-07T08:27:29Z</time>
      </trkpt>
      <trkpt lat="43.32869" lon="-1.68672">
        <ele>191.2</ele>
        <time>2022-05-07T08:27:31Z</time>
      </trkpt>
      <trkpt lat="43.32872" lon="-1.68671">
        <ele>190.8</ele>
        <time>2022-05-07T08:27:32Z</time>
      </trkpt>
      <trkpt lat="43.32878" lon="-1.68667">
        <ele>189.6</ele>
        <time>2022-05-07T08:27:34Z</time>
      </trkpt>
      <trkpt lat="43.32883" lon="-1.68664">
        <ele>188.6</ele>
        <time>2022-05-07T08:27:36Z</time>
      </trkpt>
      <trkpt lat="43.32885" lon="-1.68664">
        <ele>188</ele>
        <time>2022-05-07T08:27:37Z</time>
      </trkpt>
      <trkpt lat="43.32892" lon="-1.68662">
        <ele>186.2</ele>
        <time>2022-05-07T08:27:40Z</time>
      </trkpt>
      <trkpt lat="43.32895" lon="-1.68662">
        <ele>184.6</ele>
        <time>2022-05-07T08:27:42Z</time>
      </trkpt>
      <trkpt lat="43.32897" lon="-1.68663">
        <ele>184.4</ele>
        <time>2022-05-07T08:27:43Z</time>
      </trkpt>
      <trkpt lat="43.32901" lon="-1.68666">
        <ele>183.4</ele>
        <time>2022-05-07T08:27:46Z</time>
      </trkpt>
      <trkpt lat="43.32905" lon="-1.68667">
        <ele>182</ele>
        <time>2022-05-07T08:27:48Z</time>
      </trkpt>
      <trkpt lat="43.32907" lon="-1.68667">
        <ele>181.6</ele>
        <time>2022-05-07T08:27:49Z</time>
      </trkpt>
      <trkpt lat="43.3291" lon="-1.68667">
        <ele>180.8</ele>
        <time>2022-05-07T08:27:50Z</time>
      </trkpt>
      <trkpt lat="43.32916" lon="-1.68664">
        <ele>179.6</ele>
        <time>2022-05-07T08:27:53Z</time>
      </trkpt>
      <trkpt lat="43.32921" lon="-1.68661">
        <ele>178.6</ele>
        <time>2022-05-07T08:27:55Z</time>
      </trkpt>
      <trkpt lat="43.32926" lon="-1.68658">
        <ele>177.6</ele>
        <time>2022-05-07T08:27:57Z</time>
      </trkpt>
      <trkpt lat="43.32931" lon="-1.68653">
        <ele>176</ele>
        <time>2022-05-07T08:27:59Z</time>
      </trkpt>
      <trkpt lat="43.32936" lon="-1.68647">
        <ele>175</ele>
        <time>2022-05-07T08:28:01Z</time>
      </trkpt>
      <trkpt lat="43.32939" lon="-1.68643">
        <ele>173.6</ele>
        <time>2022-05-07T08:28:03Z</time>
      </trkpt>
      <trkpt lat="43.32941" lon="-1.68637">
        <ele>172.4</ele>
        <time>2022-05-07T08:28:06Z</time>
      </trkpt>
      <trkpt lat="43.32941" lon="-1.68636">
        <ele>172</ele>
        <time>2022-05-07T08:28:07Z</time>
      </trkpt>
      <trkpt lat="43.32944" lon="-1.68634">
        <ele>171.6</ele>
        <time>2022-05-07T08:28:09Z</time>
      </trkpt>
      <trkpt lat="43.32945" lon="-1.68634">
        <ele>171.4</ele>
        <time>2022-05-07T08:28:10Z</time>
      </trkpt>
      <trkpt lat="43.32946" lon="-1.68635">
        <ele>171</ele>
        <time>2022-05-07T08:28:11Z</time>
      </trkpt>
      <trkpt lat="43.32949" lon="-1.68636">
        <ele>169.8</ele>
        <time>2022-05-07T08:28:13Z</time>
      </trkpt>
      <trkpt lat="43.32956" lon="-1.68636">
        <ele>169.2</ele>
        <time>2022-05-07T08:28:17Z</time>
      </trkpt>
      <trkpt lat="43.32967" lon="-1.68635">
        <ele>168.6</ele>
        <time>2022-05-07T08:28:22Z</time>
      </trkpt>
      <trkpt lat="43.32969" lon="-1.68634">
        <ele>168</ele>
        <time>2022-05-07T08:28:23Z</time>
      </trkpt>
      <trkpt lat="43.32971" lon="-1.68633">
        <ele>167</ele>
        <time>2022-05-07T08:28:24Z</time>
      </trkpt>
      <trkpt lat="43.32972" lon="-1.68631">
        <ele>166.6</ele>
        <time>2022-05-07T08:28:25Z</time>
      </trkpt>
      <trkpt lat="43.32973" lon="-1.68629">
        <ele>165.8</ele>
        <time>2022-05-07T08:28:26Z</time>
      </trkpt>
      <trkpt lat="43.32974" lon="-1.68625">
        <ele>164.6</ele>
        <time>2022-05-07T08:28:28Z</time>
      </trkpt>
      <trkpt lat="43.32975" lon="-1.68617">
        <ele>163.4</ele>
        <time>2022-05-07T08:28:31Z</time>
      </trkpt>
      <trkpt lat="43.32977" lon="-1.68606">
        <ele>161.8</ele>
        <time>2022-05-07T08:28:34Z</time>
      </trkpt>
      <trkpt lat="43.32981" lon="-1.68599">
        <ele>160.4</ele>
        <time>2022-05-07T08:28:37Z</time>
      </trkpt>
      <trkpt lat="43.32983" lon="-1.68599">
        <ele>159.8</ele>
        <time>2022-05-07T08:28:38Z</time>
      </trkpt>
      <trkpt lat="43.32987" lon="-1.686">
        <ele>158.8</ele>
        <time>2022-05-07T08:28:40Z</time>
      </trkpt>
      <trkpt lat="43.32992" lon="-1.68602">
        <ele>157.6</ele>
        <time>2022-05-07T08:28:42Z</time>
      </trkpt>
      <trkpt lat="43.32996" lon="-1.68603">
        <ele>156.4</ele>
        <time>2022-05-07T08:28:44Z</time>
      </trkpt>
      <trkpt lat="43.32997" lon="-1.68602">
        <ele>156.2</ele>
        <time>2022-05-07T08:28:45Z</time>
      </trkpt>
      <trkpt lat="43.33" lon="-1.686">
        <ele>155.4</ele>
        <time>2022-05-07T08:28:47Z</time>
      </trkpt>
      <trkpt lat="43.33" lon="-1.68599">
        <ele>155</ele>
        <time>2022-05-07T08:28:48Z</time>
      </trkpt>
      <trkpt lat="43.33" lon="-1.68597">
        <ele>154.2</ele>
        <time>2022-05-07T08:28:49Z</time>
      </trkpt>
      <trkpt lat="43.33" lon="-1.68595">
        <ele>153.8</ele>
        <time>2022-05-07T08:28:50Z</time>
      </trkpt>
      <trkpt lat="43.33002" lon="-1.68583">
        <ele>152.8</ele>
        <time>2022-05-07T08:28:54Z</time>
      </trkpt>
      <trkpt lat="43.33004" lon="-1.68574">
        <ele>151.6</ele>
        <time>2022-05-07T08:28:57Z</time>
      </trkpt>
      <trkpt lat="43.33004" lon="-1.68573">
        <ele>151.2</ele>
        <time>2022-05-07T08:28:58Z</time>
      </trkpt>
      <trkpt lat="43.33005" lon="-1.68571">
        <ele>150.8</ele>
        <time>2022-05-07T08:28:59Z</time>
      </trkpt>
      <trkpt lat="43.33006" lon="-1.68569">
        <ele>150.4</ele>
        <time>2022-05-07T08:29:00Z</time>
      </trkpt>
      <trkpt lat="43.33006" lon="-1.68567">
        <ele>149.4</ele>
        <time>2022-05-07T08:29:01Z</time>
      </trkpt>
      <trkpt lat="43.33007" lon="-1.68565">
        <ele>148.6</ele>
        <time>2022-05-07T08:29:02Z</time>
      </trkpt>
      <trkpt lat="43.33008" lon="-1.68562">
        <ele>148</ele>
        <time>2022-05-07T08:29:04Z</time>
      </trkpt>
      <trkpt lat="43.3301" lon="-1.6856">
        <ele>147.2</ele>
        <time>2022-05-07T08:29:06Z</time>
      </trkpt>
      <trkpt lat="43.33011" lon="-1.68558">
        <ele>147</ele>
        <time>2022-05-07T08:29:07Z</time>
      </trkpt>
      <trkpt lat="43.33012" lon="-1.68558">
        <ele>146.4</ele>
        <time>2022-05-07T08:29:08Z</time>
      </trkpt>
      <trkpt lat="43.33013" lon="-1.68558">
        <ele>146.2</ele>
        <time>2022-05-07T08:29:09Z</time>
      </trkpt>
      <trkpt lat="43.33015" lon="-1.68558">
        <ele>146</ele>
        <time>2022-05-07T08:29:10Z</time>
      </trkpt>
      <trkpt lat="43.33019" lon="-1.68559">
        <ele>144.8</ele>
        <time>2022-05-07T08:29:13Z</time>
      </trkpt>
      <trkpt lat="43.33024" lon="-1.6856">
        <ele>143.4</ele>
        <time>2022-05-07T08:29:16Z</time>
      </trkpt>
      <trkpt lat="43.33025" lon="-1.6856">
        <ele>143.2</ele>
        <time>2022-05-07T08:29:17Z</time>
      </trkpt>
      <trkpt lat="43.33029" lon="-1.68563">
        <ele>142.4</ele>
        <time>2022-05-07T08:29:19Z</time>
      </trkpt>
      <trkpt lat="43.33036" lon="-1.68568">
        <ele>141</ele>
        <time>2022-05-07T08:29:23Z</time>
      </trkpt>
      <trkpt lat="43.33038" lon="-1.68571">
        <ele>140.6</ele>
        <time>2022-05-07T08:29:24Z</time>
      </trkpt>
      <trkpt lat="43.33043" lon="-1.68581">
        <ele>139.6</ele>
        <time>2022-05-07T08:29:27Z</time>
      </trkpt>
      <trkpt lat="43.33048" lon="-1.68589">
        <ele>138.2</ele>
        <time>2022-05-07T08:29:30Z</time>
      </trkpt>
      <trkpt lat="43.33049" lon="-1.68591">
        <ele>137.2</ele>
        <time>2022-05-07T08:29:31Z</time>
      </trkpt>
      <trkpt lat="43.33054" lon="-1.68595">
        <ele>135.8</ele>
        <time>2022-05-07T08:29:33Z</time>
      </trkpt>
      <trkpt lat="43.33061" lon="-1.68601">
        <ele>134.6</ele>
        <time>2022-05-07T08:29:37Z</time>
      </trkpt>
      <trkpt lat="43.33069" lon="-1.68612">
        <ele>133</ele>
        <time>2022-05-07T08:29:42Z</time>
      </trkpt>
      <trkpt lat="43.33073" lon="-1.68614">
        <ele>131.4</ele>
        <time>2022-05-07T08:29:44Z</time>
      </trkpt>
      <trkpt lat="43.33077" lon="-1.68617">
        <ele>130.2</ele>
        <time>2022-05-07T08:29:46Z</time>
      </trkpt>
      <trkpt lat="43.33078" lon="-1.68618">
        <ele>130</ele>
        <time>2022-05-07T08:29:47Z</time>
      </trkpt>
      <trkpt lat="43.3308" lon="-1.6862">
        <ele>129.4</ele>
        <time>2022-05-07T08:29:49Z</time>
      </trkpt>
      <trkpt lat="43.33082" lon="-1.68621">
        <ele>128.4</ele>
        <time>2022-05-07T08:29:50Z</time>
      </trkpt>
      <trkpt lat="43.33086" lon="-1.68624">
        <ele>127.4</ele>
        <time>2022-05-07T08:29:52Z</time>
      </trkpt>
      <trkpt lat="43.33092" lon="-1.68631">
        <ele>126.4</ele>
        <time>2022-05-07T08:29:55Z</time>
      </trkpt>
      <trkpt lat="43.33094" lon="-1.68633">
        <ele>126.2</ele>
        <time>2022-05-07T08:29:56Z</time>
      </trkpt>
      <trkpt lat="43.33098" lon="-1.68637">
        <ele>125.4</ele>
        <time>2022-05-07T08:29:58Z</time>
      </trkpt>
      <trkpt lat="43.33102" lon="-1.68642">
        <ele>124.2</ele>
        <time>2022-05-07T08:30:01Z</time>
      </trkpt>
      <trkpt lat="43.33104" lon="-1.68644">
        <ele>123.4</ele>
        <time>2022-05-07T08:30:02Z</time>
      </trkpt>
      <trkpt lat="43.33106" lon="-1.68647">
        <ele>122.8</ele>
        <time>2022-05-07T08:30:03Z</time>
      </trkpt>
      <trkpt lat="43.33113" lon="-1.68654">
        <ele>121.2</ele>
        <time>2022-05-07T08:30:07Z</time>
      </trkpt>
      <trkpt lat="43.33115" lon="-1.68655">
        <ele>120.6</ele>
        <time>2022-05-07T08:30:09Z</time>
      </trkpt>
      <trkpt lat="43.33115" lon="-1.68655">
        <ele>119.8</ele>
        <time>2022-05-07T08:30:11Z</time>
      </trkpt>
      <trkpt lat="43.33115" lon="-1.68655">
        <ele>118.6</ele>
        <time>2022-05-07T08:30:14Z</time>
      </trkpt>
      <trkpt lat="43.33117" lon="-1.68654">
        <ele>117.4</ele>
        <time>2022-05-07T08:30:23Z</time>
      </trkpt>
      <trkpt lat="43.33117" lon="-1.68654">
        <ele>117.2</ele>
        <time>2022-05-07T08:30:24Z</time>
      </trkpt>
      <trkpt lat="43.33117" lon="-1.68654">
        <ele>117.2</ele>
        <time>2022-05-07T08:30:25Z</time>
      </trkpt>
      <trkpt lat="43.33121" lon="-1.68651">
        <ele>116.6</ele>
        <time>2022-05-07T08:30:27Z</time>
      </trkpt>
      <trkpt lat="43.33125" lon="-1.68644">
        <ele>116.2</ele>
        <time>2022-05-07T08:30:30Z</time>
      </trkpt>
      <trkpt lat="43.33126" lon="-1.68641">
        <ele>116.2</ele>
        <time>2022-05-07T08:30:31Z</time>
      </trkpt>
      <trkpt lat="43.33129" lon="-1.68635">
        <ele>115.4</ele>
        <time>2022-05-07T08:30:33Z</time>
      </trkpt>
      <trkpt lat="43.3313" lon="-1.68631">
        <ele>114.8</ele>
        <time>2022-05-07T08:30:34Z</time>
      </trkpt>
      <trkpt lat="43.33135" lon="-1.68616">
        <ele>113.4</ele>
        <time>2022-05-07T08:30:38Z</time>
      </trkpt>
      <trkpt lat="43.33138" lon="-1.68606">
        <ele>112.2</ele>
        <time>2022-05-07T08:30:41Z</time>
      </trkpt>
      <trkpt lat="43.3314" lon="-1.68602">
        <ele>111</ele>
        <time>2022-05-07T08:30:42Z</time>
      </trkpt>
      <trkpt lat="43.33142" lon="-1.686">
        <ele>110</ele>
        <time>2022-05-07T08:30:43Z</time>
      </trkpt>
      <trkpt lat="43.33143" lon="-1.68598">
        <ele>109.4</ele>
        <time>2022-05-07T08:30:44Z</time>
      </trkpt>
      <trkpt lat="43.33143" lon="-1.68598">
        <ele>108.6</ele>
        <time>2022-05-07T08:30:45Z</time>
      </trkpt>
      <trkpt lat="43.33143" lon="-1.68598">
        <ele>107.6</ele>
        <time>2022-05-07T08:30:49Z</time>
      </trkpt>
      <trkpt lat="43.33143" lon="-1.68597">
        <ele>107</ele>
        <time>2022-05-07T08:30:56Z</time>
      </trkpt>
      <trkpt lat="43.33143" lon="-1.68596">
        <ele>106.8</ele>
        <time>2022-05-07T08:31:14Z</time>
      </trkpt>
      <trkpt lat="43.33144" lon="-1.68595">
        <ele>107</ele>
        <time>2022-05-07T08:31:22Z</time>
      </trkpt>
      <trkpt lat="43.33148" lon="-1.6859">
        <ele>106.8</ele>
        <time>2022-05-07T08:31:24Z</time>
      </trkpt>
      <trkpt lat="43.3316" lon="-1.68589">
        <ele>106.6</ele>
        <time>2022-05-07T08:31:28Z</time>
      </trkpt>
      <trkpt lat="43.33172" lon="-1.68595">
        <ele>106.4</ele>
        <time>2022-05-07T08:31:32Z</time>
      </trkpt>
      <trkpt lat="43.33176" lon="-1.68604">
        <ele>106.2</ele>
        <time>2022-05-07T08:31:34Z</time>
      </trkpt>
      <trkpt lat="43.33178" lon="-1.68613">
        <ele>105.8</ele>
        <time>2022-05-07T08:31:36Z</time>
      </trkpt>
      <trkpt lat="43.33178" lon="-1.68633">
        <ele>105.2</ele>
        <time>2022-05-07T08:31:40Z</time>
      </trkpt>
      <trkpt lat="43.33178" lon="-1.6864">
        <ele>104.8</ele>
        <time>2022-05-07T08:31:41Z</time>
      </trkpt>
      <trkpt lat="43.3318" lon="-1.68654">
        <ele>104.4</ele>
        <time>2022-05-07T08:31:43Z</time>
      </trkpt>
      <trkpt lat="43.33181" lon="-1.68662">
        <ele>104</ele>
        <time>2022-05-07T08:31:44Z</time>
      </trkpt>
      <trkpt lat="43.33184" lon="-1.6867">
        <ele>104</ele>
        <time>2022-05-07T08:31:45Z</time>
      </trkpt>
      <trkpt lat="43.33195" lon="-1.68693">
        <ele>103</ele>
        <time>2022-05-07T08:31:48Z</time>
      </trkpt>
      <trkpt lat="43.33202" lon="-1.68707">
        <ele>102.4</ele>
        <time>2022-05-07T08:31:50Z</time>
      </trkpt>
      <trkpt lat="43.33206" lon="-1.68713">
        <ele>102.4</ele>
        <time>2022-05-07T08:31:51Z</time>
      </trkpt>
      <trkpt lat="43.3321" lon="-1.68718">
        <ele>102</ele>
        <time>2022-05-07T08:31:52Z</time>
      </trkpt>
      <trkpt lat="43.33215" lon="-1.68723">
        <ele>101.8</ele>
        <time>2022-05-07T08:31:53Z</time>
      </trkpt>
      <trkpt lat="43.33219" lon="-1.68726">
        <ele>101.4</ele>
        <time>2022-05-07T08:31:54Z</time>
      </trkpt>
      <trkpt lat="43.3323" lon="-1.68728">
        <ele>100.8</ele>
        <time>2022-05-07T08:31:56Z</time>
      </trkpt>
      <trkpt lat="43.33264" lon="-1.68731">
        <ele>99.4</ele>
        <time>2022-05-07T08:32:01Z</time>
      </trkpt>
      <trkpt lat="43.33289" lon="-1.68737">
        <ele>99</ele>
        <time>2022-05-07T08:32:04Z</time>
      </trkpt>
      <trkpt lat="43.33298" lon="-1.68738">
        <ele>98.4</ele>
        <time>2022-05-07T08:32:05Z</time>
      </trkpt>
      <trkpt lat="43.33306" lon="-1.68738">
        <ele>98.2</ele>
        <time>2022-05-07T08:32:06Z</time>
      </trkpt>
      <trkpt lat="43.33329" lon="-1.6874">
        <ele>96.6</ele>
        <time>2022-05-07T08:32:09Z</time>
      </trkpt>
      <trkpt lat="43.33336" lon="-1.68739">
        <ele>96.2</ele>
        <time>2022-05-07T08:32:10Z</time>
      </trkpt>
      <trkpt lat="43.33342" lon="-1.68739">
        <ele>95.4</ele>
        <time>2022-05-07T08:32:11Z</time>
      </trkpt>
      <trkpt lat="43.33352" lon="-1.6874">
        <ele>94.6</ele>
        <time>2022-05-07T08:32:13Z</time>
      </trkpt>
      <trkpt lat="43.33356" lon="-1.68741">
        <ele>94.4</ele>
        <time>2022-05-07T08:32:14Z</time>
      </trkpt>
      <trkpt lat="43.33369" lon="-1.68746">
        <ele>93</ele>
        <time>2022-05-07T08:32:17Z</time>
      </trkpt>
      <trkpt lat="43.33376" lon="-1.68757">
        <ele>92.2</ele>
        <time>2022-05-07T08:32:20Z</time>
      </trkpt>
      <trkpt lat="43.33376" lon="-1.6876">
        <ele>92.2</ele>
        <time>2022-05-07T08:32:21Z</time>
      </trkpt>
      <trkpt lat="43.33376" lon="-1.68761">
        <ele>92</ele>
        <time>2022-05-07T08:32:22Z</time>
      </trkpt>
      <trkpt lat="43.33376" lon="-1.68761">
        <ele>91.8</ele>
        <time>2022-05-07T08:32:23Z</time>
      </trkpt>
      <trkpt lat="43.33376" lon="-1.68763">
        <ele>91.4</ele>
        <time>2022-05-07T08:32:34Z</time>
      </trkpt>
      <trkpt lat="43.33376" lon="-1.68763">
        <ele>91.2</ele>
        <time>2022-05-07T08:32:43Z</time>
      </trkpt>
      <trkpt lat="43.33376" lon="-1.68763">
        <ele>91</ele>
        <time>2022-05-07T08:33:36Z</time>
      </trkpt>
      <trkpt lat="43.33376" lon="-1.68763">
        <ele>91.2</ele>
        <time>2022-05-07T08:34:58Z</time>
      </trkpt>
      <trkpt lat="43.33376" lon="-1.68763">
        <ele>91.4</ele>
        <time>2022-05-07T08:35:22Z</time>
      </trkpt>
    </trkseg>
  </trk>
</gpx>